[[{"header":{"parameterUnit":"m.s-1","parameterCategory":1,"la1":30.6,"la2":29.2853,"lo1":-89.7004,"lo2":-87.6739,"dx":0.0162,"dy":0.0183,"nx":112,"ny":82,"refTime":"2023-02-10T06:00:00:Z","depth":0,"parameterNumber":2,"parameterNumberName":"U-component_of_WINDS"},"data":[0.0,0.0,0.0,0.0,0.0,0.0,0.0,0.0,0.0,0.0,0.0,0.0,0.0,0.0,0.0,0.0,0.0,0.0,0.0,0.0,0.0,0.0,0.0,0.0,0.0,0.0,0.0,0.0,0.0,0.0,0.0,0.0,0.0,0.0,0.0,0.0,0.0,0.0,0.0,0.0,0.0,0.0,0.0,0.0,0.0,0.0,0.0,0.0,0.0,0.0,0.0,0.0,0.0,0.0,0.0,0.0,0.0,0.0,0.0,0.0,0.0,0.0,0.0,0.0,0.0,0.0,0.0,0.0,0.0,0.0,0.0,0.0,0.0,0.0,0.0,0.0,0.0,0.0,0.0,0.0,0.0,0.0,0.0,0.0,0.0,0.0,0.0,0.0,0.0,0.0,0.0,2.6866,2.7595,2.7257,2.5348,2.4771,2.4213,2.3666,0.0,0.0,0.0,0.0,0.0,0.0,0.0,0.0,0.0,0.0,0.0,0.0,0.0,0.0,0.0,0.0,0.0,0.0,0.0,0.0,0.0,0.0,0.0,0.0,0.0,0.0,0.0,0.0,0.0,0.0,0.0,0.0,0.0,0.0,0.0,0.0,0.0,0.0,0.0,0.0,0.0,0.0,0.0,0.0,0.0,0.0,0.0,0.0,0.0,0.0,0.0,0.0,0.0,0.0,0.0,0.0,0.0,0.0,0.0,0.0,0.0,0.0,0.0,0.0,0.0,0.0,0.0,0.0,0.0,0.0,0.0,0.0,0.0,0.0,0.0,0.0,0.0,0.0,0.0,0.0,0.0,0.0,0.0,0.0,0.0,0.0,0.0,0.0,0.0,0.0,0.0,0.0,0.0,0.0,0.0,0.0,0.0,0.0,0.0,0.0,0.0,0.0,0.0,0.0,2.5586,2.5812,2.6791,2.6834,2.5324,2.5345,2.503,2.4236,0.0,0.0,0.0,0.0,0.0,0.0,0.0,0.0,0.0,0.0,0.0,0.0,0.0,0.0,0.0,0.0,0.0,0.0,0.0,0.0,0.0,0.0,0.0,0.0,0.0,0.0,0.0,0.0,0.0,0.0,0.0,0.0,0.0,0.0,0.0,0.0,0.0,0.0,0.0,0.0,0.0,0.0,0.0,0.0,0.0,0.0,0.0,0.0,0.0,0.0,0.0,0.0,0.0,0.0,0.0,0.0,0.0,0.0,0.0,0.0,0.0,0.0,0.0,0.0,0.0,0.0,0.0,0.0,0.0,0.0,0.0,0.0,0.0,0.0,0.0,0.0,0.0,0.0,0.0,0.0,0.0,0.0,0.0,0.0,0.0,0.0,0.0,0.0,0.0,0.0,0.0,0.0,0.0,0.0,0.0,0.0,0.0,0.0,0.0,0.0,0.0,0.0,0.0,2.6807,2.6615,2.6917,2.7419,2.7182,2.5757,2.5147,2.4825,2.4808,2.555,0.0,0.0,0.0,0.0,0.0,0.0,0.0,0.0,0.0,0.0,0.0,0.0,0.0,0.0,0.0,0.0,0.0,0.0,0.0,0.0,0.0,0.0,0.0,0.0,0.0,0.0,0.0,0.0,0.0,0.0,0.0,0.0,0.0,0.0,0.0,0.0,0.0,0.0,0.0,0.0,0.0,0.0,0.0,0.0,0.0,0.0,0.0,0.0,0.0,0.0,0.0,0.0,0.0,0.0,0.0,0.0,0.0,0.0,0.0,0.0,0.0,0.0,0.0,0.0,0.0,0.0,0.0,0.0,0.0,0.0,0.0,0.0,0.0,0.0,0.0,0.0,0.0,0.0,0.0,0.0,0.0,0.0,0.0,0.0,0.0,0.0,0.0,0.0,0.0,0.0,0.0,0.0,0.0,0.0,0.0,0.0,0.0,0.0,0.0,0.0,0.0,0.0,2.6942,2.7193,2.8021,2.8097,2.758,2.6408,2.5414,2.5182,2.6023,2.6447,0.0,0.0,0.0,0.0,0.0,0.0,0.0,0.0,0.0,0.0,0.0,0.0,0.0,0.0,0.0,0.0,0.0,0.0,0.0,0.0,0.0,0.0,0.0,0.0,0.0,0.0,0.0,0.0,0.0,0.0,0.0,0.0,0.0,0.0,0.0,0.0,0.0,0.0,0.0,0.0,0.0,0.0,0.0,0.0,0.0,0.0,0.0,0.0,0.0,0.0,0.0,0.0,0.0,0.0,0.0,0.0,0.0,0.0,0.0,0.0,0.0,0.0,0.0,0.0,0.0,0.0,0.0,0.0,0.0,0.0,0.0,0.0,0.0,0.0,0.0,0.0,0.0,0.0,0.0,0.0,0.0,0.0,0.0,0.0,0.0,0.0,0.0,0.0,0.0,0.0,0.0,0.0,0.0,0.0,0.0,0.0,0.0,0.0,0.0,0.0,0.0,0.0,2.6967,2.6314,2.7946,2.8097,2.7896,2.7247,2.6671,2.7022,2.8525,2.8675,0.0,0.0,0.0,0.0,0.0,0.0,0.0,0.0,0.0,0.0,0.0,0.0,0.0,0.0,0.0,0.0,0.0,0.0,0.0,0.0,0.0,0.0,0.0,0.0,0.0,0.0,0.0,0.0,0.0,0.0,0.0,0.0,0.0,0.0,0.0,0.0,0.0,0.0,0.0,0.0,0.0,0.0,0.0,0.0,0.0,0.0,0.0,0.0,0.0,0.0,0.0,0.0,0.0,0.0,0.0,0.0,0.0,0.0,0.0,0.0,0.0,0.0,0.0,0.0,0.0,0.0,0.0,0.0,0.0,0.0,0.0,0.0,0.0,0.0,0.0,0.0,0.0,0.0,0.0,0.0,0.0,0.0,0.0,0.0,0.0,0.0,0.0,0.0,0.0,0.0,0.0,0.0,0.0,0.0,0.0,0.0,0.0,0.0,0.0,0.0,0.0,0.0,2.8197,2.7921,0.0,2.8323,2.8172,2.8298,2.7494,2.7846,2.9854,0.0,0.0,0.0,0.0,0.0,0.0,0.0,0.0,0.0,0.0,0.0,0.0,0.0,0.0,0.0,0.0,0.0,0.0,0.0,0.0,0.0,0.0,0.0,0.0,0.0,0.0,0.0,0.0,0.0,0.0,0.0,0.0,0.0,0.0,0.0,0.0,0.0,0.0,0.0,0.0,0.0,0.0,0.0,0.0,0.0,0.0,0.0,0.0,0.0,0.0,0.0,0.0,0.0,0.0,0.0,0.0,0.0,0.0,0.0,0.0,0.0,0.0,0.0,0.0,0.0,0.0,0.0,0.0,0.0,0.0,0.0,0.0,0.0,0.0,0.0,0.0,0.0,0.0,0.0,0.0,0.0,0.0,0.0,0.0,0.0,0.0,0.0,0.0,0.0,0.0,0.0,0.0,0.0,0.0,0.0,0.0,0.0,0.0,0.0,0.0,0.0,0.0,2.9126,2.8725,2.8624,0.0,2.8699,2.8524,2.89,2.8072,2.8423,3.0482,0.0,0.0,0.0,0.0,0.0,0.0,0.0,0.0,0.0,0.0,0.0,0.0,0.0,0.0,0.0,0.0,0.0,0.0,0.0,0.0,0.0,0.0,0.0,0.0,0.0,0.0,0.0,0.0,0.0,0.0,0.0,0.0,0.0,0.0,0.0,0.0,0.0,0.0,0.0,0.0,0.0,0.0,0.0,0.0,0.0,0.0,0.0,0.0,0.0,0.0,0.0,0.0,0.0,0.0,0.0,0.0,0.0,0.0,0.0,0.0,0.0,0.0,0.0,0.0,0.0,0.0,0.0,0.0,0.0,0.0,0.0,0.0,0.0,0.0,0.0,0.0,0.0,0.0,0.0,0.0,0.0,0.0,0.0,0.0,0.0,0.0,0.0,0.0,0.0,0.0,0.0,0.0,0.0,0.0,0.0,0.0,0.0,0.0,0.0,0.0,0.0,0.0,2.9578,2.8323,2.7946,2.9603,2.9277,2.8925,2.8925,2.8423,2.8825,0.0,0.0,0.0,0.0,0.0,0.0,0.0,0.0,0.0,0.0,0.0,0.0,0.0,0.0,0.0,0.0,0.0,0.0,0.0,0.0,0.0,0.0,0.0,0.0,0.0,0.0,0.0,0.0,0.0,0.0,0.0,0.0,0.0,0.0,0.0,0.0,0.0,0.0,0.0,0.0,0.0,0.0,0.0,0.0,0.0,0.0,0.0,0.0,0.0,0.0,0.0,0.0,0.0,0.0,0.0,0.0,0.0,0.0,0.0,0.0,0.0,0.0,0.0,0.0,0.0,0.0,0.0,0.0,0.0,0.0,0.0,0.0,0.0,0.0,0.0,0.0,0.0,0.0,0.0,0.0,0.0,0.0,0.0,0.0,0.0,0.0,0.0,0.0,0.0,0.0,0.0,0.0,0.0,0.0,0.0,0.0,0.0,0.0,0.0,0.0,0.0,0.0,0.0,2.9628,2.8674,2.8348,2.9654,2.9277,2.9101,2.9503,2.9026,2.9402,3.106,0.0,0.0,0.0,0.0,0.0,0.0,0.0,0.0,0.0,0.0,0.0,0.0,0.0,0.0,0.0,0.0,0.0,0.0,0.0,0.0,0.0,0.0,0.0,0.0,0.0,0.0,0.0,0.0,0.0,0.0,0.0,0.0,0.0,0.0,0.0,0.0,0.0,0.0,0.0,0.0,0.0,0.0,0.0,0.0,0.0,0.0,0.0,0.0,0.0,0.0,0.0,0.0,0.0,0.0,0.0,0.0,0.0,0.0,0.0,0.0,0.0,0.0,0.0,0.0,0.0,0.0,0.0,0.0,0.0,0.0,0.0,0.0,0.0,0.0,0.0,0.0,0.0,0.0,0.0,0.0,0.0,0.0,0.0,0.0,0.0,0.0,0.0,0.0,0.0,0.0,0.0,0.0,0.0,0.0,0.0,0.0,0.0,0.0,0.0,0.0,0.0,0.0,2.9731,2.88,2.8549,2.9679,2.9478,2.9428,2.9754,2.9478,2.9779,3.1009,0.0,0.0,0.0,0.0,0.0,0.0,0.0,0.0,0.0,0.0,0.0,0.0,0.0,0.0,0.0,0.0,0.0,0.0,0.0,0.0,0.0,0.0,0.0,0.0,0.0,0.0,0.0,0.0,0.0,0.0,0.0,0.0,0.0,0.0,0.0,0.0,0.0,0.0,0.0,0.0,0.0,0.0,0.0,0.0,0.0,0.0,0.0,0.0,0.0,0.0,0.0,0.0,0.0,0.0,0.0,0.0,0.0,0.0,0.0,0.0,0.0,0.0,0.0,0.0,0.0,0.0,0.0,0.0,0.0,0.0,0.0,0.0,0.0,0.0,0.0,0.0,0.0,0.0,0.0,0.0,0.0,0.0,0.0,0.0,0.0,0.0,0.0,0.0,0.0,0.0,0.0,0.0,0.0,0.0,0.0,0.0,0.0,0.0,0.0,0.0,0.0,0.0,2.9858,2.8875,2.8599,2.9679,2.9804,2.9804,2.9804,2.9804,3.003,3.0583,0.0,0.0,0.0,0.0,0.0,0.0,0.0,0.0,0.0,0.0,0.0,0.0,0.0,0.0,0.0,0.0,0.0,0.0,0.0,0.0,0.0,0.0,0.0,0.0,0.0,0.0,0.0,0.0,0.0,0.0,0.0,0.0,0.0,0.0,0.0,0.0,0.0,0.0,0.0,0.0,0.0,0.0,0.0,0.0,0.0,0.0,0.0,0.0,0.0,0.0,0.0,0.0,0.0,0.0,0.0,0.0,0.0,0.0,0.0,0.0,2.8953,0.0,0.0,0.0,0.0,0.0,0.0,0.0,0.0,0.0,0.0,0.0,0.0,0.0,0.0,0.0,0.0,0.0,0.0,0.0,0.0,0.0,0.0,0.0,0.0,0.0,0.0,0.0,0.0,0.0,0.0,0.0,0.0,0.0,0.0,0.0,0.0,0.0,0.0,0.0,0.0,0.0,3.0306,2.9453,2.9026,2.9704,2.9804,2.9804,2.9804,2.9804,3.003,3.0583,3.0608,0.0,0.0,0.0,0.0,0.0,0.0,0.0,0.0,0.0,0.0,0.0,0.0,0.0,0.0,0.0,0.0,0.0,0.0,0.0,0.0,0.0,0.0,0.0,0.0,0.0,0.0,0.0,0.0,0.0,0.0,0.0,0.0,0.0,0.0,0.0,0.0,0.0,0.0,0.0,0.0,0.0,0.0,0.0,0.0,0.0,0.0,0.0,0.0,0.0,0.0,0.0,0.0,0.0,0.0,0.0,0.0,0.0,0.0,0.0,0.0,2.9367,0.0,0.0,0.0,0.0,0.0,0.0,0.0,0.0,0.0,0.0,0.0,0.0,0.0,0.0,0.0,0.0,0.0,0.0,0.0,0.0,0.0,0.0,0.0,0.0,0.0,0.0,0.0,0.0,0.0,0.0,0.0,0.0,0.0,0.0,0.0,0.0,0.0,0.0,0.0,0.0,3.0586,2.9628,2.9151,2.9729,2.9804,2.9804,2.9804,2.9804,2.9905,3.0206,3.0457,0.0,0.0,0.0,0.0,0.0,0.0,0.0,0.0,0.0,0.0,0.0,0.0,0.0,0.0,0.0,0.0,0.0,0.0,0.0,0.0,0.0,0.0,0.0,0.0,0.0,0.0,0.0,0.0,0.0,0.0,0.0,0.0,0.0,0.0,0.0,0.0,0.0,0.0,0.0,0.0,0.0,0.0,0.0,0.0,0.0,0.0,0.0,0.0,0.0,0.0,0.0,0.0,0.0,3.0731,3.0971,3.1482,3.0658,2.9981,2.9462,3.0068,2.9946,2.9449,2.972,0.0,0.0,0.0,0.0,0.0,0.0,0.0,0.0,0.0,0.0,0.0,0.0,0.0,0.0,0.0,0.0,0.0,0.0,0.0,0.0,0.0,0.0,0.0,0.0,3.1349,3.1252,0.0,0.0,0.0,0.0,0.0,0.0,0.0,0.0,0.0,0.0,0.0,0.0,3.0612,2.9729,2.9277,2.9754,2.9804,2.9804,2.9804,2.9804,2.9804,2.9804,3.0363,3.1164,0.0,0.0,0.0,0.0,0.0,0.0,0.0,0.0,0.0,0.0,0.0,0.0,0.0,0.0,0.0,0.0,0.0,0.0,0.0,0.0,0.0,0.0,0.0,0.0,0.0,0.0,0.0,0.0,0.0,0.0,0.0,0.0,2.5702,2.5464,0.0,0.0,0.0,0.0,0.0,0.0,0.0,0.0,0.0,0.0,0.0,0.0,0.0,3.0821,3.1988,3.1988,3.2078,3.2258,3.1659,3.1392,3.1482,3.051,3.009,2.9943,2.9279,0.0,2.9348,3.0119,0.0,0.0,0.0,0.0,0.0,0.0,0.0,0.0,0.0,0.0,0.0,0.0,0.0,0.0,0.0,0.0,0.0,0.0,0.0,0.0,0.0,0.0,3.0951,3.0548,3.0069,2.9776,0.0,3.1356,3.251,3.2593,3.2664,0.0,0.0,0.0,0.0,0.0,0.0,0.0,3.0608,3.0055,2.9704,2.9779,2.9804,2.9804,2.9804,2.9804,2.9804,2.9804,3.0622,3.1809,3.3331,3.4384,0.0,0.0,0.0,0.0,0.0,0.0,0.0,0.0,0.0,0.0,0.0,0.0,0.0,0.0,0.0,0.0,0.0,0.0,0.0,0.0,0.0,0.0,0.0,0.0,0.0,0.0,0.0,0.0,0.0,2.6881,2.6948,2.6446,2.7448,2.8363,0.0,0.0,0.0,0.0,0.0,0.0,0.0,0.0,0.0,3.121,3.148,3.1749,3.1958,3.1958,3.2138,3.2527,3.2228,3.196,3.1798,3.0927,3.022,2.9695,2.9295,2.92,2.9426,3.0004,3.112,3.2571,0.0,0.0,0.0,0.0,3.6014,3.515,3.5332,3.448,0.0,3.3951,0.0,0.0,0.0,0.0,0.0,0.0,0.0,0.0,0.0,0.0,3.1249,3.0596,3.0496,3.0522,3.0662,3.1344,3.173,0.0,3.1681,3.232,3.2589,0.0,0.0,0.0,0.0,3.0608,3.0608,3.0131,2.9804,2.9804,2.9804,2.9804,2.9804,2.9804,2.9804,2.9804,3.0696,3.1716,3.298,3.5024,3.6791,0.0,0.0,0.0,0.0,0.0,0.0,0.0,0.0,0.0,0.0,0.0,0.0,0.0,0.0,0.0,0.0,0.0,0.0,0.0,0.0,0.0,0.0,0.0,0.0,0.0,0.0,0.0,0.0,2.7647,2.7709,2.7286,2.8076,2.8909,0.0,0.0,0.0,0.0,0.0,0.0,3.0971,3.1659,3.2258,3.2736,3.2916,3.2856,3.2557,3.2557,3.2646,3.2877,3.3055,3.2879,3.2397,3.1654,3.0966,3.0276,2.9986,2.998,3.0103,3.0415,3.116,3.2144,3.3959,3.4693,3.4819,3.5675,3.5115,3.4023,3.3988,3.3054,3.2,3.2715,0.0,3.3033,3.3528,0.0,0.0,0.0,0.0,3.2291,3.1438,3.1576,3.1707,3.1145,3.1311,3.1637,3.1788,3.1938,3.1662,0.0,3.0983,3.1655,3.1785,0.0,0.0,0.0,0.0,3.0809,3.0809,3.0457,3.0206,3.0206,3.0206,3.0156,3.0005,3.0005,3.0085,3.0139,3.1176,3.2264,3.3198,3.5727,3.7328,3.7913,0.0,0.0,0.0,0.0,0.0,0.0,0.0,0.0,0.0,0.0,0.0,0.0,0.0,0.0,0.0,0.0,0.0,0.0,0.0,0.0,0.0,0.0,0.0,0.0,0.0,0.0,0.0,0.0,0.0,2.6803,2.7115,0.0,0.0,0.0,0.0,3.0398,3.1599,3.2347,3.2407,3.3036,3.3395,3.3455,3.4053,3.4681,3.531,3.531,3.4824,3.3965,3.4531,3.4229,3.3321,3.2921,3.2646,3.2568,3.1669,3.1468,3.1827,3.1937,3.24,3.3144,3.4099,3.4895,3.5335,3.4418,3.4081,3.3876,3.2989,3.2636,3.2566,3.2636,3.2636,3.2636,3.2664,3.2664,0.0,0.0,3.2061,3.1887,3.1458,3.1392,3.1568,3.2014,3.2164,3.2315,3.2867,3.3395,3.3294,0.0,3.0934,3.0838,3.1342,0.0,3.0863,3.1392,3.1442,3.1361,3.1361,3.1336,3.1311,3.1311,3.1311,3.111,3.0608,3.0583,3.0699,3.1071,3.2636,3.3884,3.4836,3.6468,3.7963,3.929,3.8721,0.0,0.0,0.0,0.0,0.0,0.0,0.0,0.0,0.0,0.0,0.0,0.0,0.0,0.0,0.0,0.0,0.0,0.0,0.0,0.0,0.0,0.0,0.0,0.0,0.0,0.0,0.0,0.0,2.8271,2.89,0.0,3.0528,3.0754,3.127,3.2347,3.2886,3.3514,3.4382,3.507,3.5609,3.5998,3.6237,3.6477,3.6716,3.6075,3.559,3.5209,3.4764,3.3963,3.2978,3.3278,3.2826,3.1928,3.1928,3.1776,3.1675,3.3028,3.3564,3.3753,3.5251,3.5908,3.6045,3.5415,3.4797,3.4192,3.3854,3.2885,3.1915,3.2505,3.2733,3.2885,3.3485,3.3261,3.2711,3.2539,3.2071,3.1771,3.2298,3.2466,3.2692,3.3621,3.3822,3.3897,3.4098,3.4299,3.4248,3.3646,3.2817,3.2265,3.2441,3.1712,3.1311,3.1838,3.1612,3.1386,3.1386,3.1386,3.1386,3.1386,3.1386,3.1311,3.1135,3.0809,3.0877,3.1672,3.2527,3.3592,3.4934,3.6537,3.7823,3.8751,3.8512,3.8811,0.0,0.0,0.0,0.0,0.0,0.0,0.0,0.0,0.0,0.0,0.0,0.0,0.0,0.0,0.0,0.0,0.0,0.0,0.0,0.0,0.0,0.0,0.0,0.0,0.0,0.0,2.8659,3.0485,3.1114,3.1758,3.2766,3.2647,3.2976,3.4083,3.4562,3.519,3.6088,3.6823,3.7246,3.7216,3.7243,3.7143,3.6939,3.6282,3.5733,3.5432,3.4886,3.4126,3.3183,3.3778,3.352,3.2541,3.2893,3.2842,3.2659,3.4793,3.5467,3.5378,3.6448,3.6573,3.6222,3.5812,3.491,3.381,3.3453,3.2592,3.1719,3.222,3.2432,3.2748,3.3357,3.3278,3.2924,3.3105,3.2689,3.2441,3.3395,3.3621,3.3822,3.455,3.4876,3.5002,3.5002,3.5152,3.5278,3.5278,3.4223,3.3345,3.3345,3.2566,3.2215,3.2943,3.2591,3.2365,3.2742,3.2641,3.2516,3.2516,3.234,3.2164,3.1964,3.1637,3.1724,3.2444,3.3164,3.4197,3.5729,3.7238,3.8392,3.905,3.9164,3.9747,4.0913,0.0,0.0,0.0,0.0,0.0,0.0,0.0,0.0,0.0,0.0,0.0,0.0,0.0,0.0,0.0,0.0,0.0,0.0,0.0,0.0,0.0,0.0,0.0,2.9282,2.9972,3.112,3.3183,3.3486,3.3604,3.3634,3.4233,3.4921,3.5609,3.6738,3.7425,3.7455,3.8264,3.8141,3.6876,3.686,3.666,3.6163,3.5976,3.544,3.4564,3.5057,3.4831,3.3972,3.4525,3.4776,3.4751,3.4776,3.4751,3.4881,3.7138,3.7979,3.7978,3.7594,3.6869,3.5999,3.5523,3.4278,3.2698,3.1787,3.1838,3.2215,3.1662,3.1863,3.229,3.229,3.2692,3.3244,3.3771,3.3922,3.4048,3.46,3.4751,3.4751,3.4801,3.5203,3.5604,3.5604,3.6031,3.6408,3.6383,3.5102,3.3997,3.3947,3.3495,3.352,3.4575,3.4274,0.0,3.5378,3.5052,3.4726,3.4751,3.4274,3.3721,3.3169,3.3119,3.3256,3.3449,3.4589,3.5882,3.7396,3.8691,3.9709,4.0397,4.0637,4.1194,4.2013,0.0,0.0,0.0,0.0,0.0,0.0,0.0,0.0,0.0,0.0,0.0,0.0,0.0,0.0,0.0,0.0,0.0,0.0,0.0,0.0,0.0,0.0,2.8919,2.9297,3.0247,3.1738,3.391,3.428,3.5069,3.6888,3.6887,3.7418,3.8919,3.859,3.8492,3.8957,3.8427,3.7975,3.7641,3.762,3.7566,3.7401,3.6569,3.6088,3.5831,3.5172,3.4945,3.5102,3.5655,3.5705,3.5328,3.573,3.5978,3.6131,3.7476,3.8062,3.8145,3.8781,3.8832,3.8367,3.6688,3.5234,3.4121,3.3884,3.3897,3.3997,3.3847,3.3897,3.4022,3.4022,3.4148,3.4299,3.4449,3.45,3.4625,3.5177,3.5328,3.5529,3.6307,3.6634,3.6734,3.6734,3.7161,3.7437,3.7036,3.691,3.6508,3.5303,3.4977,3.4826,3.4726,3.46,0.0,3.4901,3.4826,3.4876,3.5278,3.5177,3.4876,3.4324,3.3897,3.4004,3.4712,3.472,3.5674,3.8023,3.8482,3.923,4.0367,4.1628,4.2385,0.0,0.0,0.0,0.0,0.0,0.0,0.0,0.0,0.0,0.0,0.0,0.0,0.0,0.0,0.0,0.0,0.0,0.0,0.0,0.0,0.0,0.0,2.997,3.1052,3.1414,3.2118,3.3336,3.5494,3.5846,3.6794,3.9038,3.8399,3.8453,3.9971,3.924,3.8771,3.8883,3.8279,3.7844,3.7601,3.7563,3.7652,3.7652,3.7196,3.7051,3.6959,3.6362,3.6257,3.6584,3.691,3.6885,3.6584,3.691,3.7006,3.6871,3.7891,3.8255,0.0,0.0,0.0,0.0,0.0,3.5519,3.5353,3.4876,3.4876,3.5027,3.4801,3.4876,3.5077,3.5077,3.5228,3.5403,3.5403,3.5403,3.5479,3.5805,3.5881,3.6107,3.6985,3.7186,3.7236,3.7487,3.7789,3.7914,3.7588,3.799,0.0,3.6784,3.6383,3.6132,3.5805,3.5554,3.5504,3.573,3.5554,3.5529,3.5855,3.568,3.5403,3.5102,3.455,0.0,0.0,0.0,3.6382,3.9128,3.923,0.0,0.0,0.0,4.3358,4.3485,0.0,0.0,0.0,4.5297,4.5263,0.0,0.0,0.0,0.0,0.0,0.0,0.0,0.0,0.0,0.0,0.0,0.0,0.0,0.0,0.0,0.0,3.1787,3.3666,3.4565,3.4827,3.5472,3.7198,3.7564,3.838,4.0068,3.888,3.8505,3.9515,3.9145,3.8663,3.8057,0.0,0.0,0.0,0.0,3.7287,3.7287,3.7764,3.8015,3.8015,3.8015,3.804,3.809,3.809,3.809,3.809,3.809,3.7887,3.7551,3.8616,3.8675,3.8368,3.9229,3.8282,3.627,3.5339,3.5604,3.6307,3.5253,0.0,0.0,3.5077,3.5228,3.5629,3.5629,3.5981,3.6383,3.6433,3.6408,3.6383,3.6508,3.6508,3.6609,3.7236,3.7387,3.7513,3.799,3.814,3.8165,3.8115,3.8567,3.8768,3.8191,3.7688,3.7362,3.7287,3.686,3.6734,3.7211,3.6835,3.6558,3.6634,0.0,0.0,3.573,3.5319,3.5435,3.6276,3.654,3.7813,4.0412,4.0516,4.1085,4.2419,4.3568,4.4221,4.4221,4.6034,4.6887,4.6786,4.6786,4.6786,0.0,0.0,0.0,0.0,0.0,0.0,0.0,0.0,0.0,0.0,0.0,0.0,0.0,0.0,0.0,3.2143,3.3514,3.4688,3.5908,3.6641,3.7213,3.756,3.7755,3.8199,3.9116,3.8912,3.8989,3.9754,3.9284,3.8857,3.8751,3.7877,3.7546,3.7779,3.7837,3.7839,3.7839,3.7965,3.8015,3.8015,0.0,0.0,3.8718,3.8718,3.8718,3.8718,3.8718,3.8936,3.9337,3.9528,3.9544,3.9453,3.92,3.8201,3.6969,3.6804,3.6835,3.6935,3.6282,3.6107,3.6182,3.6081,3.6107,3.6207,3.6207,3.6282,0.0,3.6885,3.6709,3.6558,3.7462,3.7362,3.7287,3.8316,3.8542,3.8567,3.8668,3.9044,3.9245,3.8793,3.9145,3.9346,3.8793,3.8617,3.8391,3.7914,3.7764,3.7739,3.7839,3.7739,3.7864,3.8341,3.7864,3.7362,3.691,3.7243,3.7528,3.7648,3.9341,4.0647,4.1175,4.1205,4.1564,4.2342,4.4109,4.4925,4.4888,4.6799,4.7394,4.6786,4.6786,4.6786,0.0,0.0,0.0,0.0,0.0,0.0,0.0,0.0,0.0,0.0,0.0,2.8488,0.0,0.0,3.194,3.3607,3.5052,3.6186,3.7005,3.8011,3.8572,3.8256,3.7758,3.7984,3.9274,3.8568,3.8408,3.9285,3.883,3.8409,3.8409,3.7855,3.7864,3.8417,3.8442,3.8567,3.8843,3.912,3.927,3.927,3.927,3.9421,3.9697,3.9396,3.927,3.927,3.927,3.9347,3.938,3.9071,3.8943,3.8943,3.8943,3.8401,3.7588,3.7588,3.7588,3.7563,3.7287,3.7186,3.7186,3.7186,3.7186,3.7186,3.7186,3.7186,3.7236,3.7513,3.7387,3.7312,3.7864,3.7789,3.7814,3.8668,3.8868,3.8944,3.922,3.9496,3.9622,3.9346,3.9496,3.9597,3.932,3.927,3.8994,3.814,3.8015,3.8015,3.8015,3.8015,3.8115,3.8417,3.8191,3.7889,3.7613,3.8425,3.9038,3.9363,4.0627,4.1534,4.1863,4.1564,4.1833,4.2821,4.4423,4.5378,4.5661,4.7564,4.8274,4.7902,4.7902,4.7699,0.0,0.0,0.0,0.0,0.0,0.0,0.0,0.0,2.7637,2.8366,2.9387,3.0435,3.1351,3.2702,3.3933,3.4741,3.6373,3.7487,3.7699,3.8524,3.8965,3.8456,3.7714,3.7811,3.923,3.8194,3.7698,3.8694,3.8401,3.8165,3.8165,3.8165,3.8442,3.9019,3.9145,3.9396,3.9848,4.04,4.0676,4.0676,4.0676,4.0676,4.0651,4.0099,3.9848,3.9848,3.9747,3.9446,3.8994,3.8517,3.8341,3.8391,3.8843,3.8743,3.8316,3.8216,3.8165,3.8165,3.804,3.8015,3.8015,3.8015,3.8015,3.8015,3.8015,3.8015,3.804,3.814,3.809,3.8065,3.8266,3.8241,3.8316,3.8894,3.9019,3.917,3.9747,3.9848,3.9898,3.9998,4.0023,3.9973,3.9873,3.9848,3.9496,3.8492,3.8341,3.8341,3.8341,3.8341,3.8341,3.8341,3.8241,3.8313,3.8651,3.9779,4.0745,4.1395,4.1804,4.2132,4.2521,4.2043,4.2252,4.3299,4.4705,4.5667,4.6173,4.8096,4.9018,4.9018,4.9018,4.868,2.2506,2.2701,2.3575,2.5478,2.5883,2.6189,0.0,0.0,2.9351,2.9233,3.0227,3.1382,3.2193,3.3486,3.4771,3.6058,3.708,3.767,3.7738,3.751,3.7369,3.7316,3.7695,3.79,3.7489,3.7783,3.7914,3.8086,3.8541,3.8768,3.8768,3.8768,3.9019,3.9597,4.0074,4.035,4.0425,4.0978,4.1254,4.1254,4.1254,4.1254,4.1229,4.0676,4.0425,4.04,3.9898,3.9672,3.9597,3.9546,3.9496,3.9521,3.9572,3.9572,3.9446,3.8944,3.8768,3.8693,3.8191,3.8015,3.8015,3.8015,3.8015,3.8015,3.8015,3.8015,3.8115,3.8617,3.8391,3.8241,3.9245,3.9145,3.8919,3.9471,3.9597,3.9747,4.03,4.0425,4.0576,4.1053,4.1153,4.1003,4.0501,4.0425,4.0224,3.9597,3.9496,3.9496,3.9496,3.9496,3.9496,3.9496,3.9069,3.9509,4.1094,4.2467,4.3398,4.3864,4.3937,4.3748,4.324,4.315,4.318,4.3329,4.5102,4.6109,4.6173,4.8096,4.9018,4.9018,4.9018,4.8951,2.338,2.4239,2.5507,0.0,2.7401,2.8081,2.9641,3.0016,3.0167,3.0734,3.1306,3.2075,3.3147,3.4142,3.5049,0.0,3.6982,3.7536,3.6962,3.701,3.6907,3.6237,3.6724,3.71,3.7232,3.7688,3.814,3.8492,3.9019,3.9346,3.9346,3.9346,3.9597,4.0149,4.04,4.0676,4.1003,4.153,4.1806,4.1806,4.1806,4.1806,4.1781,4.1254,4.0827,4.0501,4.0275,3.9998,3.9722,4.0049,3.9973,3.9697,3.9697,3.9697,3.9672,3.9446,3.9346,3.932,3.9069,3.8994,3.8994,3.8994,3.8994,3.8994,3.8994,3.8994,3.9044,3.927,3.917,3.9094,3.9572,3.9521,3.9396,3.9647,3.9948,4.0249,4.0475,4.0777,4.1053,4.1304,4.1329,4.1254,4.1028,4.1003,4.0927,4.0676,4.0375,4.0174,4.0174,4.045,4.0942,4.1725,4.1702,4.2316,4.4309,4.4199,4.4501,4.54,4.5095,4.4586,4.3928,4.3898,4.3927,4.4159,4.5488,4.6454,4.7036,4.8788,4.9627,4.9661,5.0101,5.0304,2.4523,2.5575,0.0,2.7869,2.8584,2.9367,3.0752,3.0928,3.0971,3.1678,3.204,3.2521,3.3431,3.4184,3.4811,3.5394,3.6372,3.6872,3.6194,3.6462,3.6341,3.542,3.568,3.6257,3.7111,3.7688,3.8316,3.9044,3.9622,3.9923,3.9923,4.0074,4.0325,4.0727,4.0902,4.1153,4.1555,4.2258,4.2534,4.2384,4.2534,4.2534,4.2359,4.1806,4.1254,4.0752,4.0752,4.0526,4.0174,4.0576,4.0425,3.9923,3.9923,3.9923,3.9923,3.9923,3.9823,3.9697,3.9697,3.9697,3.9697,3.9697,3.9697,3.9697,3.9697,3.9697,3.9697,3.9697,3.9798,3.9923,3.9923,4.0023,4.0149,4.0149,4.045,4.0777,4.0927,4.1404,4.1831,4.1982,4.2133,4.2158,4.1856,4.1781,4.1731,4.158,4.1524,4.1511,4.1358,4.198,4.2814,4.3921,4.4331,4.5148,4.6569,4.5982,4.5757,4.6506,4.5963,4.5274,4.4616,4.4586,4.467,4.4941,4.6129,4.7103,4.7828,4.9555,5.0405,5.0405,5.0947,5.1217,0.0,0.0,2.649,2.8558,2.9154,2.951,3.0651,3.1506,3.194,3.1653,3.2124,3.2636,3.2664,3.3162,3.3845,3.438,3.5063,3.5606,3.5548,3.5519,3.5353,3.4801,3.4776,3.5403,0.0,3.7688,3.8467,3.9597,4.0174,4.0501,4.0501,4.1003,4.1304,4.1304,4.1831,4.2108,4.2133,4.3212,4.3489,4.2961,4.3489,4.3463,4.2936,4.2384,4.1831,4.1304,4.1304,4.1304,4.1279,4.1304,4.0978,4.0501,4.0501,4.0501,4.0501,4.0501,4.0149,3.9697,3.9697,3.9697,3.9697,3.9697,3.9697,3.9697,3.9697,3.9697,3.9697,3.9697,4.0074,4.0501,4.0501,4.0877,4.1279,4.1279,4.1304,4.1455,4.1982,4.2534,4.3087,4.3614,4.4166,4.4192,4.3112,4.2936,4.2735,4.2208,4.3222,4.394,4.3359,4.4501,4.5398,4.5398,4.6537,4.7326,4.7355,4.7847,4.7938,4.7309,4.6651,4.5992,4.5304,4.5274,4.5244,4.5297,4.7244,4.8221,4.8295,5.0225,5.1183,5.1183,5.1217,5.1217,0.0,0.0,2.9152,3.0596,3.1013,3.1217,3.1936,3.1914,3.1598,3.0939,3.0985,3.1012,3.0583,3.1379,3.2347,3.3188,3.4523,3.5469,3.5481,3.5881,3.5755,3.4826,3.5378,0.0,0.0,0.0,0.0,3.9597,4.0199,4.0526,4.0526,4.1053,4.1505,4.1856,4.2057,4.2509,4.3237,4.3263,4.3338,4.3514,4.3338,4.3162,4.2961,4.2409,4.2057,4.1882,4.1882,4.1681,4.1354,4.1731,4.1555,4.1053,4.1053,4.1053,4.1053,4.1053,4.0953,4.0777,4.0777,4.0777,4.0777,4.0777,4.0777,4.0777,4.0777,4.0777,4.0777,4.0777,4.0927,4.1053,4.1053,4.148,4.1882,4.1882,4.2434,4.3011,4.3212,4.3689,4.4116,4.4317,4.4493,4.4518,4.4141,4.495,4.5826,4.6706,4.5342,4.4783,4.6288,4.6643,4.727,4.8524,4.9018,4.9208,4.9208,4.9399,4.9314,4.8656,4.7997,4.7339,4.6651,4.6202,4.6056,4.6192,4.6843,4.7913,4.9257,5.038,5.1262,5.1961,5.2503,5.2739,0.0,2.8805,3.033,3.1188,3.1681,3.1868,3.2162,3.1818,3.1057,2.9849,2.971,2.9684,2.9087,2.9496,3.0355,3.1759,3.2849,3.374,3.4539,3.5127,3.5378,3.5052,3.5629,3.6157,0.0,0.0,0.0,3.9295,4.0275,4.0802,4.0802,4.153,4.2082,4.2434,4.2635,4.3087,4.379,4.384,4.394,4.4091,4.3338,4.2986,4.2961,4.261,4.2459,4.2459,4.2459,4.2258,4.1957,4.2308,4.2133,4.163,4.163,4.163,4.163,4.163,4.1756,4.1856,4.148,4.1329,4.1329,4.1329,4.1329,4.1329,4.1329,4.1329,4.1379,4.158,4.1781,4.1957,4.2158,4.2635,4.3037,4.3037,4.3589,4.4091,4.4091,4.4694,4.5338,4.5988,4.6141,4.6425,4.6794,4.7277,4.8192,4.9581,4.8027,4.7163,4.8677,4.9248,4.9823,5.0847,5.1143,5.1289,5.1289,5.1079,5.0661,5.0002,4.9344,4.8686,4.8027,4.7369,4.7141,4.7293,4.7423,4.8261,4.9935,5.0785,5.1722,5.2739,5.3281,5.3518,2.7669,2.8928,3.0045,3.0477,3.1117,3.1455,3.1156,3.104,3.0477,2.8492,2.8448,2.8649,0.0,0.0,2.8047,3.0256,3.0256,3.0708,3.2893,3.3696,3.4449,0.0,0.0,0.0,0.0,0.0,0.0,3.8868,0.0,4.1354,4.1379,4.2434,4.3011,4.2986,4.3539,4.384,4.384,4.4945,4.5196,4.4618,4.3539,4.3011,4.3011,4.2986,4.2986,4.2986,4.2986,4.2986,4.2986,4.2986,4.266,4.2208,4.2208,4.2208,4.2208,4.2208,4.2534,4.2836,4.1806,4.1455,4.143,4.143,4.1455,4.1455,4.1455,4.148,4.1605,4.2133,4.266,4.3187,4.3714,4.4267,4.4694,4.4669,4.4744,4.4794,4.4744,4.5623,4.6951,4.8521,4.915,4.9801,5.0934,5.0101,4.9883,5.1235,5.1439,5.1208,5.0543,5.2073,5.2965,5.2366,5.2845,5.3204,5.3174,5.2636,5.2007,5.1319,5.0661,5.0002,4.9344,4.8686,4.8327,4.8327,4.8638,4.939,5.0461,5.1475,5.2483,5.3551,5.3619,5.3619,2.8248,2.9519,3.0543,3.0976,3.1216,3.095,2.9753,2.9173,2.8591,2.7717,2.7268,2.7042,0.0,0.0,0.0,3.0331,3.1537,0.0,3.4675,3.5755,0.0,3.6182,0.0,3.7387,3.7387,3.8517,0.0,0.0,4.0651,4.153,4.1932,4.2986,4.3413,4.2986,4.3915,4.4418,4.4418,4.5121,4.5196,4.4618,4.3915,4.3589,4.3589,4.3162,4.2986,4.2986,4.2986,4.2986,4.2986,4.2986,4.2886,4.276,4.276,4.276,4.276,4.276,4.2861,4.2986,4.3137,4.2911,4.2559,4.2559,4.2836,4.3162,4.3162,4.3463,4.3815,4.394,4.4091,4.4242,4.4367,4.5146,4.5773,4.5372,4.62,4.6954,4.6577,4.7949,4.9348,4.9825,5.0963,5.2259,5.3607,5.3652,5.3884,5.5322,5.553,5.4967,5.3366,5.3188,5.3324,5.3653,5.3832,5.3743,5.3234,5.3503,5.3204,5.2037,5.1319,5.0661,5.0002,4.9374,4.9015,4.9015,4.9072,4.9805,5.1119,5.1913,5.3016,5.4329,5.4905,5.5141,2.8655,2.9658,3.0458,3.0537,3.0545,3.0188,2.8899,2.8323,2.7745,2.6465,2.6138,0.0,2.6088,2.659,0.0,0.0,0.0,0.0,3.4525,3.5755,3.6609,0.0,3.7864,0.0,3.8617,3.9496,4.0249,0.0,4.1354,4.1831,4.2133,4.3212,4.3664,4.3338,4.4418,4.5121,4.5347,4.5447,4.5321,4.4995,4.4443,4.4166,4.4141,4.384,4.3564,4.3338,0.0,4.3212,4.2986,4.3237,4.3187,4.3037,4.3514,4.3413,4.3011,4.3237,4.3338,4.3388,4.3689,4.3765,4.3689,4.3689,4.3915,4.4166,4.4166,4.4367,4.4669,4.4945,4.4995,4.5121,4.5598,4.62,4.6652,4.6577,4.7815,4.8891,4.8583,5.0221,5.19,5.263,5.4008,5.5291,5.5791,5.5869,5.619,5.6989,5.7094,5.6705,5.5628,5.5149,5.482,5.467,5.491,5.479,5.4102,5.4431,5.4192,5.3144,5.2725,5.2217,5.1558,5.0631,5.0122,5.0122,5.0033,5.0584,5.1901,5.276,5.3865,5.5108,5.5513,5.5716,2.8926,2.9647,3.0073,2.9884,2.9729,2.9377,2.8394,2.8015,2.7404,2.547,0.0,2.5739,2.5892,2.5978,2.6829,2.9479,0.0,3.1035,3.3646,3.5027,3.6332,3.7839,3.8592,3.9371,4.0425,4.0576,4.1078,4.2183,4.2258,4.2308,4.2359,4.3338,4.394,4.4016,4.497,4.5748,4.6301,4.5824,4.5598,4.5598,4.502,4.4744,4.4744,4.4669,4.4367,4.3915,4.3915,4.3639,4.3237,4.3714,4.3639,4.3288,4.4242,4.4041,4.3263,4.374,4.3915,4.3915,4.3991,4.4342,4.4719,4.4644,4.4669,4.4744,4.4744,4.4844,4.507,4.5573,4.5748,4.6024,4.6979,4.7305,4.7431,4.7832,4.9193,5.0458,5.0379,5.2208,5.4425,5.6044,5.7458,5.8231,5.7723,5.7633,5.7633,5.7633,5.7543,5.7483,5.7483,5.7274,5.6675,5.5568,5.5957,5.6077,5.5478,5.5448,5.5119,5.4371,5.4341,5.3982,5.3204,5.2097,5.1439,5.1349,5.1356,5.1821,5.2637,5.3934,5.4981,5.5852,5.5953,5.6055,2.8918,2.9429,2.9884,2.9831,2.9428,2.8924,2.8472,2.7598,0.0,0.0,2.6343,2.637,2.7434,2.7762,2.8534,3.0433,3.1337,3.2441,3.4324,3.5906,3.7186,0.0,3.8919,3.9798,4.045,4.0927,0.0,0.0,4.2836,4.3037,4.3489,4.4141,4.4694,4.5171,4.5397,4.5748,4.6301,4.6225,4.6175,4.615,4.5598,4.5347,4.5321,4.4844,4.4568,4.4493,4.4493,0.0,4.4342,4.4443,4.4418,4.4367,4.4543,4.4518,4.4342,4.4443,4.4493,4.4543,4.502,4.5271,4.5271,4.4769,4.4945,4.5347,4.5347,4.5974,4.6728,4.6828,4.7154,4.7531,4.7732,4.8134,4.8385,4.8008,4.9786,5.154,5.1186,5.3779,5.682,5.8918,5.9618,5.9877,6.0326,6.0416,6.0416,6.0416,5.9937,5.9578,5.9578,5.8112,5.7004,5.6795,5.6855,5.6885,5.6765,5.6765,5.6256,5.5089,5.5029,5.4461,5.3234,5.2965,5.2576,5.2037,5.3561,5.4016,5.3291,5.5698,5.6744,5.663,5.7239,5.7848,2.9227,2.9578,2.9804,2.9804,2.9428,2.8898,2.815,0.0,0.0,0.0,2.5962,2.6155,2.734,2.7931,0.0,3.0329,3.1163,3.2179,3.406,3.5479,3.6759,3.7864,3.9245,4.035,0.0,4.1455,4.2233,4.3313,4.3664,4.394,4.4217,4.4769,4.5321,4.5899,4.5924,4.605,4.6301,4.6301,4.6301,4.6301,4.605,4.5924,4.5899,4.5623,4.5347,4.507,4.507,0.0,4.4644,4.4945,4.4895,4.4694,4.5271,4.5146,4.4669,4.497,4.507,4.5121,4.5397,4.5673,4.5874,4.5598,4.5698,4.5974,4.625,4.6702,4.7205,4.7456,4.7707,4.7983,4.8284,4.856,4.909,5.0227,5.309,5.5695,5.627,5.7743,5.9286,6.0424,6.0625,6.0715,6.1044,6.1104,6.1104,6.1104,6.0835,6.0625,6.0625,5.9787,5.88,5.7752,5.7633,5.7483,5.7124,5.7094,5.6825,5.6226,5.6166,5.5748,5.479,5.4401,5.3922,5.3264,5.4977,5.57,5.5197,5.7635,5.8715,5.8524,5.8863,5.9235,2.9503,2.9804,2.9856,3.0062,2.9542,2.8864,2.8278,2.7584,0.0,0.0,2.5877,2.6272,2.7511,2.8005,2.8702,0.0,3.0797,3.1682,3.3582,3.4851,3.6157,0.0,3.9396,0.0,4.1279,4.1731,0.0,4.3714,4.4418,4.4794,4.4794,4.5347,4.5799,4.6125,4.625,4.6301,4.6301,4.6301,4.6301,4.6301,4.6301,4.6301,4.6301,4.6301,4.6075,4.5673,4.5673,0.0,0.0,4.5472,4.5397,4.507,4.5974,4.5773,4.5045,4.5497,4.5673,4.5673,4.5673,4.5949,4.6326,4.6451,4.6476,4.6577,4.7004,4.7305,4.7581,4.7983,4.8259,4.8535,4.9012,4.9444,5.0587,5.3557,5.6549,5.9103,6.0737,6.1104,6.1164,6.1313,6.1313,6.1373,6.1493,6.1523,6.1523,6.1523,6.1403,6.1313,6.1313,6.1194,6.0505,5.8919,5.877,5.8471,5.7782,5.7723,5.7663,5.7543,5.7393,5.7034,5.6406,5.5867,5.5299,5.464,5.6432,5.7245,5.6925,5.9239,6.0283,6.0114,6.0114,6.0182,2.9628,2.9804,3.0011,3.082,2.9784,2.8704,2.9673,0.0,2.7302,2.7373,2.7408,2.7824,2.9163,2.9145,2.9515,0.0,0.0,3.1682,3.3582,3.4851,3.6157,3.7814,0.0,0.0,4.1229,4.1379,4.2082,4.3689,4.4794,4.5422,4.5422,4.5924,4.6024,4.5573,4.605,4.6301,4.6301,4.6301,4.6301,4.6301,4.6301,4.6301,4.6301,4.6301,4.6276,4.6225,4.6225,0.0,0.0,4.62,4.62,4.6175,4.6276,4.625,4.615,4.6225,4.6225,4.6225,4.6225,4.6276,4.6401,4.6903,4.7054,4.7079,4.7129,4.7832,4.8636,4.8686,4.9414,5.0193,5.0243,5.1717,5.41,5.7401,5.8433,5.9103,6.0737,6.1104,6.1283,6.1882,6.2002,6.2181,6.278,6.2899,6.2899,6.2899,6.2391,6.2002,6.2002,6.1493,6.1044,6.0864,6.0835,6.0565,5.9877,5.9817,5.9548,5.8949,5.8351,5.7723,5.7034,5.6944,5.6615,5.6017,5.831,5.885,5.766,6.0037,6.0825,6.0114,6.0114,6.0486,2.895,2.9528,3.0011,3.097,2.9891,2.8855,2.987,0.0,2.7499,2.7569,2.761,2.803,2.9325,2.95,2.9754,3.077,3.0569,3.0785,3.2237,3.3043,3.4399,3.6734,3.8592,0.0,0.0,0.0,4.4106,4.5477,4.5791,4.5974,4.5974,4.6175,4.62,4.5999,4.62,4.6301,4.6301,4.6301,4.6301,4.6301,4.6301,4.6301,4.6301,4.6301,4.6502,4.6803,4.6803,0.0,0.0,4.6803,4.6602,4.6301,4.6301,4.6301,4.6301,4.6301,4.6527,4.6753,4.6426,4.6728,4.7255,4.7154,4.7581,4.8109,4.8109,4.8435,4.8912,4.9565,5.0067,5.0731,5.2052,5.4898,5.7716,5.8946,6.0355,6.1522,6.2157,6.2301,6.2361,6.263,6.269,6.278,6.3019,6.3079,6.3079,6.3079,6.2839,6.269,6.269,6.245,6.2151,6.1762,6.1343,6.1014,6.0715,6.0715,6.0595,6.0326,6.0057,5.9608,5.8919,5.8501,5.8384,5.8481,5.9854,6.0554,6.0717,6.2029,6.2685,6.2787,6.2347,6.255,2.8333,2.94,3.0263,3.1441,3.0458,2.9324,0.0,0.0,2.761,2.761,2.761,2.797,2.9086,2.9445,2.975,3.0228,3.0196,3.0331,3.1251,3.1863,3.3119,3.5579,0.0,3.9094,0.0,4.2951,4.4843,4.5805,4.5654,4.5723,4.605,4.5899,4.5974,4.6301,4.6301,4.6301,4.6301,4.6301,4.6301,4.6301,4.6301,4.6301,4.6301,4.6301,4.6602,4.7129,4.6954,0.0,0.0,4.6954,4.6652,4.6301,4.6301,4.6301,4.6326,4.6502,4.6702,4.6878,4.6803,4.7179,4.7682,4.7631,4.8134,4.8837,4.9163,4.9264,4.9414,5.0193,5.1013,5.2258,5.5041,5.7874,6.0114,6.0617,6.1966,6.3079,6.3079,6.3079,6.3079,6.3079,6.3079,6.3079,6.3079,6.3079,6.3079,6.3079,6.3079,6.3079,6.3079,6.3079,6.2899,6.245,6.1972,6.1613,6.1433,6.1403,6.1403,6.1403,6.1224,6.0894,6.0416,5.9937,5.9985,6.0648,6.1184,6.1962,6.3057,6.3567,6.4106,6.458,6.4072,6.4106,2.8024,2.9548,3.0851,3.2652,3.1553,3.0156,0.0,0.0,2.761,2.761,2.761,2.7799,2.8487,2.9146,2.9604,2.9675,3.0211,3.0815,3.1301,3.1863,3.2842,0.0,0.0,3.6684,3.9446,4.1681,4.3212,4.3765,4.3815,0.0,4.5447,4.4945,4.5146,4.6276,4.6301,4.6301,4.6301,4.6301,4.6301,4.6301,4.6301,4.6301,4.6301,4.6301,4.6602,4.7104,0.0,0.0,0.0,4.6552,4.6326,4.6301,4.6301,4.6301,4.6376,4.6928,4.6778,4.6476,4.7531,4.7556,4.733,4.841,4.8761,4.8987,5.0067,5.0393,5.0393,5.0419,5.2438,5.543,5.9428,6.0451,6.099,6.2672,6.3079,6.3079,6.3079,6.3079,6.3079,6.3079,6.3079,6.3079,6.3079,6.3079,6.3079,6.3079,6.3079,6.3079,6.3079,6.3079,6.3079,6.3079,6.3049,6.278,6.2151,6.2091,6.2091,6.2091,6.1463,6.1104,6.1104,6.1104,6.1377,6.1939,6.2509,6.3063,6.3814,6.4304,6.458,6.4613,6.458,6.458,2.6123,2.6977,2.7626,2.9294,2.854,2.7648,2.8337,2.8,2.7422,2.6999,2.7576,2.829,2.8561,2.8757,2.93,3.0444,3.0248,3.0268,0.0,0.0,0.0,3.4575,3.7563,4.0436,0.0,0.0,4.4041,4.52,4.4687,4.4518,4.4869,4.5095,4.5547,4.6276,4.5949,4.5924,4.6301,4.6301,4.6301,4.6301,4.6301,4.6301,4.6301,4.6301,4.6602,0.0,0.0,0.0,0.0,4.6954,4.6652,4.6301,4.6301,4.6552,4.6903,4.7079,4.7506,4.7983,4.7933,4.8309,4.8812,4.8786,4.9289,4.9891,4.9866,5.0972,5.2537,5.4574,5.6816,5.8974,6.018,6.1377,6.2438,6.2963,6.3079,6.3079,6.3079,6.3079,6.3079,6.3079,6.3079,6.3079,6.3079,6.3079,6.3079,6.3079,6.3079,6.3079,6.3079,6.3079,6.3079,6.3079,6.3079,6.2989,6.278,6.278,6.278,6.278,6.257,6.245,6.245,6.292,6.3685,6.4792,6.5449,6.5989,6.6604,6.6272,6.5831,6.5358,6.5865,6.6102,0.0,2.5933,2.6672,2.7937,2.7515,0.0,0.0,2.7302,2.7102,2.7242,2.7689,2.8213,2.8525,2.8763,2.9153,2.9756,2.997,0.0,0.0,0.0,0.0,3.5127,0.0,0.0,0.0,4.3441,4.3801,4.4779,4.4356,4.4091,4.4292,4.4468,4.4995,4.5974,4.5874,4.5874,4.5999,4.62,4.6301,4.6301,4.6301,4.6301,4.6301,4.6301,4.6602,0.0,0.0,0.0,0.0,4.6903,4.6627,4.6326,4.6552,4.6828,4.7179,4.7606,4.8058,4.846,4.851,4.8862,4.9264,4.9113,5.0307,5.1768,5.2022,5.266,5.4046,5.7466,5.9436,6.06,6.1258,6.2292,6.3079,6.3079,6.3079,6.3079,6.3079,6.3079,6.3079,6.3079,6.3079,6.3079,6.3079,6.3079,6.3079,6.3079,6.3079,6.3079,6.3079,6.3079,6.3079,6.3079,6.3079,6.3079,6.3079,6.3079,6.3079,6.3079,6.3079,6.3279,6.3789,6.4303,6.5261,6.6839,6.729,6.7787,6.8335,6.7895,6.7421,6.6981,6.7455,6.7692,0.0,0.0,0.0,0.0,0.0,0.0,0.0,0.0,0.0,2.791,2.7776,2.7705,2.8415,2.9082,2.9248,2.8363,2.9508,0.0,0.0,3.104,0.0,0.0,3.8492,0.0,4.0526,4.2032,4.2986,4.2986,4.2986,4.3212,4.3714,4.3288,4.374,4.5271,4.5874,4.5974,4.5547,4.605,4.6301,4.6301,4.6301,4.6301,4.6301,4.6301,4.6602,0.0,0.0,0.0,0.0,4.6527,4.6326,4.6426,4.6878,4.7154,4.7355,4.836,4.841,4.8184,4.9238,4.9264,4.8912,4.9593,5.1691,5.426,5.5936,5.5496,5.5141,5.9529,6.0721,6.099,6.2672,6.3079,6.3079,6.3079,6.3079,6.3079,6.3079,6.3079,6.3079,6.3079,6.3079,6.3079,6.3079,6.3079,6.3079,6.3079,6.3079,6.3079,6.3079,6.3109,6.3139,6.3079,6.3109,6.3139,6.3079,6.3079,6.3079,6.3079,6.3079,6.3706,6.5001,6.5219,6.6153,6.8134,6.8196,6.8552,6.918,6.9113,6.9113,6.9113,6.9113,6.9113,0.0,0.0,0.0,0.0,0.0,0.0,0.0,0.0,0.0,0.0,0.0,2.8473,2.9191,2.9042,2.9575,3.1779,0.0,3.0323,3.1541,0.0,0.0,3.8542,4.0124,4.1003,4.1128,4.2258,4.2986,4.2986,4.2986,4.3037,4.3162,4.3438,4.3589,4.3564,4.4518,4.5372,4.61,4.625,4.6301,4.6301,4.6301,4.6301,4.6301,4.6301,4.6376,0.0,0.0,0.0,4.6502,4.6351,4.6552,4.6903,4.6627,4.728,4.836,4.8184,4.856,4.9238,4.9515,4.9515,4.9721,5.1482,5.3308,5.5386,5.803,5.8774,5.9472,6.1821,6.2438,6.2555,6.2933,6.3079,6.3079,6.3079,6.3079,6.3079,6.3079,6.3079,6.3079,6.3079,6.3079,6.3079,6.3079,6.3079,6.3079,6.3079,6.3079,6.3079,6.3079,6.3498,6.3588,6.3139,6.3498,6.3588,6.3109,6.3079,6.3079,6.3079,6.3079,6.3706,6.5001,6.6154,6.7406,6.8858,6.9461,6.9794,6.9925,6.9383,6.9113,6.9113,6.9113,6.9113,0.0,0.0,0.0,0.0,0.0,0.0,0.0,0.0,0.0,0.0,0.0,2.8306,2.9367,2.9267,0.0,0.0,3.0684,0.0,0.0,0.0,3.5956,3.9295,4.045,4.1367,0.0,4.3162,4.3842,4.4807,4.3976,4.365,4.3907,4.3574,4.3413,4.3363,4.394,4.4669,4.5522,4.5799,4.6075,4.6301,4.6301,4.6301,4.6301,4.6301,4.6301,0.0,0.0,0.0,4.6301,4.6301,4.6652,4.7129,4.7079,4.7581,4.841,4.8611,4.8912,4.9264,4.9515,5.0078,5.0968,5.2952,5.4974,5.7118,5.866,6.0383,6.191,6.2817,6.3079,6.3079,6.3079,6.3079,6.3079,6.3079,6.3079,6.3079,6.3079,6.3079,6.3079,6.3079,6.3079,6.3079,6.3079,6.3079,6.3169,6.3468,6.3258,6.3288,6.3887,6.3737,6.3558,6.3498,6.3558,6.3438,6.3109,6.3079,6.3079,6.3079,6.3079,6.4015,6.5941,6.6783,6.8107,7.0136,7.0512,7.0703,7.0703,7.0297,7.0128,7.0128,7.0128,7.0128,0.0,0.0,0.0,0.0,0.0,0.0,0.0,0.0,0.0,0.0,0.0,0.0,0.0,2.9652,0.0,0.0,0.0,0.0,3.4009,3.4751,3.6207,3.922,4.0124,0.0,4.3598,4.394,4.4807,4.6826,4.5385,4.4547,4.5022,4.3907,4.3411,4.3664,4.3689,4.394,4.4493,4.5146,4.5773,4.6301,4.6301,4.6301,4.6301,4.6301,4.6301,4.6301,0.0,0.0,4.6301,4.6301,4.6652,4.7179,4.7531,4.7757,4.8033,4.8987,4.9088,4.8837,4.9645,5.1142,5.2944,5.4378,5.6844,5.9103,5.9219,6.1084,6.3079,6.3079,6.3079,6.3079,6.3079,6.3079,6.3079,6.3079,6.3079,6.3079,6.3079,6.3079,6.3079,6.3079,6.3079,6.3109,6.3199,6.3139,6.3318,6.4036,6.3617,6.3647,6.4874,6.4156,6.3677,6.4126,6.3767,6.3498,6.3378,6.3288,6.3228,6.3228,6.3339,6.4623,6.7368,6.7673,6.8927,7.1222,7.1312,7.1312,7.1312,7.1312,7.1312,7.1312,7.1312,7.1312,2.1934,2.2712,2.3867,2.4838,2.6194,0.0,0.0,0.0,0.0,0.0,0.0,0.0,0.0,3.019,3.0668,0.0,0.0,3.4366,0.0,0.0,3.7362,3.8818,0.0,4.0872,4.1939,4.2782,4.4193,4.6091,4.5962,4.5565,4.5022,4.4833,4.4261,4.3199,4.3112,4.3363,4.3915,4.497,4.5773,4.6301,4.6301,4.6301,4.6301,4.6301,4.6301,4.6301,0.0,4.6301,4.6301,4.6301,4.6652,4.7104,4.6702,4.7104,4.7933,4.8109,4.841,4.909,5.0935,5.3522,5.6107,5.6995,5.8752,6.0856,6.1392,6.2336,6.3079,6.3079,6.3079,6.3079,6.3079,6.3079,6.3079,6.3079,6.3079,6.3079,6.3079,6.3079,6.3079,6.3079,6.3079,6.3228,6.3767,6.3438,6.3498,6.4695,6.4306,6.4126,6.4934,6.5323,6.5383,6.4934,6.5293,6.5323,6.4784,6.4186,6.3857,6.3857,6.4514,6.6048,6.8797,7.0043,7.0882,7.1312,7.1312,7.1312,7.1312,7.1312,7.1312,7.1312,7.1312,7.1312,2.24,2.3356,2.4214,2.4672,0.0,2.6069,2.6419,0.0,0.0,0.0,0.0,0.0,0.0,0.0,3.1613,3.3422,0.0,3.5035,3.6225,3.6835,3.7613,0.0,0.0,4.1638,4.303,4.4206,4.5664,4.7664,4.7116,4.6389,4.5673,4.5183,4.4427,4.3098,4.2986,4.3237,4.379,4.4317,4.502,4.5874,4.5874,4.6024,4.6301,4.6301,4.6301,4.6301,0.0,4.6301,4.6301,4.6301,4.6652,4.7104,4.6853,4.723,4.7933,4.8259,4.9316,5.0805,5.262,5.4831,5.6936,5.8537,5.9948,6.1253,6.1912,6.254,6.3079,6.3079,6.3079,6.3079,6.3079,6.3079,6.3079,6.3079,6.3079,6.3079,6.3079,6.3348,6.3588,6.3588,6.3887,6.4216,6.4515,6.4306,6.4455,6.5413,6.4994,6.4934,6.5951,6.5742,6.5503,6.5562,6.5503,6.5353,6.5054,6.4755,6.4718,6.5185,6.5887,6.7324,6.9647,7.0775,7.1312,7.1312,7.1312,7.1312,7.1312,7.1312,7.1312,7.1312,7.1312,7.1312,2.3018,2.3902,2.4399,0.0,0.0,2.5061,2.5893,0.0,0.0,0.0,0.0,0.0,0.0,3.1754,0.0,3.3401,3.4539,3.568,3.6784,3.7437,3.809,3.8969,4.056,4.2342,4.4042,4.5336,4.6858,4.8895,4.8194,4.7262,4.6183,4.5759,4.4725,4.3073,4.2986,4.3187,4.3614,4.3614,4.4242,4.5497,4.5347,4.5648,4.6301,4.6175,4.6175,4.6301,4.6301,4.6301,4.6301,4.6301,4.6552,4.6954,4.6954,4.733,4.7983,4.9038,5.0773,5.2822,5.4386,5.5907,5.7557,5.9696,6.0685,6.1253,6.2091,6.266,6.3079,6.3079,6.3079,6.3079,6.3079,6.3079,6.3079,6.3079,6.3079,6.3109,6.3258,6.3647,6.4036,6.4216,6.4665,6.5084,6.5233,6.5114,6.5293,6.6131,6.5682,6.5682,6.6849,6.6101,6.5742,6.64,6.5892,6.5532,6.5709,6.5796,6.6308,6.7589,6.806,6.8956,7.0659,7.1329,7.1582,7.1582,7.1413,7.1413,7.1582,7.1413,7.1312,7.1312,7.1312,7.1312,2.345,2.3902,2.4184,2.3069,2.4502,0.0,2.7785,2.8634,0.0,3.0866,0.0,0.0,0.0,3.1952,3.2906,3.3756,3.5697,3.7412,3.8542,0.0,3.9546,3.9622,4.0818,4.2084,4.3464,4.4712,4.6308,4.8208,4.8805,4.8267,4.6183,4.6661,4.5767,4.3073,4.2986,4.2986,4.3037,4.3037,4.3865,4.5472,4.4945,4.5246,4.6301,4.5773,4.5824,4.6301,4.6301,4.6301,4.6301,4.6301,4.6326,4.6376,4.6376,4.7004,4.8207,5.0201,5.2433,5.4386,5.6022,5.7552,5.92,6.0625,6.1074,6.1343,6.263,6.3049,6.3079,6.3079,6.3079,6.3079,6.3079,6.3079,6.3079,6.3079,6.3079,6.3228,6.3797,6.3977,6.4186,6.4844,6.4994,6.5233,6.5832,6.5443,6.5473,6.6729,6.637,6.6191,6.6909,6.6909,6.7089,6.7747,6.7238,6.7155,6.795,6.8002,6.9146,7.2011,7.1555,7.1519,7.2211,7.2269,7.2326,7.2326,7.165,7.165,7.2326,7.165,7.1312,7.1312,7.1312,7.1312,2.4627,2.4689,2.441,2.4388,2.5461,0.0,0.0,2.8406,2.9959,3.1697,3.3486,0.0,0.0,0.0,3.4205,3.4388,3.5981,3.7588,3.8718,3.9346,3.9981,4.0743,4.1985,4.3313,4.4535,4.5869,4.6933,4.7638,4.8297,4.757,4.5078,4.5917,4.523,4.2569,4.2811,4.2986,4.2986,4.2986,4.3463,4.4443,4.4568,4.5045,4.5799,4.5949,4.6125,4.6301,4.6301,4.6301,4.6301,4.6301,4.6301,4.6376,4.7029,4.7782,4.8737,5.0845,5.2877,5.4623,5.6137,5.7804,5.9338,6.0685,6.1104,6.1373,6.266,6.3079,6.3079,6.3079,6.3079,6.3079,6.3079,6.3079,6.3079,6.3079,6.3079,6.3258,6.3857,6.4336,6.4844,6.5503,6.5981,6.6311,6.658,6.64,6.643,6.6909,6.7119,6.7178,6.6999,6.7717,6.8166,6.7986,6.8136,6.8818,7.0013,7.0589,7.1644,7.3727,7.2414,7.2147,7.3688,7.2902,7.2631,7.3071,7.1921,7.1684,7.2394,7.1684,7.1312,7.1312,7.1312,7.1312,2.4984,2.49,2.4396,0.0,0.0,0.0,2.7619,2.9205,3.1061,3.3036,3.4203,0.0,0.0,0.0,0.0,0.0,3.6132,3.7789,3.8743,3.9346,4.016,4.1419,4.2738,4.3975,4.5298,4.655,4.7309,4.7309,4.7908,4.7102,4.4387,4.5255,4.4613,4.199,4.2434,4.271,4.271,4.2886,4.3162,4.3539,4.4267,4.492,4.5497,4.5874,4.615,4.6301,4.6301,4.6301,4.6301,4.6301,4.6301,4.6426,4.7481,4.8508,4.9537,5.1944,5.379,5.5327,5.6962,5.8166,5.9338,6.0685,6.1104,6.1373,6.266,6.3079,6.3079,6.3079,6.3079,6.3079,6.3079,6.3079,6.3079,6.3079,6.3079,6.3318,6.4156,6.4695,6.5293,6.6161,6.6849,6.7238,6.7029,6.7178,6.7298,6.7298,6.7687,6.7897,6.7657,6.8435,6.8824,6.8345,6.8914,7.0001,7.1808,7.2489,7.3468,7.5234,7.404,7.3633,7.4499,7.3646,7.3341,7.3849,7.2631,7.236,7.3105,7.236,7.1988,7.1988,7.1988,7.1988,2.4291,2.4159,0.0,0.0,0.0,0.0,2.9924,3.1569,3.3095,3.513,0.0,3.3285,3.219,0.0,0.0,3.3796,3.6207,3.8191,3.8793,3.9346,4.016,4.1492,4.2738,4.3975,4.5298,4.655,4.7309,4.7309,4.7908,4.7102,4.4387,4.4967,4.4098,4.1329,4.1856,4.2158,4.2158,4.271,4.2961,4.2986,4.4091,4.492,4.5472,4.5497,4.5799,4.6301,4.6301,4.6301,4.6301,4.6326,4.6326,4.6426,4.7506,4.8871,5.0645,5.3353,5.5327,5.6962,5.8525,5.9099,5.9338,6.0685,6.1104,6.1373,6.266,6.3079,6.3079,6.3079,6.3079,6.3079,6.3079,6.3079,6.3079,6.3079,6.3079,6.3438,6.4755,6.5024,6.5413,6.6729,6.7508,6.7777,6.7119,6.7537,6.7986,6.7986,6.7986,6.8226,6.8944,6.9004,6.9004,6.9004,6.9602,7.0984,7.3338,7.35,7.4528,7.6766,7.6893,7.6217,7.4695,7.4627,7.4627,7.4627,7.3883,7.3849,7.4627,7.3849,7.3477,7.3477,7.3477,7.3477,2.5458,2.5195,0.0,2.6024,0.0,0.0,0.0,3.2587,0.0,0.0,3.6283,3.5046,3.4492,0.0,0.0,3.3884,3.5554,3.7186,3.814,3.8743,4.0104,4.2587,4.3313,4.4349,4.655,4.7106,4.7309,4.7309,4.7489,4.6459,4.3875,4.4235,4.3406,4.0857,4.1304,4.1756,4.2158,4.2308,4.2585,4.2986,4.3689,4.4342,4.4895,4.5698,4.615,4.6301,4.6301,4.6301,4.6351,4.6728,4.7355,4.8083,4.8385,4.9691,5.1758,5.3653,5.5327,5.6962,5.8525,5.9099,5.9338,6.0685,6.1104,6.1373,6.266,6.3079,6.3079,6.3079,6.3079,6.3079,6.3079,6.3079,6.3079,6.3079,6.3079,6.3438,6.4755,6.5024,6.5413,6.6729,6.7508,6.7897,6.7717,6.8256,6.8704,6.8704,6.9093,6.9602,7.026,6.9961,6.9871,7.029,7.1587,7.3011,7.4857,7.5534,7.6538,7.8351,7.7468,7.6454,7.5439,7.4897,7.4864,7.5371,7.4119,7.3849,7.4627,7.3849,7.3477,7.3477,7.3477,7.3477,2.4638,2.4572,0.0,2.6028,2.7629,2.9744,3.2647,0.0,0.0,0.0,0.0,3.5517,3.4886,3.4466,0.0,3.3935,3.5479,3.691,3.7588,3.8536,4.0148,4.245,4.3473,4.4652,4.6718,4.716,4.7309,4.7309,4.6814,4.5689,4.3598,4.3354,4.2319,4.0304,4.0727,4.1178,4.1505,4.1932,4.2308,4.266,4.3438,4.3966,4.4342,4.5472,4.61,4.6301,4.6301,4.6301,4.6326,4.6677,4.7205,4.7931,4.8727,5.0315,5.2485,5.4268,5.6051,5.7804,5.8743,5.9099,5.9338,6.0685,6.1104,6.1373,6.266,6.3079,6.3079,6.3079,6.3079,6.3079,6.3079,6.3079,6.3079,6.3079,6.3079,6.3438,6.4755,6.5024,6.5503,6.7089,6.7687,6.7956,6.7956,6.8555,6.9004,6.9004,6.9782,7.047,7.0859,7.059,7.05,7.0859,7.233,7.3959,7.5464,7.6581,7.7827,7.9026,7.828,7.7435,7.6657,7.5608,7.5405,7.6149,7.5303,7.5067,7.5506,7.5337,7.5134,7.483,7.483,7.4661,2.2767,0.0,0.0,2.473,2.744,0.0,3.3871,3.5896,3.7297,3.756,0.0,3.4967,3.4073,3.3938,3.3972,3.3972,3.573,3.7207,3.7354,3.8722,4.0268,4.1681,4.3296,4.4821,4.6062,4.683,4.7219,4.7219,4.6137,4.484,4.3598,4.2252,4.1019,3.9697,4.0174,4.0475,4.0526,4.1555,4.2108,4.2158,4.3212,4.374,4.384,4.497,4.5799,4.6301,4.6301,4.6326,4.6376,4.6496,4.6642,4.6838,4.8852,5.0999,5.3159,5.5053,5.7166,5.9099,5.9099,5.9129,5.9398,6.0685,6.1164,6.1433,6.269,6.3079,6.3079,6.3079,6.3079,6.3079,6.3079,6.3079,6.3079,6.3079,6.3079,6.3408,6.4665,6.4994,6.5592,6.7418,6.7897,6.7956,6.7956,6.8585,6.9123,6.9153,7.0171,7.0889,7.0889,7.0889,7.0889,7.0889,7.2425,7.4048,7.5464,7.7193,7.8431,7.9128,7.916,7.8822,7.8213,7.6724,7.6251,7.6995,7.6995,7.6995,7.6995,7.7671,7.7638,7.6995,7.6995,7.6623,2.4567,2.4018,0.0,0.0,2.9834,3.3032,3.4572,3.5252,3.5677,3.6201,3.5155,3.4233,3.4468,3.4529,3.455,3.455,3.568,3.7039,3.8366,3.8804,4.0064,4.2701,4.3428,4.4153,4.543,4.6142,4.6531,4.6531,4.5785,4.484,4.3598,4.2252,4.1019,3.9697,3.9798,4.0074,4.0501,4.1178,4.1731,4.2158,4.2836,4.3388,4.384,4.497,4.5799,4.6301,4.6301,4.6552,4.7075,4.8179,4.889,4.9599,5.1674,5.3605,5.5194,5.6162,5.7547,5.9099,5.9099,5.9428,6.0027,6.0835,6.1463,6.2032,6.2839,6.3079,6.3079,6.3079,6.3079,6.3079,6.3079,6.3079,6.3079,6.3079,6.3079,6.3288,6.4066,6.4635,6.5293,6.6251,6.7268,6.7956,6.7956,6.8974,6.9931,7.041,7.0709,7.0889,7.0889,7.0889,7.0889,7.0889,7.3352,7.5231,7.5579,7.8131,7.9769,7.9972,7.9431,7.9295,7.9701,7.828,7.757,7.7739,7.7739,7.7739,7.7739,7.7908,7.7908,7.7739,7.7739,7.7671,2.3922,0.0,0.0,2.7587,0.0,3.2507,3.3577,3.3493,3.3329,3.3938,3.3711,3.3622,3.4123,3.4093,3.4199,3.4956,3.6109,3.7274,3.8711,3.9605,4.0789,4.2338,4.328,4.4103,4.4743,4.5424,4.5963,4.6292,4.5434,4.4527,4.3571,4.2252,4.1019,3.9697,3.9697,3.9823,4.0124,4.0676,4.1229,4.1781,4.2333,4.3432,4.4806,4.532,4.5648,4.5924,4.6985,4.7478,4.7854,4.9391,5.0128,5.0567,5.2491,5.4116,5.5493,5.6501,5.7853,5.9099,5.9099,5.9338,5.9787,6.0775,6.1343,6.1822,6.278,6.3079,6.3079,6.3079,6.3079,6.3079,6.3079,6.3079,6.3079,6.3079,6.3079,6.3258,6.3857,6.4545,6.5323,6.6281,6.7029,6.7717,6.8345,6.9303,7.0201,7.0799,7.0889,7.0889,7.0889,7.0889,7.1148,7.1982,7.42,7.5924,7.6636,7.8802,8.0209,8.0209,7.9837,7.9803,8.0175,7.9464,7.8889,7.8517,7.8517,7.8517,7.8517,7.8889,7.8855,7.8517,7.9098,7.8831,2.276,0.0,2.5213,2.8194,2.9729,0.0,3.194,3.1594,3.1193,3.1546,3.2149,3.283,3.3647,3.354,3.3905,3.5526,3.6651,3.7779,3.8892,4.0432,4.1497,4.1691,4.3123,4.4137,4.4137,4.4736,4.5364,4.5933,4.488,4.4105,4.3686,4.2215,4.1015,4.0083,3.98,3.9697,3.9697,4.0249,4.0752,4.1204,4.1947,4.347,4.5573,4.5665,4.5821,4.6141,4.7906,4.8718,4.8832,5.0463,5.1153,5.1263,5.2972,5.4226,5.5263,5.6733,5.7962,5.8949,5.9069,5.9189,5.9488,6.0715,6.1194,6.1493,6.272,6.3079,6.3079,6.3079,6.3079,6.3079,6.3079,6.3079,6.3079,6.3079,6.3079,6.3228,6.3737,6.4455,6.5353,6.643,6.6939,6.7537,6.8794,6.9542,7.0201,7.0799,7.0889,7.0889,7.0889,7.1148,7.1855,7.3169,7.488,7.6491,7.7773,7.9288,8.0209,8.0209,8.0209,8.0209,8.0209,8.0209,7.9904,7.9295,7.9295,7.9295,7.9295,7.9904,7.9904,7.9295,8.02,7.9891,0.0,0.0,2.5814,0.0,2.8894,2.96,0.0,0.0,3.042,0.0,3.0567,3.1465,3.3408,3.4173,3.5001,3.6634,3.74,3.8173,3.9349,4.0216,4.1105,4.2149,4.2981,4.3449,4.3449,4.4047,4.4496,4.4586,4.3945,4.3803,4.4257,4.2073,4.0893,4.1293,4.0262,3.9697,3.9697,4.0249,4.0551,4.0626,4.2267,4.3572,4.4441,4.6058,4.7349,4.8355,4.9255,4.9502,4.9748,5.1824,5.2722,5.2914,5.4923,5.5931,5.6199,5.7467,5.8112,5.8351,5.8919,5.9488,6.0086,6.0864,6.1493,6.2121,6.2839,6.3079,6.3079,6.3079,6.3079,6.3079,6.3079,6.3079,6.3079,6.3079,6.3079,6.3109,6.3169,6.4156,6.5084,6.5263,6.667,6.8076,6.8854,6.9542,7.0201,7.0799,7.0889,7.0889,7.0889,7.2109,7.3046,7.3292,7.5924,7.7665,7.7882,7.9288,8.0209,8.0209,8.0209,8.0209,8.0209,8.0209,8.0141,8.0073,8.004,8.004,8.004,8.0141,8.0141,8.004,8.024,8.0173,2.3342,2.3526,2.4068,0.0,2.6351,2.7485,2.8769,0.0,2.9725,3.0441,3.0751,3.1318,3.2567,3.3724,3.5022,3.6641,3.7726,3.8774,3.9924,4.0636,4.1351,4.2312,4.2611,4.294,4.3299,4.3599,4.3928,4.4287,4.4033,4.3858,4.3862,4.2795,4.1649,4.0614,4.0296,3.9904,3.922,3.9772,4.059,4.1595,4.3451,4.513,4.6512,4.8109,4.861,4.837,5.0163,5.1038,5.1173,5.336,5.42,5.4333,5.5275,5.5837,5.6256,5.6825,5.7483,5.8171,5.8471,5.8979,5.9697,6.0775,6.1313,6.1732,6.278,6.3079,6.3079,6.3079,6.3079,6.3079,6.3079,6.3079,6.3079,6.3079,6.3079,6.3169,6.3528,6.4366,6.5233,6.5981,6.7119,6.8196,6.8884,6.9542,7.0201,7.0799,7.0889,7.1247,7.2048,7.3262,7.4397,7.5727,7.7441,7.8833,7.9752,8.0443,8.0818,8.0818,8.0818,8.0615,8.0209,8.0209,8.0209,8.0209,8.0209,8.0209,8.0209,8.0209,8.0542,8.1125,8.2232,8.2569,0.0,0.0,2.2736,2.2988,2.4115,2.5586,0.0,0.0,2.9266,0.0,3.1502,3.2009,3.2469,3.3606,3.5159,3.6939,3.8044,3.9073,4.0054,4.0726,4.1324,4.1803,4.2162,4.2551,4.303,4.324,4.3539,4.4018,4.4077,4.3908,4.3658,4.3315,4.2411,4.0788,4.0489,4.0031,3.9346,3.96,4.0568,4.2251,4.3949,4.5845,4.775,4.9301,4.9384,4.8647,5.0976,5.2064,5.2253,5.4149,5.494,5.497,5.5119,5.5478,5.5957,5.6107,5.6795,5.7663,5.8022,5.8441,5.9099,6.0625,6.1104,6.1373,6.266,6.3079,6.3079,6.3079,6.3079,6.3079,6.3079,6.3079,6.3079,6.3079,6.3079,6.3288,6.4096,6.4784,6.5622,6.6759,6.7657,6.8405,6.8914,6.9662,7.0479,7.1443,7.1654,7.2322,7.3845,7.5168,7.6464,7.8256,7.9263,8.0275,8.1459,8.1393,8.1291,8.1291,8.1088,8.075,8.0209,8.0209,8.0276,8.0479,8.0479,8.0479,8.0479,8.0276,8.0975,8.2464,8.3786,8.4176,0.0,2.2948,0.0,2.2591,2.3244,0.0,0.0,0.0,0.0,3.0164,3.2234,3.3876,3.3934,3.4519,3.5706,3.7942,3.8381,3.865,3.9379,4.0038,4.0457,4.0487,4.1594,4.2372,4.2402,4.297,4.3329,4.3389,4.3389,4.3578,4.4236,4.3102,4.2682,4.3169,4.0974,4.0096,4.0552,3.9981,4.0389,4.1644,4.3012,4.4583,4.6547,4.8443,4.9582,5.0113,5.1518,5.221,5.23,5.3713,5.4251,5.4311,5.494,5.5209,5.5329,5.5957,5.6226,5.6436,5.7693,5.8141,5.8501,6.0475,6.1104,6.1373,6.266,6.3079,6.3079,6.3079,6.3079,6.3079,6.3079,6.3079,6.3079,6.3079,6.3079,6.3438,6.4695,6.5503,6.6161,6.6849,6.8046,6.8944,6.9004,7.0021,7.1345,7.2922,7.3726,7.4716,7.6369,7.8486,7.9846,7.9924,8.1364,8.2236,8.234,8.1697,8.1291,8.1291,8.0648,8.0242,8.0209,8.0209,8.0513,8.1224,8.1224,8.1224,8.1224,8.0547,8.1521,8.4119,8.3425,8.369,0.0,0.0,0.0,2.1981,2.2146,2.2968,2.5241,2.6725,2.8317,3.0932,3.2511,3.3715,3.478,3.5503,3.6259,3.7007,3.7853,3.8332,3.8153,3.908,3.9768,3.9768,4.0935,4.1893,4.2312,4.294,4.3329,4.3329,4.3329,4.3419,4.3688,4.3256,4.2743,4.2249,4.1057,4.0121,3.952,4.0459,4.1591,4.2834,4.4069,4.5734,4.7613,4.8775,4.9613,5.0301,5.1169,5.1798,5.2276,5.3174,5.3803,5.4221,5.4461,5.482,5.5209,5.5448,5.6077,5.6825,5.7304,5.8022,5.8949,6.0086,6.0745,6.1283,6.2181,6.275,6.3079,6.3079,6.3079,6.3079,6.3079,6.3079,6.3169,6.3588,6.4006,6.4575,6.5473,6.5832,6.6191,6.6879,6.7717,6.896,7.0832,7.1506,7.2521,7.4494,7.5364,7.64,7.8014,7.9734,8.0995,8.1498,8.2465,8.3118,8.3118,8.2847,8.2712,8.2712,8.2441,8.2103,8.1629,8.1629,8.1731,8.2002,8.2778,8.2778,8.2002,8.1961,8.3157,8.53,8.5812,8.6629,2.3756,0.0,0.0,0.0,0.0,2.289,2.4662,0.0,2.8112,3.0625,3.2246,3.3621,3.4912,3.5699,3.6237,3.6447,3.7195,3.7674,3.7434,3.8362,3.908,3.908,4.0247,4.1324,4.1983,4.2611,4.309,4.3299,4.3329,0.0,4.3329,4.3329,4.2629,4.1085,4.1165,4.0604,3.9213,4.101,4.2644,4.4163,4.5024,4.6281,4.7967,4.8626,4.9284,4.9942,5.0601,5.1259,5.1917,5.2576,5.3264,5.3892,5.4132,5.461,5.5209,5.5448,5.6047,5.6855,5.7304,5.8022,5.8919,5.9787,6.0565,6.1253,6.1912,6.254,6.3079,6.3079,6.3079,6.3079,6.3079,6.3079,6.3228,6.3857,6.4515,6.5144,6.5592,6.6011,6.6642,6.785,6.8637,6.9915,7.262,7.3265,7.4202,7.6378,7.7349,7.847,8.021,8.1557,8.2594,8.3081,8.3592,8.3862,8.3862,8.3625,8.349,8.349,8.3253,8.2915,8.2441,8.2752,8.3124,8.3397,8.4543,8.4934,8.4308,8.4074,8.5144,8.7308,8.7807,8.8898,0.0,0.0,0.0,0.0,0.0,0.0,2.3546,0.0,2.854,2.9174,3.1485,3.3634,3.4292,3.5011,3.5669,3.6327,3.6447,3.6686,3.7255,3.7943,3.8362,3.8362,3.9559,4.0636,4.1294,4.1953,4.2581,4.324,4.3299,4.3299,4.3299,4.3329,4.2304,3.9972,4.1511,4.1579,4.0012,4.1637,4.3546,4.5389,4.5389,4.6077,4.7339,4.7997,4.8656,4.9284,4.9942,5.0601,5.1259,5.1917,5.2576,5.3234,5.3922,5.4581,5.5269,5.5927,5.6196,5.6376,5.7663,5.8141,5.8351,5.9638,6.0535,6.1224,6.1882,6.254,6.3079,6.3079,6.3079,6.3079,6.3079,6.3079,6.3228,6.3887,6.4545,6.5024,6.5084,6.6192,6.7729,6.9803,7.0869,7.2026,7.4314,7.5246,7.6378,7.8727,7.9672,8.0983,8.3178,8.4167,8.464,8.464,8.464,8.464,8.464,8.3964,8.3524,8.3524,8.2881,8.2475,8.2475,8.362,8.4578,8.5305,8.6551,8.7569,8.8223,8.6789,8.7429,9.0006,8.9292,8.9989,2.4458,0.0,0.0,0.0,0.0,0.0,0.0,0.0,0.0,2.9182,3.086,3.2287,3.2946,3.3993,3.4831,3.5011,3.5848,3.6387,3.6088,3.6985,3.7674,3.7674,3.8871,3.9948,4.0606,4.1265,4.1743,0.0,4.2372,4.2641,4.2641,4.306,4.2629,4.1169,4.1938,4.2047,4.1223,4.2929,4.4395,4.5389,4.6344,4.6931,4.7339,4.7997,4.8656,4.9284,4.9942,5.0601,5.1229,5.1409,5.2157,5.3204,5.3384,5.4162,5.5269,5.5927,5.6466,5.6974,5.7812,5.8441,5.889,5.9249,6.0176,6.1134,6.1343,6.2181,6.3079,6.3079,6.3079,6.3079,6.3079,6.3079,6.3348,6.4485,6.4904,6.562,6.7561,6.8286,6.8828,6.9449,7.1311,7.3579,7.5799,7.6845,7.8004,8.0364,8.1312,8.2191,8.3389,8.4167,8.464,8.464,8.464,8.464,8.464,8.4437,8.4302,8.4302,8.4133,8.3998,8.3998,8.5167,8.5894,8.6102,8.8171,8.9342,8.9546,8.8505,8.8706,9.0078,9.0689,9.1326,0.0,0.0,0.0,0.0,0.0,0.0,2.5625,2.6323,2.7181,0.0,2.9205,3.0522,3.118,3.2587,3.3754,3.4023,3.4951,3.5609,3.5519,3.6387,3.7015,3.7015,3.7943,3.896,3.9888,4.0337,4.0786,4.1354,4.1983,4.2491,4.2761,4.312,4.282,4.167,4.2378,4.268,4.2519,4.4066,4.5259,4.6166,4.6931,4.7309,4.7309,4.7698,4.8386,4.9284,4.9673,5.0361,5.1229,5.1229,5.2007,5.3174,5.3174,5.4012,5.5299,5.6226,5.6795,5.7244,5.8201,5.877,5.9099,5.9099,6.0027,6.1104,6.1104,6.2032,6.3079,6.3079,6.3079,6.3079,6.3079,6.3258,6.3707,6.4784,6.5678,6.6925,6.8753,7.0199,7.1155,7.1441,7.3031,7.5158,7.7395,7.8336,7.9518,8.1493,8.2137,8.278,8.3828,8.4336,8.464,8.464,8.464,8.464,8.464,8.464,8.464,8.464,8.464,8.464,8.464,8.6252,8.7151,8.7151,8.9558,9.0752,9.0788,9.0279,9.0279,9.0866,9.1472,9.1803,0.0,0.0,0.0,0.0,0.0,0.0,2.5404,2.6387,2.735,2.6086,2.732,2.8786,2.9475,3.118,3.2706,3.3275,3.3993,3.4711,3.54,3.5998,3.6417,3.6477,3.6956,3.7793,3.908,3.926,3.9798,4.0965,4.1803,4.2551,4.318,4.3299,4.282,4.1835,4.282,4.3442,4.3777,4.4773,4.5963,4.7309,4.7309,4.7309,4.7309,4.7309,4.7967,4.9164,4.9224,4.9972,5.1109,5.1199,5.1947,5.3084,5.3144,5.3952,5.5239,5.6585,5.7094,5.7274,5.862,5.9099,5.9099,5.9099,5.9967,6.1014,6.1104,6.1972,6.2989,6.3049,6.3079,6.3079,6.3079,6.3528,6.4156,6.5081,6.6711,6.8479,6.9475,7.1713,7.3866,7.4629,7.5492,7.6701,7.8656,7.9667,8.0682,8.2069,8.2272,8.278,8.42,8.4437,8.4505,8.4505,8.4573,8.464,8.464,8.464,8.464,8.464,8.464,8.464,8.464,8.6995,8.8259,8.8259,9.0637,9.1803,9.1803,9.1803,9.1803,9.1803,9.1803,9.1803,0.0,0.0,0.0,0.0,0.0,0.0,2.8042,2.846,2.8817,0.0,2.7949,2.8786,2.9475,3.118,3.2557,3.2677,3.3694,3.4711,3.54,3.5609,3.5908,3.6417,3.6596,3.6956,3.7734,3.8272,3.8691,3.896,4.0576,4.1863,4.2521,4.306,4.317,4.2981,4.317,4.3877,4.4941,4.5191,4.5963,4.7309,4.7309,4.7309,4.7309,4.7309,4.7728,4.8506,4.9045,4.9703,5.0481,5.099,5.1678,5.2456,5.2965,5.3683,5.461,5.6436,5.7094,5.7274,5.862,5.9099,5.9099,5.9099,5.9638,6.0386,6.0954,6.1672,6.2391,6.2929,6.3079,6.3079,6.3079,6.3528,6.4477,6.6322,6.7456,6.9014,7.2087,7.3225,7.4038,7.5265,7.6604,7.768,7.8179,7.9329,8.0513,8.1359,8.1494,8.1832,8.2746,8.3355,8.3727,8.3727,8.4268,8.464,8.464,8.464,8.464,8.464,8.464,8.464,8.464,8.6961,8.8223,8.8223,9.0559,9.1803,9.1803,9.1803,9.1803,9.1803,9.1803,9.1803,0.0,0.0,0.0,2.9271,0.0,0.0,0.0,2.8996,2.8732,2.7762,2.7569,2.7919,2.8906,3.0163,3.136,3.2347,3.3066,3.3963,3.531,3.522,3.513,3.5429,3.5789,3.6237,3.6896,3.7255,3.7853,3.8841,4.0127,4.1175,4.1833,4.2491,4.2851,4.2851,4.315,4.3808,4.4796,4.5125,4.5813,4.683,4.716,4.7309,4.7309,4.7309,4.7668,4.8327,4.8985,4.9643,5.0301,5.096,5.1618,5.2276,5.2935,5.3593,5.4431,5.6376,5.7094,5.7274,5.862,5.9099,5.9099,5.9099,5.9548,6.0206,6.0894,6.1792,6.266,6.2989,6.3079,6.3079,6.3079,6.4075,6.5452,6.6858,6.8815,7.0952,7.3061,7.4206,7.4835,7.558,7.6657,7.757,7.7942,7.8923,8.0141,8.1629,8.1528,8.1697,8.2813,8.3287,8.349,8.349,8.4167,8.464,8.464,8.464,8.464,8.464,8.464,8.464,8.464,8.6865,8.8754,9.0006,9.1173,9.1803,9.1803,9.1803,9.1803,9.1803,9.1803,9.1803,0.0,0.0,0.0,0.0,0.0,3.0912,0.0,0.0,0.0,2.8418,2.7697,0.0,0.0,0.0,0.0,0.0,0.0,0.0,0.0,3.4292,0.0,3.4622,3.4951,3.5429,3.6207,3.6417,3.7195,3.8901,3.9768,4.0427,4.0965,4.1863,4.2372,4.2372,4.3,4.3658,4.4317,4.4975,4.5633,4.6322,4.698,4.7309,4.7309,4.7309,4.7668,4.8327,4.8985,4.9643,5.0301,5.096,5.1618,5.2276,5.2935,5.3593,5.4431,5.6376,5.7094,5.7274,5.862,5.9099,5.9099,5.9099,5.9825,6.0795,6.1489,6.2738,6.3902,6.3902,6.3902,6.3902,6.3902,6.5226,6.673,6.7825,7.0317,7.2644,7.3807,7.4932,7.5709,7.5709,7.6217,7.6961,7.7841,7.8619,7.9769,8.1697,8.146,8.1494,8.2712,8.3118,8.3287,8.3287,8.4099,8.464,8.464,8.464,8.464,8.464,8.464,8.464,8.464,8.6865,8.9306,9.1767,9.1803,9.1803,9.1803,9.1803,9.1803,9.1803,9.1803,9.1803,0.0,0.0,0.0,0.0,3.3566,0.0,0.0,0.0,3.1919,3.1262,0.0,0.0,0.0,0.0,0.0,0.0,0.0,0.0,3.121,3.2048,3.3395,3.516,3.4412,3.4233,3.5489,3.6148,3.6806,3.7584,3.8811,3.9559,3.9649,4.1384,4.2372,4.2372,4.3,4.3658,4.4317,4.4975,4.5633,4.6322,4.698,4.7309,4.7309,4.7309,4.7668,4.8327,4.8985,4.9643,5.0301,5.096,5.1618,5.2276,5.2935,5.3593,5.4431,5.6376,5.7094,5.7274,5.862,5.9099,5.9099,5.9099,6.0714,6.2853,6.3533,6.5102,6.6751,6.6751,6.6751,6.6751,6.6751,6.7292,6.8444,7.0526,7.1718,7.2945,7.4993,7.558,7.5709,7.5709,7.5777,7.6284,7.7739,7.8619,7.9431,8.031,8.0378,8.0378,8.0547,8.1731,8.2543,8.2543,8.3795,8.464,8.464,8.464,8.464,8.464,8.464,8.464,8.464,8.6865,8.9306,9.1767,9.1803,9.1803,9.1803,9.1803,9.1803,9.1803,9.1803,9.1803,0.0,0.0,0.0,0.0,0.0,0.0,3.3604,0.0,3.2541,0.0,0.0,0.0,0.0,0.0,0.0,0.0,3.1839,0.0,0.0,0.0,3.2527,0.0,0.0,0.0,3.4861,3.5519,3.6028,3.6297,3.7524,3.8422,3.8811,4.0367,4.1384,4.1773,4.2791,4.3479,4.3748,4.4766,4.5454,4.5753,4.68,4.7309,4.7309,4.7309,4.7668,4.8327,4.8985,4.9643,5.0331,5.1349,5.2187,5.2845,5.3503,5.3952,5.4431,5.6376,5.7094,5.7274,5.862,5.9099,5.9267,6.0563,6.2395,6.4405,6.51,6.621,6.7164,6.7164,6.7164,6.7164,6.7164,6.8032,6.9253,7.1062,7.228,7.3524,7.5344,7.5709,7.5709,7.5709,7.5709,7.6183,7.7705,7.8247,7.8991,8.0581,8.0479,8.0513,8.1359,8.2035,8.2577,8.2983,8.3998,8.464,8.464,8.464,8.464,8.464,8.464,8.5274,8.661,8.7677,8.9306,9.1767,9.1803,9.1803,9.1803,9.1803,9.1803,9.1803,9.1803,9.1803,3.158,0.0,0.0,0.0,0.0,0.0,0.0,0.0,0.0,0.0,0.0,0.0,0.0,0.0,0.0,0.0,0.0,0.0,0.0,0.0,0.0,0.0,0.0,0.0,0.0,3.51,3.5519,3.5519,3.6537,3.7375,3.7853,3.9469,4.0606,4.1085,4.2551,4.3329,4.3329,4.4646,4.5304,4.5304,4.6651,4.7309,4.7309,4.7309,4.7758,4.8566,4.9075,4.9733,5.0601,5.1738,5.2606,5.3264,5.3952,5.4311,5.467,5.6256,5.6944,5.7274,5.8441,5.9362,6.0289,6.2343,6.4329,6.6095,6.6805,6.7586,6.8306,6.8306,6.8306,6.8306,6.8306,6.9024,7.0154,7.1449,7.2619,7.3849,7.5134,7.5574,7.5709,7.5709,7.5879,7.6454,7.7773,7.7976,7.8653,8.0682,8.0547,8.0648,8.1934,8.2272,8.2678,8.3422,8.4167,8.464,8.464,8.464,8.464,8.464,8.489,8.6087,8.8133,8.8491,8.9641,9.1803,9.1803,9.1803,9.1803,9.1803,9.1803,9.1803,9.1803,9.1803,0.0,0.0,0.0,3.5216,0.0,0.0,0.0,0.0,3.5611,0.0,0.0,0.0,0.0,0.0,0.0,0.0,0.0,0.0,0.0,0.0,0.0,0.0,0.0,0.0,0.0,3.51,3.5519,3.5519,3.6118,3.6537,3.6537,3.899,4.0397,4.0427,4.2312,4.3329,4.3329,4.4646,4.5304,4.5304,4.6651,4.7309,4.7309,4.7309,4.8027,4.9224,4.9254,5.0002,5.1229,5.1917,5.2606,5.3264,5.3952,5.461,5.5239,5.5957,5.6585,5.7184,5.7902,5.9879,6.2374,6.4361,6.642,6.8229,6.8858,7.0043,7.1222,7.1222,7.1222,7.1222,7.1222,7.1222,7.1424,7.2168,7.2969,7.3713,7.4492,7.5202,7.5709,7.5709,7.6318,7.7096,7.7874,7.7976,7.8483,8.0006,8.0209,8.0479,8.1224,8.1968,8.2678,8.3422,8.4167,8.464,8.464,8.464,8.464,8.464,8.5684,8.6865,8.8133,8.9306,9.0559,9.1803,9.1803,9.1803,9.1803,9.1803,9.1803,9.1803,9.1803,9.1803,0.0,0.0,3.3033,3.4496,0.0,0.0,0.0,0.0,0.0,0.0,0.0,0.0,0.0,0.0,0.0,0.0,0.0,0.0,0.0,0.0,0.0,0.0,0.0,0.0,0.0,0.0,3.5416,3.5002,3.5492,3.5821,3.5818,3.7883,3.9469,4.0367,4.1893,4.291,4.3329,4.4646,4.5304,4.5304,4.735,4.7904,4.7309,4.7988,4.8632,4.9254,4.9254,5.0002,5.1319,5.2396,5.2995,5.3294,5.4431,5.4999,5.5269,5.5927,5.6555,5.7348,5.9314,6.2048,6.493,6.6027,6.785,6.9692,7.0339,7.0882,7.1312,7.1312,7.1312,7.1312,7.1312,7.1312,7.1616,7.2834,7.3308,7.3815,7.5067,7.5506,7.5709,7.5709,7.6352,7.713,7.7874,7.8382,7.9058,8.004,8.0615,8.1021,8.1257,8.2374,8.3219,8.3456,8.4167,8.464,8.464,8.464,8.464,8.464,8.5684,8.6961,8.8133,8.939,9.0559,9.1803,9.1803,9.1803,9.1803,9.1803,9.2097,9.2648,9.2648,9.2648,3.2139,3.228,0.0,3.3786,3.3761,0.0,3.4945,0.0,0.0,0.0,0.0,0.0,0.0,0.0,0.0,0.0,0.0,0.0,0.0,3.4948,0.0,0.0,0.0,0.0,0.0,0.0,3.6014,3.5078,3.5548,3.5768,3.5554,3.7345,3.8901,4.0008,4.1564,4.2671,4.3329,4.5022,4.5686,4.5304,4.8109,4.8841,4.7849,4.8512,4.9044,4.9486,4.9314,4.9883,5.099,5.2546,5.3174,5.3324,5.467,5.5451,5.588,5.6304,5.7303,5.8793,6.1491,6.4157,6.6542,6.7497,6.9032,7.0669,7.1176,7.1312,7.1379,7.1616,7.1515,7.1379,7.1616,7.1515,7.1548,7.2496,7.3105,7.3747,7.4695,7.5337,7.5709,7.5709,7.6555,7.7435,7.7908,7.8822,7.9667,8.0141,8.0581,8.0987,8.1257,8.234,8.3219,8.3456,8.4167,8.464,8.464,8.464,8.4785,8.524,8.6449,8.7585,8.8754,9.0006,9.153,9.3492,9.2391,9.2391,9.3529,9.2684,9.2537,9.3125,9.3382,9.3675]},{"header":{"parameterUnit":"m.s-1","parameterCategory":1,"la1":30.6,"la2":29.2853,"lo1":-89.7004,"lo2":-87.6739,"dx":0.0162,"dy":0.0183,"nx":112,"ny":82,"refTime":"2023-02-10T06:00:00:Z","depth":0,"parameterNumber":3,"parameterNumberName":"V-component_of_WINDS"},"data":[0.0,0.0,0.0,0.0,0.0,0.0,0.0,0.0,0.0,0.0,0.0,0.0,0.0,0.0,0.0,0.0,0.0,0.0,0.0,0.0,0.0,0.0,0.0,0.0,0.0,0.0,0.0,0.0,0.0,0.0,0.0,0.0,0.0,0.0,0.0,0.0,0.0,0.0,0.0,0.0,0.0,0.0,0.0,0.0,0.0,0.0,0.0,0.0,0.0,0.0,0.0,0.0,0.0,0.0,0.0,0.0,0.0,0.0,0.0,0.0,0.0,0.0,0.0,0.0,0.0,0.0,0.0,0.0,0.0,0.0,0.0,0.0,0.0,0.0,0.0,0.0,0.0,0.0,0.0,0.0,0.0,0.0,0.0,0.0,0.0,0.0,0.0,0.0,0.0,0.0,0.0,3.2018,3.2886,3.3065,3.2444,3.1705,3.1986,3.3642,0.0,0.0,0.0,0.0,0.0,0.0,0.0,0.0,0.0,0.0,0.0,0.0,0.0,0.0,0.0,0.0,0.0,0.0,0.0,0.0,0.0,0.0,0.0,0.0,0.0,0.0,0.0,0.0,0.0,0.0,0.0,0.0,0.0,0.0,0.0,0.0,0.0,0.0,0.0,0.0,0.0,0.0,0.0,0.0,0.0,0.0,0.0,0.0,0.0,0.0,0.0,0.0,0.0,0.0,0.0,0.0,0.0,0.0,0.0,0.0,0.0,0.0,0.0,0.0,0.0,0.0,0.0,0.0,0.0,0.0,0.0,0.0,0.0,0.0,0.0,0.0,0.0,0.0,0.0,0.0,0.0,0.0,0.0,0.0,0.0,0.0,0.0,0.0,0.0,0.0,0.0,0.0,0.0,0.0,0.0,0.0,0.0,0.0,0.0,0.0,0.0,0.0,0.0,0.0,3.0492,3.0761,3.1928,3.2553,3.2413,3.1298,3.175,3.4292,0.0,0.0,0.0,0.0,0.0,0.0,0.0,0.0,0.0,0.0,0.0,0.0,0.0,0.0,0.0,0.0,0.0,0.0,0.0,0.0,0.0,0.0,0.0,0.0,0.0,0.0,0.0,0.0,0.0,0.0,0.0,0.0,0.0,0.0,0.0,0.0,0.0,0.0,0.0,0.0,0.0,0.0,0.0,0.0,0.0,0.0,0.0,0.0,0.0,0.0,0.0,0.0,0.0,0.0,0.0,0.0,0.0,0.0,0.0,0.0,0.0,0.0,0.0,0.0,0.0,0.0,0.0,0.0,0.0,0.0,0.0,0.0,0.0,0.0,0.0,0.0,0.0,0.0,0.0,0.0,0.0,0.0,0.0,0.0,0.0,0.0,0.0,0.0,0.0,0.0,0.0,0.0,0.0,0.0,0.0,0.0,0.0,0.0,0.0,0.0,0.0,0.0,0.0,3.1249,3.1719,3.2078,3.2677,3.2975,3.2967,3.1757,3.2207,3.494,3.406,0.0,0.0,0.0,0.0,0.0,0.0,0.0,0.0,0.0,0.0,0.0,0.0,0.0,0.0,0.0,0.0,0.0,0.0,0.0,0.0,0.0,0.0,0.0,0.0,0.0,0.0,0.0,0.0,0.0,0.0,0.0,0.0,0.0,0.0,0.0,0.0,0.0,0.0,0.0,0.0,0.0,0.0,0.0,0.0,0.0,0.0,0.0,0.0,0.0,0.0,0.0,0.0,0.0,0.0,0.0,0.0,0.0,0.0,0.0,0.0,0.0,0.0,0.0,0.0,0.0,0.0,0.0,0.0,0.0,0.0,0.0,0.0,0.0,0.0,0.0,0.0,0.0,0.0,0.0,0.0,0.0,0.0,0.0,0.0,0.0,0.0,0.0,0.0,0.0,0.0,0.0,0.0,0.0,0.0,0.0,0.0,0.0,0.0,0.0,0.0,0.0,0.0,3.2108,3.2407,3.3395,3.3484,3.3457,3.32,3.2093,3.2523,3.5169,3.4311,0.0,0.0,0.0,0.0,0.0,0.0,0.0,0.0,0.0,0.0,0.0,0.0,0.0,0.0,0.0,0.0,0.0,0.0,0.0,0.0,0.0,0.0,0.0,0.0,0.0,0.0,0.0,0.0,0.0,0.0,0.0,0.0,0.0,0.0,0.0,0.0,0.0,0.0,0.0,0.0,0.0,0.0,0.0,0.0,0.0,0.0,0.0,0.0,0.0,0.0,0.0,0.0,0.0,0.0,0.0,0.0,0.0,0.0,0.0,0.0,0.0,0.0,0.0,0.0,0.0,0.0,0.0,0.0,0.0,0.0,0.0,0.0,0.0,0.0,0.0,0.0,0.0,0.0,0.0,0.0,0.0,0.0,0.0,0.0,0.0,0.0,0.0,0.0,0.0,0.0,0.0,0.0,0.0,0.0,0.0,0.0,0.0,0.0,0.0,0.0,0.0,0.0,3.2138,3.136,3.3305,3.3484,3.3245,3.2616,3.1927,3.2347,3.445,3.4478,0.0,0.0,0.0,0.0,0.0,0.0,0.0,0.0,0.0,0.0,0.0,0.0,0.0,0.0,0.0,0.0,0.0,0.0,0.0,0.0,0.0,0.0,0.0,0.0,0.0,0.0,0.0,0.0,0.0,0.0,0.0,0.0,0.0,0.0,0.0,0.0,0.0,0.0,0.0,0.0,0.0,0.0,0.0,0.0,0.0,0.0,0.0,0.0,0.0,0.0,0.0,0.0,0.0,0.0,0.0,0.0,0.0,0.0,0.0,0.0,0.0,0.0,0.0,0.0,0.0,0.0,0.0,0.0,0.0,0.0,0.0,0.0,0.0,0.0,0.0,0.0,0.0,0.0,0.0,0.0,0.0,0.0,0.0,0.0,0.0,0.0,0.0,0.0,0.0,0.0,0.0,0.0,0.0,0.0,0.0,0.0,0.0,0.0,0.0,0.0,0.0,0.0,3.3604,3.3275,0.0,3.3754,3.3574,3.3724,3.2766,3.3185,3.5579,0.0,0.0,0.0,0.0,0.0,0.0,0.0,0.0,0.0,0.0,0.0,0.0,0.0,0.0,0.0,0.0,0.0,0.0,0.0,0.0,0.0,0.0,0.0,0.0,0.0,0.0,0.0,0.0,0.0,0.0,0.0,0.0,0.0,0.0,0.0,0.0,0.0,0.0,0.0,0.0,0.0,0.0,0.0,0.0,0.0,0.0,0.0,0.0,0.0,0.0,0.0,0.0,0.0,0.0,0.0,0.0,0.0,0.0,0.0,0.0,0.0,0.0,0.0,0.0,0.0,0.0,0.0,0.0,0.0,0.0,0.0,0.0,0.0,0.0,0.0,0.0,0.0,0.0,0.0,0.0,0.0,0.0,0.0,0.0,0.0,0.0,0.0,0.0,0.0,0.0,0.0,0.0,0.0,0.0,0.0,0.0,0.0,0.0,0.0,0.0,0.0,0.0,3.4711,3.4233,3.4113,0.0,3.4203,3.3993,3.4442,3.3455,3.3873,3.6327,0.0,0.0,0.0,0.0,0.0,0.0,0.0,0.0,0.0,0.0,0.0,0.0,0.0,0.0,0.0,0.0,0.0,0.0,0.0,0.0,0.0,0.0,0.0,0.0,0.0,0.0,0.0,0.0,0.0,0.0,0.0,0.0,0.0,0.0,0.0,0.0,0.0,0.0,0.0,0.0,0.0,0.0,0.0,0.0,0.0,0.0,0.0,0.0,0.0,0.0,0.0,0.0,0.0,0.0,0.0,0.0,0.0,0.0,0.0,0.0,0.0,0.0,0.0,0.0,0.0,0.0,0.0,0.0,0.0,0.0,0.0,0.0,0.0,0.0,0.0,0.0,0.0,0.0,0.0,0.0,0.0,0.0,0.0,0.0,0.0,0.0,0.0,0.0,0.0,0.0,0.0,0.0,0.0,0.0,0.0,0.0,0.0,0.0,0.0,0.0,0.0,0.0,3.525,3.3754,3.3305,3.528,3.4891,3.4472,3.4472,3.3873,3.4352,0.0,0.0,0.0,0.0,0.0,0.0,0.0,0.0,0.0,0.0,0.0,0.0,0.0,0.0,0.0,0.0,0.0,0.0,0.0,0.0,0.0,0.0,0.0,0.0,0.0,0.0,0.0,0.0,0.0,0.0,0.0,0.0,0.0,0.0,0.0,0.0,0.0,0.0,0.0,0.0,0.0,0.0,0.0,0.0,0.0,0.0,0.0,0.0,0.0,0.0,0.0,0.0,0.0,0.0,0.0,0.0,0.0,0.0,0.0,0.0,0.0,0.0,0.0,0.0,0.0,0.0,0.0,0.0,0.0,0.0,0.0,0.0,0.0,0.0,0.0,0.0,0.0,0.0,0.0,0.0,0.0,0.0,0.0,0.0,0.0,0.0,0.0,0.0,0.0,0.0,0.0,0.0,0.0,0.0,0.0,0.0,0.0,0.0,0.0,0.0,0.0,0.0,0.0,3.531,3.4173,3.3784,3.534,3.4891,3.4681,3.516,3.4592,3.504,3.7015,0.0,0.0,0.0,0.0,0.0,0.0,0.0,0.0,0.0,0.0,0.0,0.0,0.0,0.0,0.0,0.0,0.0,0.0,0.0,0.0,0.0,0.0,0.0,0.0,0.0,0.0,0.0,0.0,0.0,0.0,0.0,0.0,0.0,0.0,0.0,0.0,0.0,0.0,0.0,0.0,0.0,0.0,0.0,0.0,0.0,0.0,0.0,0.0,0.0,0.0,0.0,0.0,0.0,0.0,0.0,0.0,0.0,0.0,0.0,0.0,0.0,0.0,0.0,0.0,0.0,0.0,0.0,0.0,0.0,0.0,0.0,0.0,0.0,0.0,0.0,0.0,0.0,0.0,0.0,0.0,0.0,0.0,0.0,0.0,0.0,0.0,0.0,0.0,0.0,0.0,0.0,0.0,0.0,0.0,0.0,0.0,0.0,0.0,0.0,0.0,0.0,0.0,3.5275,3.4322,3.4023,3.537,3.513,3.507,3.5459,3.513,3.5489,3.6956,0.0,0.0,0.0,0.0,0.0,0.0,0.0,0.0,0.0,0.0,0.0,0.0,0.0,0.0,0.0,0.0,0.0,0.0,0.0,0.0,0.0,0.0,0.0,0.0,0.0,0.0,0.0,0.0,0.0,0.0,0.0,0.0,0.0,0.0,0.0,0.0,0.0,0.0,0.0,0.0,0.0,0.0,0.0,0.0,0.0,0.0,0.0,0.0,0.0,0.0,0.0,0.0,0.0,0.0,0.0,0.0,0.0,0.0,0.0,0.0,0.0,0.0,0.0,0.0,0.0,0.0,0.0,0.0,0.0,0.0,0.0,0.0,0.0,0.0,0.0,0.0,0.0,0.0,0.0,0.0,0.0,0.0,0.0,0.0,0.0,0.0,0.0,0.0,0.0,0.0,0.0,0.0,0.0,0.0,0.0,0.0,0.0,0.0,0.0,0.0,0.0,0.0,3.527,3.4412,3.4083,3.537,3.5519,3.5519,3.5519,3.5519,3.5789,3.6447,0.0,0.0,0.0,0.0,0.0,0.0,0.0,0.0,0.0,0.0,0.0,0.0,0.0,0.0,0.0,0.0,0.0,0.0,0.0,0.0,0.0,0.0,0.0,0.0,0.0,0.0,0.0,0.0,0.0,0.0,0.0,0.0,0.0,0.0,0.0,0.0,0.0,0.0,0.0,0.0,0.0,0.0,0.0,0.0,0.0,0.0,0.0,0.0,0.0,0.0,0.0,0.0,0.0,0.0,0.0,0.0,0.0,0.0,0.0,0.0,2.2519,0.0,0.0,0.0,0.0,0.0,0.0,0.0,0.0,0.0,0.0,0.0,0.0,0.0,0.0,0.0,0.0,0.0,0.0,0.0,0.0,0.0,0.0,0.0,0.0,0.0,0.0,0.0,0.0,0.0,0.0,0.0,0.0,0.0,0.0,0.0,0.0,0.0,0.0,0.0,0.0,0.0,3.6118,3.51,3.4592,3.54,3.5519,3.5519,3.5519,3.5519,3.5789,3.6447,3.6477,0.0,0.0,0.0,0.0,0.0,0.0,0.0,0.0,0.0,0.0,0.0,0.0,0.0,0.0,0.0,0.0,0.0,0.0,0.0,0.0,0.0,0.0,0.0,0.0,0.0,0.0,0.0,0.0,0.0,0.0,0.0,0.0,0.0,0.0,0.0,0.0,0.0,0.0,0.0,0.0,0.0,0.0,0.0,0.0,0.0,0.0,0.0,0.0,0.0,0.0,0.0,0.0,0.0,0.0,0.0,0.0,0.0,0.0,0.0,0.0,2.357,0.0,0.0,0.0,0.0,0.0,0.0,0.0,0.0,0.0,0.0,0.0,0.0,0.0,0.0,0.0,0.0,0.0,0.0,0.0,0.0,0.0,0.0,0.0,0.0,0.0,0.0,0.0,0.0,0.0,0.0,0.0,0.0,0.0,0.0,0.0,0.0,0.0,0.0,0.0,0.0,3.629,3.531,3.4741,3.5429,3.5519,3.5519,3.5519,3.5519,3.5639,3.5998,3.6297,0.0,0.0,0.0,0.0,0.0,0.0,0.0,0.0,0.0,0.0,0.0,0.0,0.0,0.0,0.0,0.0,0.0,0.0,0.0,0.0,0.0,0.0,0.0,0.0,0.0,0.0,0.0,0.0,0.0,0.0,0.0,0.0,0.0,0.0,0.0,0.0,0.0,0.0,0.0,0.0,0.0,0.0,0.0,0.0,0.0,0.0,0.0,0.0,0.0,0.0,0.0,0.0,0.0,2.5787,2.5988,2.6533,2.7364,2.7472,2.6997,2.5119,2.4034,2.353,2.4499,0.0,0.0,0.0,0.0,0.0,0.0,0.0,0.0,0.0,0.0,0.0,0.0,0.0,0.0,0.0,0.0,0.0,0.0,0.0,0.0,0.0,0.0,0.0,0.0,3.1901,3.1942,0.0,0.0,0.0,0.0,0.0,0.0,0.0,0.0,0.0,0.0,0.0,0.0,3.632,3.5429,3.4891,3.5459,3.5519,3.5519,3.5519,3.5519,3.5519,3.5519,3.5866,3.5692,0.0,0.0,0.0,0.0,0.0,0.0,0.0,0.0,0.0,0.0,0.0,0.0,0.0,0.0,0.0,0.0,0.0,0.0,0.0,0.0,0.0,0.0,0.0,0.0,0.0,0.0,0.0,0.0,0.0,0.0,0.0,0.0,1.1985,1.2835,0.0,0.0,0.0,0.0,0.0,0.0,0.0,0.0,0.0,0.0,0.0,0.0,0.0,2.5862,2.6841,2.6841,2.6917,2.7067,2.6565,2.6458,2.6533,2.7471,2.7815,2.7801,2.8275,0.0,2.6309,2.5724,0.0,0.0,0.0,0.0,0.0,0.0,0.0,0.0,0.0,0.0,0.0,0.0,0.0,0.0,0.0,0.0,0.0,0.0,0.0,0.0,0.0,0.0,3.1086,3.2616,3.2528,3.2638,0.0,3.3625,3.251,3.2593,3.2522,0.0,0.0,0.0,0.0,0.0,0.0,0.0,3.6477,3.5818,3.54,3.5489,3.5519,3.5519,3.5519,3.5519,3.5519,3.5519,3.4765,3.4111,3.3623,3.2772,0.0,0.0,0.0,0.0,0.0,0.0,0.0,0.0,0.0,0.0,0.0,0.0,0.0,0.0,0.0,0.0,0.0,0.0,0.0,0.0,0.0,0.0,0.0,0.0,0.0,0.0,0.0,0.0,0.0,1.2038,1.3879,1.4735,1.6738,1.8507,0.0,0.0,0.0,0.0,0.0,0.0,0.0,0.0,0.0,2.6189,2.6414,2.664,2.6816,2.6816,2.6967,2.7293,2.7042,2.7418,2.8257,2.9093,2.9827,3.035,3.0736,3.0503,2.9683,2.7735,2.6113,2.4992,0.0,0.0,0.0,0.0,2.8264,2.9757,2.8867,2.9579,0.0,3.0303,0.0,0.0,0.0,0.0,0.0,0.0,0.0,0.0,0.0,0.0,3.3511,3.4735,3.5082,3.5422,3.638,3.5898,3.5085,0.0,3.4123,3.4059,3.4342,0.0,0.0,0.0,0.0,3.6477,3.6477,3.5908,3.5519,3.5519,3.5519,3.5519,3.5519,3.5519,3.5519,3.5519,3.4543,3.3716,3.298,3.2948,3.2694,0.0,0.0,0.0,0.0,0.0,0.0,0.0,0.0,0.0,0.0,0.0,0.0,0.0,0.0,0.0,0.0,0.0,0.0,0.0,0.0,0.0,0.0,0.0,0.0,0.0,0.0,0.0,0.0,1.3709,1.5518,1.6476,1.8233,1.9868,0.0,0.0,0.0,0.0,0.0,0.0,2.5988,2.6565,2.7067,2.7469,2.762,2.757,2.7318,2.7318,2.7637,2.8329,2.8482,2.9217,3.061,3.1654,3.2489,3.3186,3.3449,3.3296,3.2709,2.9629,2.7327,2.5914,2.6771,2.7227,2.7572,2.8504,2.9859,3.104,3.0203,3.0823,3.186,3.1182,0.0,3.1074,3.1402,0.0,0.0,0.0,0.0,3.3438,3.4611,3.5223,3.5839,3.679,3.7315,3.7704,3.7883,3.8063,3.7734,0.0,3.5642,3.5467,3.5613,0.0,0.0,0.0,0.0,3.6716,3.6716,3.6297,3.5998,3.5998,3.5998,3.5938,3.5759,3.5759,3.5538,3.5133,3.4322,3.341,3.2482,3.2881,3.2735,3.1813,0.0,0.0,0.0,0.0,0.0,0.0,0.0,0.0,0.0,0.0,0.0,0.0,0.0,0.0,0.0,0.0,0.0,0.0,0.0,0.0,0.0,0.0,0.0,0.0,0.0,0.0,0.0,0.0,0.0,1.7323,1.97,0.0,0.0,0.0,0.0,2.5394,2.6515,2.7143,2.7193,2.772,2.8021,2.8072,2.8574,2.9101,2.9628,2.9628,3.0139,3.0987,3.1642,3.2482,3.3467,3.4996,3.5783,3.5854,3.6754,3.636,3.4733,3.0977,2.9689,2.9974,2.9124,2.9151,2.9781,3.0719,3.1093,3.1315,3.2136,3.2494,3.2566,3.2494,3.2494,3.2494,3.2522,3.2522,0.0,0.0,3.4836,3.5259,3.6832,3.7246,3.7455,3.8153,3.8332,3.8512,3.917,3.9798,3.9679,0.0,3.6866,3.6589,3.7187,0.0,3.6619,3.7246,3.7306,3.7375,3.7375,3.7345,3.7315,3.7315,3.7315,3.7075,3.6477,3.6447,3.5785,3.4206,3.3648,3.3009,3.2061,3.1701,3.1996,3.2968,3.2491,0.0,0.0,0.0,0.0,0.0,0.0,0.0,0.0,0.0,0.0,0.0,0.0,0.0,0.0,0.0,0.0,0.0,0.0,0.0,0.0,0.0,0.0,0.0,0.0,0.0,0.0,0.0,0.0,2.0634,2.2076,0.0,2.5054,2.5578,2.6239,2.7143,2.7595,2.8122,2.885,2.9428,2.988,3.0206,3.0407,3.0608,3.0809,3.1498,3.2045,3.2405,3.3279,3.4261,3.521,3.6158,3.6778,3.6891,3.7714,3.7535,3.6438,3.3756,3.199,3.0929,3.0241,3.0131,3.0514,3.1888,3.2733,3.3309,3.3707,3.4654,3.5601,3.501,3.4797,3.4654,3.4074,3.4293,3.4925,3.551,3.6091,3.6872,3.8322,3.8691,3.896,4.0068,4.0307,4.0397,4.0636,4.0876,4.0816,4.0098,3.911,3.8452,3.8661,3.7793,3.7315,3.7943,3.7674,3.7404,3.7404,3.7404,3.7404,3.7404,3.7404,3.7315,3.7105,3.6716,3.5993,3.4715,3.3536,3.2581,3.2011,3.1621,3.1738,3.2516,3.2315,3.2566,0.0,0.0,0.0,0.0,0.0,0.0,0.0,0.0,0.0,0.0,0.0,0.0,0.0,0.0,0.0,0.0,0.0,0.0,0.0,0.0,0.0,0.0,0.0,0.0,0.0,0.0,2.0631,2.3604,2.4638,2.5832,2.7373,2.7394,2.767,2.8599,2.9001,2.9528,3.0281,3.1589,3.2235,3.2209,3.295,3.3297,3.3115,3.3833,3.4356,3.4667,3.5655,3.6596,3.7506,3.8179,3.8561,3.8781,3.92,3.914,3.8579,3.6505,3.4854,3.3426,3.1545,3.1099,3.1626,3.3249,3.4306,3.5012,3.5407,3.6516,3.7635,3.674,3.6658,3.6691,3.6085,3.6476,3.7214,3.7418,3.7937,3.8661,3.9798,4.0068,4.0307,4.1175,4.1564,4.1713,4.1713,4.1893,4.2043,4.2043,4.0786,3.9738,3.9738,3.8811,3.8392,3.926,3.8841,3.8571,3.902,3.8901,3.8751,3.8751,3.8542,3.8332,3.8093,3.7704,3.6655,3.464,3.3896,3.3023,3.1889,3.1945,3.2215,3.2767,3.2141,3.2043,3.2398,0.0,0.0,0.0,0.0,0.0,0.0,0.0,0.0,0.0,0.0,0.0,0.0,0.0,0.0,0.0,0.0,0.0,0.0,0.0,0.0,0.0,0.0,0.0,1.7856,2.128,2.4314,2.5925,2.7359,2.8197,2.8222,2.8725,2.9302,2.988,3.0964,3.1543,3.1568,3.4152,3.5103,3.3939,3.6223,3.7143,3.648,3.661,3.7183,3.8052,3.8764,3.9542,4.0487,4.1145,4.1444,4.1414,4.1444,4.1414,4.1203,3.8965,3.8145,3.7648,3.326,3.2191,3.3277,3.4908,3.5808,3.6315,3.7218,3.7943,3.8392,3.7734,3.7973,3.8482,3.8482,3.896,3.9619,4.0247,4.0427,4.0576,4.1235,4.1414,4.1414,4.1474,4.1953,4.2432,4.2432,4.294,4.3389,4.3359,4.1833,4.0516,4.0457,3.9918,3.9948,4.1205,4.0846,0.0,4.2162,4.1773,4.1384,4.1414,4.0846,4.0187,3.9529,3.9469,3.7754,3.389,3.474,3.42,3.1518,3.2466,3.3319,3.3897,3.218,3.0621,2.9418,0.0,0.0,0.0,0.0,0.0,0.0,0.0,0.0,0.0,0.0,0.0,0.0,0.0,0.0,0.0,0.0,0.0,0.0,0.0,0.0,0.0,0.0,2.1204,2.1481,2.3209,2.5359,2.7829,2.9931,3.1163,3.109,3.2349,3.3105,3.2802,3.3843,3.4659,3.5077,3.6626,3.7318,3.6989,3.762,3.7895,3.7729,3.8535,3.9039,3.9275,4.0283,4.1097,4.1833,4.2491,4.2551,4.2102,4.2581,4.1755,3.9952,3.8639,3.8062,3.7813,3.5849,3.5273,3.5778,3.7826,3.9131,3.9951,4.0203,4.0397,4.0516,4.0337,4.0397,4.0546,4.0546,4.0696,4.0876,4.1055,4.1115,4.1265,4.1923,4.2102,4.2342,4.3269,4.3658,4.3778,4.3778,4.4287,4.4616,4.4137,4.3988,4.3509,4.2073,4.1683,4.1504,4.1384,4.1235,0.0,4.1594,4.1504,4.1564,4.2043,4.1923,4.1564,4.0905,4.0397,3.8604,3.5169,3.472,3.3853,3.2047,3.229,3.2918,3.3872,3.2817,3.1507,0.0,0.0,0.0,0.0,0.0,0.0,0.0,0.0,0.0,0.0,0.0,0.0,0.0,0.0,0.0,0.0,0.0,0.0,0.0,0.0,0.0,0.0,2.2278,2.459,2.5326,2.6009,2.7358,2.9651,3.1993,3.3275,3.2902,3.4879,3.5858,3.5053,3.6273,3.7115,3.7223,3.8783,3.9532,3.9278,4.0281,4.0732,4.0732,4.1674,4.2063,4.2144,4.2763,4.321,4.3599,4.3988,4.3958,4.3599,4.3988,4.3138,4.1492,4.0456,3.9788,0.0,0.0,0.0,0.0,0.0,4.1222,4.2132,4.1564,4.1564,4.1743,4.1474,4.1564,4.1803,4.1803,4.1983,4.2192,4.2192,4.2192,4.2282,4.2671,4.2761,4.303,4.4077,4.4317,4.4377,4.4676,4.5035,4.5185,4.4796,4.5274,0.0,4.3838,4.3359,4.306,4.2671,4.2372,4.2312,4.2581,4.2372,4.2342,4.2731,4.2521,4.2192,4.1833,4.1175,0.0,0.0,0.0,3.4525,3.2978,3.2918,0.0,0.0,0.0,3.1502,3.0449,0.0,0.0,0.0,2.6152,2.6133,0.0,0.0,0.0,0.0,0.0,0.0,0.0,0.0,0.0,0.0,0.0,0.0,0.0,0.0,0.0,0.0,2.5172,2.7262,2.8875,2.9353,3.0163,3.163,3.3822,3.5015,3.4525,3.7057,3.8171,3.701,3.8468,3.9172,3.8727,0.0,0.0,0.0,0.0,4.4436,4.4436,4.5005,4.5304,4.5304,4.5304,4.5334,4.5394,4.5394,4.5394,4.5394,4.5394,4.4952,4.4162,4.3076,4.2391,4.1506,3.8382,3.845,4.0459,4.1377,4.2432,4.3269,4.2013,0.0,0.0,4.1803,4.1983,4.2462,4.2462,4.288,4.3359,4.3419,4.3389,4.3359,4.3509,4.3509,4.3629,4.4377,4.4556,4.4706,4.5274,4.5454,4.5484,4.5424,4.5963,4.6202,4.5514,4.4915,4.4526,4.4436,4.3928,4.3778,4.4347,4.3898,4.3569,4.3658,0.0,0.0,4.2581,4.1906,4.0051,3.6754,3.638,3.5571,3.406,3.3997,3.4474,3.5437,3.2534,3.0964,3.0964,2.8348,2.707,2.7012,2.7012,2.7012,0.0,0.0,0.0,0.0,0.0,0.0,0.0,0.0,0.0,0.0,0.0,0.0,0.0,0.0,0.0,2.5226,2.7139,2.885,3.0131,3.2275,3.3802,3.4117,3.6142,3.7702,3.7939,4.0294,4.1086,3.9408,4.0858,4.1852,4.1737,4.3001,4.3961,4.443,4.4893,4.5095,4.5095,4.5244,4.5304,4.5304,0.0,0.0,4.6142,4.6142,4.6142,4.6142,4.6142,4.5187,4.3689,4.3517,4.3344,4.3056,4.1853,4.2241,4.3477,4.3668,4.3898,4.4018,4.324,4.303,4.312,4.3,4.303,4.315,4.315,4.324,0.0,4.3958,4.3748,4.3569,4.4646,4.4526,4.4436,4.5663,4.5933,4.5963,4.6082,4.6531,4.677,4.6232,4.6651,4.689,4.6232,4.6022,4.5753,4.5185,4.5005,4.4975,4.5095,4.4975,4.5125,4.5693,4.5125,4.4526,4.3988,4.2467,4.0421,3.7813,3.6049,3.487,3.455,3.4575,3.4876,3.5529,3.2788,3.1457,3.1577,2.8819,2.7363,2.7012,2.7012,2.7012,0.0,0.0,0.0,0.0,0.0,0.0,0.0,0.0,0.0,0.0,0.0,1.9306,0.0,0.0,2.598,2.7336,2.9023,3.077,3.2452,3.4376,3.55,3.5209,3.7758,3.9506,3.9446,4.1906,4.2844,4.1397,4.2936,4.399,4.399,4.4519,4.5125,4.5783,4.5813,4.5963,4.6292,4.6621,4.68,4.68,4.68,4.698,4.7309,4.695,4.68,4.68,4.68,4.607,4.4905,4.4552,4.4405,4.4405,4.4405,4.4566,4.4796,4.4796,4.4796,4.4766,4.4436,4.4317,4.4317,4.4317,4.4317,4.4317,4.4317,4.4317,4.4377,4.4706,4.4556,4.4466,4.5125,4.5035,4.5065,4.6082,4.6322,4.6411,4.6741,4.707,4.7219,4.689,4.707,4.7189,4.686,4.68,4.6471,4.5454,4.5304,4.5304,4.5304,4.5304,4.5424,4.5783,4.5514,4.5155,4.4825,4.2302,3.9899,3.7682,3.5786,3.4851,3.5127,3.4876,3.5102,3.5931,3.3021,3.1627,3.1972,2.929,2.7871,2.7656,2.7656,2.7539,0.0,0.0,0.0,0.0,0.0,0.0,0.0,0.0,1.6037,1.8071,2.0482,2.2831,2.4715,2.6838,2.8473,2.9151,3.0792,3.2731,3.4545,3.624,3.7138,3.6653,3.9224,4.0904,4.0801,4.2982,4.4139,4.3164,4.4566,4.5484,4.5484,4.5484,4.5813,4.6501,4.6651,4.695,4.7489,4.8147,4.8476,4.8476,4.8476,4.8476,4.8446,4.7788,4.7489,4.7489,4.7369,4.701,4.6471,4.5903,4.5693,4.5753,4.6292,4.6172,4.5663,4.5544,4.5484,4.5484,4.5334,4.5304,4.5304,4.5304,4.5304,4.5304,4.5304,4.5304,4.5334,4.5454,4.5394,4.5364,4.5603,4.5574,4.5663,4.6352,4.6501,4.6681,4.7369,4.7489,4.7549,4.7668,4.7698,4.7638,4.7519,4.7489,4.707,4.5873,4.5693,4.5693,4.5693,4.5693,4.5693,4.5693,4.5574,4.5257,4.4659,4.1736,3.9176,3.7273,3.5862,3.5353,3.568,3.5278,3.5454,3.6332,3.3231,3.1828,3.2331,2.9618,2.8301,2.8301,2.8301,2.8105,1.7191,1.5312,1.3542,1.3405,1.3474,1.4146,0.0,0.0,1.9704,2.1829,2.3299,2.474,2.6656,2.7974,2.9176,3.0256,3.2662,3.4518,3.4733,3.8005,4.0249,4.0192,4.0958,4.2092,4.3701,4.4631,4.5185,4.4989,4.5729,4.6202,4.6202,4.6202,4.6501,4.7189,4.7758,4.8087,4.8177,4.8835,4.9164,4.9164,4.9164,4.9164,4.9134,4.8476,4.8177,4.8147,4.7549,4.7279,4.7189,4.713,4.707,4.71,4.716,4.716,4.701,4.6411,4.6202,4.6112,4.5514,4.5304,4.5304,4.5304,4.5304,4.5304,4.5304,4.5304,4.5424,4.6022,4.5753,4.5574,4.677,4.6651,4.6381,4.704,4.7189,4.7369,4.8027,4.8177,4.8356,4.8925,4.9045,4.8865,4.8267,4.8177,4.7938,4.7189,4.707,4.707,4.707,4.707,4.707,4.707,4.6561,4.5052,4.2368,4.0653,3.9076,3.7298,3.7031,3.6709,3.6282,3.6207,3.6232,3.6358,3.3679,3.2286,3.2331,2.9618,2.8301,2.8301,2.8301,2.8262,1.7459,1.5892,1.4727,0.0,1.59,1.7124,1.8612,2.0533,2.2733,2.511,2.662,2.7882,2.9326,3.0206,3.1008,0.0,3.3592,3.5465,3.7449,3.9515,4.0989,4.1686,4.2246,4.3057,4.4176,4.4915,4.5454,4.5873,4.6501,4.689,4.689,4.689,4.7189,4.7848,4.8147,4.8476,4.8865,4.9494,4.9823,4.9823,4.9823,4.9823,4.9793,4.9164,4.8656,4.8267,4.7997,4.7668,4.7339,4.7728,4.7638,4.7309,4.7309,4.7309,4.7279,4.701,4.689,4.686,4.6561,4.6471,4.6471,4.6471,4.6471,4.6471,4.6471,4.6471,4.6531,4.68,4.6681,4.6591,4.716,4.71,4.695,4.7249,4.7608,4.7967,4.8237,4.8596,4.8925,4.9224,4.9254,4.9164,4.8895,4.8865,4.8775,4.8476,4.8117,4.7878,4.7878,4.8207,4.8149,4.7369,4.571,4.4011,4.2231,4.1037,3.9719,3.8265,3.7839,3.7412,3.686,3.6835,3.6372,3.5283,3.3353,3.1927,3.1133,2.946,2.8652,2.8672,2.8926,2.9043,1.7817,1.6847,0.0,1.7246,1.874,2.0373,2.1733,2.3732,2.5988,2.8274,2.9618,3.0592,3.1449,3.2017,3.2604,3.3296,3.4819,3.6711,3.9154,4.0495,4.1439,4.2025,4.2521,4.321,4.4227,4.4915,4.5663,4.6531,4.7219,4.7578,4.7578,4.7758,4.8057,4.8536,4.8745,4.9045,4.9523,5.0361,5.069,5.0511,5.069,5.069,5.0481,4.9823,4.9164,4.8566,4.8566,4.8297,4.7878,4.8356,4.8177,4.7578,4.7578,4.7578,4.7578,4.7578,4.7459,4.7309,4.7309,4.7309,4.7309,4.7309,4.7309,4.7309,4.7309,4.7309,4.7309,4.7309,4.7429,4.7578,4.7578,4.7698,4.7848,4.7848,4.8207,4.8596,4.8775,4.9344,4.9853,5.0032,5.0212,5.0242,4.9883,4.9793,4.9733,4.9553,4.8834,4.8176,4.7999,4.808,4.7759,4.669,4.4719,4.3219,4.2673,4.1402,4.0304,3.9196,3.8567,3.799,3.7437,3.7412,3.6823,3.5429,3.3669,3.2222,3.1208,2.9776,2.9101,2.9101,2.9414,2.957,0.0,0.0,1.8895,2.037,2.187,2.3579,2.6063,2.7997,2.9784,3.1378,3.2124,3.2494,3.2522,3.3018,3.3551,3.4231,3.6787,3.8687,3.8793,4.086,4.2132,4.1474,4.1444,4.2192,0.0,4.4915,4.5843,4.7189,4.7878,4.8267,4.8267,4.8865,4.9224,4.9224,4.9853,5.0182,5.0212,5.1498,5.1828,5.1199,5.1828,5.1798,5.1169,5.0511,4.9853,4.9224,4.9224,4.9224,4.9194,4.9224,4.8835,4.8267,4.8267,4.8267,4.8267,4.8267,4.7848,4.7309,4.7309,4.7309,4.7309,4.7309,4.7309,4.7309,4.7309,4.7309,4.7309,4.7309,4.7758,4.8267,4.8267,4.8716,4.9194,4.9194,4.9224,4.9404,5.0032,5.069,5.1349,5.1977,5.2636,5.2665,5.1379,5.1169,5.093,5.0301,4.9069,4.7952,4.7318,4.6083,4.52,4.52,4.3969,4.3177,4.3203,4.1593,4.0224,3.9697,3.9145,3.8592,3.8015,3.799,3.7965,3.7841,3.5119,3.3765,3.3659,3.0929,2.9551,2.9551,2.957,2.957,0.0,0.0,2.1083,2.3266,2.489,2.6544,2.863,3.0153,3.1323,3.2461,3.2794,3.2823,3.2369,3.3067,3.4087,3.528,3.7347,3.9392,4.0997,4.2198,4.2611,4.1504,4.2162,0.0,0.0,0.0,0.0,4.7189,4.7908,4.8297,4.8297,4.8925,4.9464,4.9883,5.0122,5.0661,5.1528,5.1558,5.1648,5.1858,5.1648,5.1439,5.1199,5.0541,5.0122,4.9912,4.9912,4.9673,4.9284,4.9733,4.9523,4.8925,4.8925,4.8925,4.8925,4.8925,4.8805,4.8596,4.8596,4.8596,4.8596,4.8596,4.8596,4.8596,4.8596,4.8596,4.8596,4.8596,4.8775,4.8925,4.8925,4.9434,4.9912,4.9912,5.0571,5.1259,5.1498,5.2067,5.2576,5.2815,5.3025,5.3054,5.2606,5.1709,5.0672,4.9433,4.8623,4.8024,4.7724,4.5438,4.4273,4.5448,4.375,4.2588,4.2588,4.2005,4.1379,4.0827,4.0275,3.9722,3.9145,3.8768,3.7966,3.6743,3.5781,3.4334,3.2448,3.1788,3.0954,3.0,3.0312,3.0449,0.0,2.2708,2.3803,2.6637,2.8153,2.9459,3.1194,3.2097,3.2727,3.3151,3.3433,3.3404,3.2733,3.3048,3.401,3.5897,3.6967,3.8473,4.098,4.1863,4.2162,4.1773,4.2462,4.309,0.0,0.0,0.0,4.683,4.7997,4.8626,4.8626,4.9494,5.0152,5.0571,5.081,5.1349,5.2187,5.2247,5.2366,5.2546,5.1648,5.1229,5.1199,5.078,5.0601,5.0601,5.0601,5.0361,5.0002,5.0421,5.0212,4.9613,4.9613,4.9613,4.9613,4.9613,4.9763,4.9883,4.9434,4.9254,4.9254,4.9254,4.9254,4.9254,4.9254,4.9254,4.9314,4.9553,4.9793,5.0002,5.0242,5.081,5.1289,5.1289,5.1947,5.2546,5.2546,5.3264,5.3794,5.3136,5.3314,5.3171,5.2428,5.1144,4.9687,4.83,4.7818,4.7577,4.7213,4.5127,4.408,4.4986,4.3873,4.3037,4.3037,4.2861,4.2509,4.1957,4.1404,4.0852,4.03,3.9747,3.886,3.7618,3.6884,3.5386,3.3051,3.2823,3.1851,3.0449,3.0762,3.0898,2.3841,2.5369,2.7053,3.0345,3.1527,3.2289,3.3704,3.4023,3.3848,3.3508,3.3903,3.4143,0.0,0.0,3.3425,3.6058,3.6058,3.6596,3.92,4.0157,4.1055,0.0,0.0,0.0,0.0,0.0,0.0,4.6322,0.0,4.9284,4.9314,5.0571,5.1259,5.1229,5.1887,5.2247,5.2247,5.3563,5.3862,5.3174,5.1887,5.1259,5.1259,5.1229,5.1229,5.1229,5.1229,5.1229,5.1229,5.1229,5.084,5.0301,5.0301,5.0301,5.0301,5.0301,5.069,5.105,4.9823,4.9404,4.9374,4.9374,4.9404,4.9404,4.9404,4.9434,4.9583,5.0212,5.084,5.1468,5.2097,5.2755,5.3264,5.3234,5.3324,5.3384,5.3324,5.4371,5.473,5.3184,5.3403,5.3172,5.0934,4.9666,4.8382,4.6948,4.6724,4.6514,4.591,4.5067,4.4443,4.394,4.4342,4.4644,4.4618,4.4166,4.3639,4.3062,4.2509,4.1957,4.1404,4.0852,4.0551,4.0551,3.8688,3.6881,3.5333,3.3909,3.2477,3.0918,3.0957,3.0957,2.6924,2.8757,3.0278,3.2642,3.3328,3.3628,3.4227,3.4006,3.3476,3.2885,3.2497,3.2228,0.0,0.0,0.0,3.6148,3.7584,0.0,4.1324,4.2611,0.0,4.312,0.0,4.4556,4.4556,4.5903,0.0,0.0,4.8446,4.9494,4.9972,5.1229,5.1738,5.1229,5.2336,5.2935,5.2935,5.3773,5.3862,5.3174,5.2336,5.1947,5.1947,5.1439,5.1229,5.1229,5.1229,5.1229,5.1229,5.1229,5.1109,5.096,5.096,5.096,5.096,5.096,5.1079,5.1229,5.1409,5.1139,5.072,5.072,5.105,5.1439,5.1439,5.1798,5.2217,5.2366,5.2546,5.2725,5.2875,5.3803,5.4551,5.4072,5.5059,5.5957,5.5508,5.5159,5.4807,5.4374,5.347,5.2259,5.0649,5.0031,4.9376,4.7879,4.7637,4.7154,4.5781,4.5027,4.4744,4.502,4.5171,4.5095,4.4669,4.4895,4.4644,4.3664,4.3062,4.2509,4.1957,4.143,4.1128,4.1128,4.0632,3.8912,3.596,3.5846,3.4265,3.1367,3.1699,3.1836,2.9673,3.1253,3.2378,3.4214,3.4677,3.4574,3.4137,3.3754,3.3066,3.1539,3.115,0.0,3.1091,3.1689,0.0,0.0,0.0,0.0,4.1145,4.2611,4.3629,0.0,4.5125,0.0,4.6022,4.707,4.7967,0.0,4.9284,4.9853,5.0212,5.1498,5.2037,5.1648,5.2935,5.3773,5.4042,5.4162,5.4012,5.3623,5.2965,5.2636,5.2606,5.2247,5.1917,5.1648,0.0,5.1498,5.1229,5.1528,5.1468,5.1289,5.1858,5.1738,5.1259,5.1528,5.1648,5.1708,5.2067,5.2157,5.2067,5.2067,5.2336,5.2636,5.2636,5.2875,5.3234,5.3563,5.3623,5.3773,5.4341,5.5059,5.5598,5.5508,5.5738,5.5995,5.5642,5.4806,5.3979,5.3323,5.1927,5.0443,4.936,4.9212,4.8846,4.8032,4.7908,4.7581,4.6677,4.6276,4.5999,4.5874,4.6075,4.5974,4.5397,4.5673,4.5472,4.4593,4.4242,4.3815,4.3263,4.2484,4.2057,4.2057,4.0879,3.899,3.6341,3.5923,3.4316,3.1816,3.2051,3.2168,3.1985,3.3071,3.3842,3.5145,3.5429,3.5011,3.354,3.3093,3.2229,2.9822,0.0,3.0004,3.0182,3.0416,3.1692,3.4822,0.0,3.6985,4.0098,4.1743,4.3299,4.5095,4.5992,4.692,4.8177,4.8356,4.8955,5.0272,5.0361,5.0421,5.0481,5.1648,5.2366,5.2456,5.3593,5.4521,5.5179,5.461,5.4341,5.4341,5.3653,5.3324,5.3324,5.3234,5.2875,5.2336,5.2336,5.2007,5.1528,5.2097,5.2007,5.1588,5.2725,5.2486,5.1558,5.2127,5.2336,5.2336,5.2426,5.2845,5.3294,5.3204,5.3234,5.3324,5.3324,5.3443,5.3713,5.4311,5.4521,5.485,5.5987,5.6376,5.6526,5.7004,5.6094,5.5065,5.4979,5.4063,5.2788,5.1355,4.9948,4.8862,4.8435,4.836,4.836,4.836,4.8284,4.8234,4.8234,4.8058,4.7556,4.6627,4.6954,4.7054,4.6552,4.6527,4.625,4.5623,4.5598,4.5296,4.4644,4.3714,4.3162,4.3087,4.0668,3.8521,3.6857,3.5361,3.3858,3.2246,3.2305,3.2363,3.371,3.4609,3.5145,3.5394,3.507,3.4166,3.2182,3.0921,0.0,0.0,2.7398,2.7426,2.8408,3.0033,3.197,3.4097,3.6369,3.8661,4.0905,4.2791,4.4317,0.0,4.6381,4.7429,4.8207,4.8775,0.0,0.0,5.105,5.1289,5.1828,5.2606,5.3264,5.3832,5.4102,5.4521,5.5179,5.5089,5.5029,5.4999,5.4341,5.4042,5.4012,5.3443,5.3114,5.3025,5.3025,0.0,5.2845,5.2965,5.2935,5.2875,5.3084,5.3054,5.2845,5.2965,5.3025,5.3084,5.3653,5.3952,5.3952,5.3354,5.3563,5.4042,5.4042,5.479,5.5688,5.5807,5.6196,5.6645,5.6885,5.7363,5.7663,5.7214,5.677,5.6246,5.5616,5.3779,5.1838,5.0767,5.0247,5.0243,5.0619,5.0695,5.0695,5.0695,5.0293,4.9992,4.9992,4.8761,4.7832,4.7657,4.7707,4.7732,4.7631,4.7631,4.7205,4.6225,4.6175,4.5698,4.4669,4.4443,4.4116,4.3664,4.2224,4.0152,3.7488,3.6517,3.4943,3.2695,3.3047,3.3398,3.4678,3.525,3.5519,3.5519,3.4456,3.2952,3.1264,0.0,0.0,0.0,2.6076,2.627,2.746,2.8797,0.0,3.3244,3.5069,3.7345,4.0412,4.2282,4.3808,4.5125,4.677,4.8087,0.0,4.9404,5.0331,5.1618,5.2037,5.2366,5.2695,5.3354,5.4012,5.47,5.473,5.488,5.5179,5.5179,5.5179,5.5179,5.488,5.473,5.47,5.4371,5.4042,5.3713,5.3713,0.0,5.3204,5.3563,5.3503,5.3264,5.3952,5.3803,5.3234,5.3593,5.3713,5.3773,5.4102,5.4431,5.467,5.4341,5.4461,5.479,5.5119,5.5658,5.6256,5.6555,5.6855,5.7184,5.7543,5.7872,5.7988,5.7525,5.6191,5.4731,5.3632,5.245,5.1536,5.0927,5.087,5.0946,5.1222,5.1272,5.1272,5.1272,5.1046,5.087,5.087,5.0167,4.9339,4.846,4.836,4.8234,4.7933,4.7908,4.7682,4.7179,4.7129,4.6778,4.5974,4.5648,4.5246,4.4694,4.2185,4.0099,3.8649,3.6541,3.4932,3.3789,3.3984,3.4199,3.516,3.5519,3.5424,3.5198,3.3686,3.1777,3.0192,2.8316,0.0,0.0,2.4881,2.526,2.6451,2.74,2.908,0.0,3.3609,3.5653,3.9845,4.1534,4.309,0.0,4.695,0.0,4.9194,4.9733,0.0,5.2097,5.2935,5.3384,5.3384,5.4042,5.4581,5.497,5.5119,5.5179,5.5179,5.5179,5.5179,5.5179,5.5179,5.5179,5.5179,5.5179,5.491,5.4431,5.4431,0.0,0.0,5.4192,5.4102,5.3713,5.479,5.4551,5.3683,5.4221,5.4431,5.4431,5.4431,5.476,5.5209,5.5359,5.5388,5.5508,5.6017,5.6376,5.6705,5.7184,5.7513,5.7842,5.8411,5.8405,5.7937,5.6932,5.5087,5.3217,5.1646,5.1272,5.1322,5.1448,5.1448,5.1498,5.1599,5.1624,5.1624,5.1624,5.1523,5.1448,5.1448,5.1348,5.077,4.9439,4.9314,4.9063,4.8485,4.8435,4.8385,4.8284,4.8159,4.7857,4.733,4.6878,4.6401,4.5849,4.214,4.0083,3.9859,3.648,3.4805,3.4707,3.4707,3.4746,3.531,3.5519,3.5294,3.438,3.2789,3.0917,2.8655,0.0,2.5018,2.3586,2.3305,2.3659,2.4798,2.6242,2.8255,0.0,0.0,3.5653,3.9845,4.1534,4.309,4.5065,0.0,0.0,4.9134,4.9314,5.0152,5.2067,5.3384,5.4132,5.4132,5.473,5.485,5.4311,5.488,5.5179,5.5179,5.5179,5.5179,5.5179,5.5179,5.5179,5.5179,5.5179,5.5149,5.5089,5.5089,0.0,0.0,5.5059,5.5059,5.5029,5.5149,5.5119,5.4999,5.5089,5.5089,5.5089,5.5089,5.5149,5.5299,5.5897,5.6077,5.6107,5.6166,5.7004,5.7962,5.8022,5.889,5.9817,5.9877,5.9232,5.7762,5.471,5.3779,5.3217,5.1646,5.1272,5.1423,5.1925,5.2026,5.2176,5.2678,5.2779,5.2779,5.2779,5.2352,5.2026,5.2026,5.1599,5.1222,5.1071,5.1046,5.082,5.0243,5.0193,4.9967,4.9464,4.8962,4.8435,4.7857,4.7782,4.7506,4.7004,4.3542,4.1399,4.0374,3.6971,3.5117,3.4707,3.4707,3.4922,3.4502,3.519,3.5294,3.4245,3.2054,2.975,2.8222,0.0,2.3799,2.3236,2.3065,2.3416,2.4607,2.5307,2.6909,3.077,3.1517,3.3303,3.7912,3.9379,4.0995,4.3778,4.5992,0.0,0.0,0.0,4.9852,5.1403,5.3614,5.479,5.479,5.5029,5.5059,5.482,5.5059,5.5179,5.5179,5.5179,5.5179,5.5179,5.5179,5.5179,5.5179,5.5179,5.5418,5.5777,5.5777,0.0,0.0,5.5777,5.5538,5.5179,5.5179,5.5179,5.5179,5.5179,5.5448,5.5718,5.5329,5.5688,5.6316,5.6196,5.6705,5.7334,5.7334,5.7723,5.8291,5.9069,5.9668,5.9926,5.9354,5.7598,5.5735,5.449,5.3633,5.3011,5.2387,5.2277,5.2327,5.2553,5.2603,5.2678,5.2879,5.2929,5.2929,5.2929,5.2729,5.2603,5.2603,5.2402,5.2151,5.1825,5.1473,5.1197,5.0946,5.0946,5.0845,5.0619,5.0393,5.0017,4.9439,4.9088,4.8128,4.6518,4.3686,4.1617,4.0188,3.7455,3.6191,3.625,3.5996,3.6113,3.3028,3.412,3.4508,3.3277,3.086,2.8566,0.0,0.0,2.3065,2.3065,2.3065,2.3366,2.4406,2.4707,2.609,3.0097,3.046,3.1962,3.6752,3.7973,3.9469,4.2402,0.0,4.6591,0.0,4.941,5.0242,5.132,5.3218,5.4491,5.488,5.47,5.479,5.5179,5.5179,5.5179,5.5179,5.5179,5.5179,5.5179,5.5179,5.5179,5.5179,5.5179,5.5538,5.6166,5.5957,0.0,0.0,5.5957,5.5598,5.5179,5.5179,5.5179,5.5209,5.5418,5.5658,5.5867,5.5777,5.6226,5.6825,5.6765,5.7363,5.8201,5.859,5.871,5.889,5.9817,5.9993,5.9589,5.8001,5.6133,5.4603,5.4103,5.3394,5.2929,5.2929,5.2929,5.2929,5.2929,5.2929,5.2929,5.2929,5.2929,5.2929,5.2929,5.2929,5.2929,5.2929,5.2929,5.2779,5.2402,5.2,5.1699,5.1548,5.1523,5.1523,5.1523,5.1373,5.1096,5.0695,5.0293,4.901,4.6537,4.4249,4.2188,4.0171,3.8006,3.7012,3.7285,3.6992,3.7012,3.0852,3.2105,3.2652,3.0851,2.9167,2.7512,0.0,0.0,2.3065,2.3065,2.3065,2.3326,2.3904,2.4456,2.5962,2.9545,3.0609,3.2472,3.6811,3.7973,3.914,0.0,0.0,4.3718,4.701,4.9673,5.1498,5.2157,5.2217,0.0,5.4162,5.3563,5.3803,5.5149,5.5179,5.5179,5.5179,5.5179,5.5179,5.5179,5.5179,5.5179,5.5179,5.5179,5.5538,5.6137,0.0,0.0,0.0,5.5478,5.5209,5.5179,5.5179,5.5179,5.5269,5.5927,5.5748,5.5388,5.6645,5.6675,5.6406,5.7693,5.8112,5.8381,5.9668,6.0057,6.0057,6.0086,5.9795,5.8924,5.6149,5.5393,5.4916,5.3291,5.2929,5.2929,5.2929,5.2929,5.2929,5.2929,5.2929,5.2929,5.2929,5.2929,5.2929,5.2929,5.2929,5.2929,5.2929,5.2929,5.2929,5.2929,5.2904,5.2678,5.2151,5.2101,5.2101,5.2101,5.1574,5.1272,5.1272,5.1272,5.0147,4.7742,4.5415,4.3139,4.0654,3.8447,3.7285,3.7305,3.7285,3.7285,2.7769,2.9056,2.9625,2.7921,2.6614,2.5335,2.4202,2.2776,2.1812,2.2455,2.2431,2.2604,2.3754,2.413,2.5358,2.8638,2.9855,3.1481,0.0,0.0,0.0,4.1205,4.4766,4.7554,0.0,0.0,5.1565,5.0865,5.2091,5.3054,5.3473,5.3743,5.4281,5.5149,5.476,5.473,5.5179,5.5179,5.5179,5.5179,5.5179,5.5179,5.5179,5.5179,5.5538,0.0,0.0,0.0,0.0,5.5957,5.5598,5.5179,5.5179,5.5478,5.5897,5.6107,5.6615,5.7184,5.7124,5.7573,5.8171,5.8141,5.874,5.9458,5.9428,5.8896,5.8348,5.8013,5.7314,5.6455,5.563,5.4541,5.3563,5.3067,5.2929,5.2929,5.2929,5.2929,5.2929,5.2929,5.2929,5.2929,5.2929,5.2929,5.2929,5.2929,5.2929,5.2929,5.2929,5.2929,5.2929,5.2929,5.2929,5.2854,5.2678,5.2678,5.2678,5.2678,5.2503,5.2402,5.2402,5.0725,4.8867,4.6859,4.4354,4.2039,3.9625,3.8649,3.8008,3.7734,3.8027,3.8164,0.0,2.616,2.7023,2.5712,2.4666,0.0,0.0,2.1523,2.089,2.1284,2.1536,2.1944,2.2996,2.3816,2.5231,2.8115,2.958,0.0,0.0,0.0,0.0,4.1863,0.0,0.0,0.0,5.0639,5.1512,5.0613,5.1706,5.2546,5.2785,5.2995,5.3623,5.479,5.467,5.467,5.482,5.5059,5.5179,5.5179,5.5179,5.5179,5.5179,5.5179,5.5538,0.0,0.0,0.0,0.0,5.5897,5.5568,5.5209,5.5478,5.5807,5.6226,5.6735,5.7274,5.7752,5.7812,5.8231,5.871,5.853,5.8902,5.9291,5.8286,5.7974,5.7705,5.6718,5.5912,5.5287,5.4675,5.3674,5.2929,5.2929,5.2929,5.2929,5.2929,5.2929,5.2929,5.2929,5.2929,5.2929,5.2929,5.2929,5.2929,5.2929,5.2929,5.2929,5.2929,5.2929,5.2929,5.2929,5.2929,5.2929,5.2929,5.2929,5.2929,5.2929,5.2929,5.2629,5.1886,5.0239,4.8071,4.5296,4.3699,4.1744,3.9453,3.9199,3.8926,3.8672,3.8945,3.9082,0.0,0.0,0.0,0.0,0.0,0.0,0.0,0.0,0.0,2.0,2.0647,2.1451,2.2002,2.355,2.5537,2.7872,2.9767,0.0,0.0,3.6828,0.0,0.0,4.5873,0.0,4.8297,5.0092,5.1229,5.1229,5.1229,5.1498,5.2097,5.1588,5.2127,5.3952,5.467,5.479,5.4281,5.488,5.5179,5.5179,5.5179,5.5179,5.5179,5.5179,5.5538,0.0,0.0,0.0,0.0,5.5448,5.5209,5.5329,5.5867,5.6196,5.6436,5.7633,5.7693,5.7423,5.868,5.871,5.8291,5.8841,5.8683,5.7933,5.6426,5.6968,5.7853,5.5755,5.5155,5.4916,5.3291,5.2929,5.2929,5.2929,5.2929,5.2929,5.2929,5.2929,5.2929,5.2929,5.2929,5.2929,5.2929,5.2929,5.2929,5.2929,5.2929,5.2929,5.2929,5.2955,5.298,5.2929,5.2955,5.298,5.2929,5.2929,5.2929,5.2929,5.2929,5.205,5.0103,4.9819,4.7843,4.3615,4.3446,4.2215,3.9941,3.9902,3.9902,3.9902,3.9902,3.9902,0.0,0.0,0.0,0.0,0.0,0.0,0.0,0.0,0.0,0.0,0.0,2.2246,2.385,2.4154,2.5037,2.7747,0.0,3.0992,3.2804,0.0,0.0,4.5933,4.7818,4.8865,4.9015,5.0361,5.1229,5.1229,5.1229,5.1289,5.1439,5.1768,5.1947,5.1917,5.3054,5.4072,5.494,5.5119,5.5179,5.5179,5.5179,5.5179,5.5179,5.5179,5.5269,0.0,0.0,0.0,5.5418,5.5239,5.5478,5.5897,5.5568,5.6346,5.7633,5.7423,5.7872,5.868,5.9009,5.9009,5.8733,5.819,5.7165,5.5871,5.5068,5.5532,5.5702,5.3978,5.3563,5.3427,5.3042,5.2929,5.2929,5.2929,5.2929,5.2929,5.2929,5.2929,5.2929,5.2929,5.2929,5.2929,5.2929,5.2929,5.2929,5.2929,5.2929,5.2929,5.2929,5.3281,5.3356,5.298,5.3281,5.3356,5.2955,5.2929,5.2929,5.2929,5.2929,5.205,5.0103,4.8506,4.6544,4.4079,4.215,4.0907,4.0371,4.0059,3.9902,3.9902,3.9902,3.9902,0.0,0.0,0.0,0.0,0.0,0.0,0.0,0.0,0.0,0.0,0.0,2.2015,2.357,2.4126,0.0,0.0,2.9631,0.0,0.0,0.0,4.2851,4.683,4.8207,4.8865,0.0,4.9434,4.9772,4.9328,4.9706,4.9993,5.0287,5.1244,5.1738,5.1678,5.2366,5.3234,5.4251,5.4581,5.491,5.5179,5.5179,5.5179,5.5179,5.5179,5.5179,0.0,0.0,0.0,5.5179,5.5179,5.5598,5.6166,5.6107,5.6705,5.7693,5.7932,5.8291,5.871,5.9009,5.8634,5.7863,5.6536,5.5455,5.444,5.4224,5.4131,5.4055,5.3179,5.2929,5.2929,5.2929,5.2929,5.2929,5.2929,5.2929,5.2929,5.2929,5.2929,5.2929,5.2929,5.2929,5.2929,5.2929,5.2929,5.3005,5.3256,5.308,5.3105,5.3607,5.3482,5.3331,5.3281,5.3331,5.3231,5.2955,5.2929,5.2929,5.2929,5.2929,5.1607,4.8794,4.7636,4.5723,4.2769,4.1535,4.082,4.082,4.0586,4.0488,4.0488,4.0488,4.0488,0.0,0.0,0.0,0.0,0.0,0.0,0.0,0.0,0.0,0.0,0.0,0.0,0.0,2.4335,0.0,0.0,0.0,0.0,3.9996,4.1414,4.315,4.6741,4.7818,0.0,4.7788,4.7952,4.784,4.7031,4.7617,4.8402,4.9133,5.0287,5.128,5.2037,5.2067,5.2366,5.3025,5.3803,5.4551,5.5179,5.5179,5.5179,5.5179,5.5179,5.5179,5.5179,0.0,0.0,5.5179,5.5179,5.5598,5.6226,5.6645,5.6915,5.7244,5.8381,5.8501,5.8201,5.8644,5.7552,5.5791,5.4616,5.3707,5.3217,5.3321,5.31,5.2929,5.2929,5.2929,5.2929,5.2929,5.2929,5.2929,5.2929,5.2929,5.2929,5.2929,5.2929,5.2929,5.2929,5.2929,5.2955,5.303,5.298,5.313,5.3733,5.3381,5.3406,5.4436,5.3833,5.3432,5.3808,5.3507,5.3281,5.3181,5.3105,5.3055,5.3055,5.2679,5.0717,4.6735,4.6293,4.4548,4.1327,4.1172,4.1172,4.1172,4.1172,4.1172,4.1172,4.1172,4.1172,1.8161,1.9058,1.95,1.8379,1.7256,0.0,0.0,0.0,0.0,0.0,0.0,0.0,0.0,2.6359,2.8225,0.0,0.0,3.8335,0.0,0.0,4.4526,4.6262,0.0,4.7644,4.597,4.6893,4.7184,4.6495,4.6567,4.739,4.9133,4.9357,5.0028,5.1255,5.1379,5.1678,5.2336,5.3593,5.4551,5.5179,5.5179,5.5179,5.5179,5.5179,5.5179,5.5179,0.0,5.5179,5.5179,5.5179,5.5598,5.6137,5.5658,5.6137,5.7124,5.7334,5.7693,5.7988,5.7319,5.5182,5.278,5.2917,5.2438,5.1747,5.2202,5.2538,5.2929,5.2929,5.2929,5.2929,5.2929,5.2929,5.2929,5.2929,5.2929,5.2929,5.2929,5.2929,5.2929,5.2929,5.2929,5.3055,5.3507,5.3231,5.3281,5.4285,5.3959,5.3808,5.4486,5.4813,5.4863,5.4486,5.4787,5.4813,5.4361,5.3858,5.3582,5.3582,5.1547,4.865,4.4677,4.2922,4.1753,4.1172,4.1172,4.1172,4.1172,4.1172,4.1172,4.1172,4.1172,4.1172,1.7898,1.8578,1.9004,1.834,0.0,1.7584,1.7904,0.0,0.0,0.0,0.0,0.0,0.0,0.0,3.0131,3.3862,0.0,4.066,4.2981,4.3898,4.4825,0.0,0.0,4.6243,4.495,4.4788,4.4484,4.3676,4.4323,4.5586,4.7503,4.8665,4.9776,5.1135,5.1229,5.1528,5.2187,5.2815,5.3653,5.467,5.467,5.485,5.5179,5.5179,5.5179,5.5179,0.0,5.5179,5.5179,5.5179,5.5598,5.6137,5.5837,5.6286,5.7124,5.7513,5.7487,5.7173,5.5936,5.3882,5.1944,5.1562,5.1427,5.1398,5.195,5.2477,5.2929,5.2929,5.2929,5.2929,5.2929,5.2929,5.2929,5.2929,5.2929,5.2929,5.2929,5.3155,5.3356,5.3356,5.3607,5.3884,5.4135,5.3959,5.4084,5.4888,5.4536,5.4486,5.534,5.5164,5.4963,5.5013,5.4963,5.4838,5.4587,5.4336,5.3587,5.2083,4.965,4.7141,4.4584,4.2316,4.1172,4.1172,4.1172,4.1172,4.1172,4.1172,4.1172,4.1172,4.1172,4.1172,1.7742,1.8258,1.8638,0.0,0.0,1.8799,1.9512,0.0,0.0,0.0,0.0,0.0,0.0,2.9353,0.0,3.7259,4.0262,4.2521,4.3838,4.4616,4.5394,4.6441,4.5844,4.5011,4.4235,4.3022,4.2006,4.121,4.2265,4.388,4.6183,4.78,4.9455,5.1105,5.1229,5.1468,5.1977,5.1977,5.2725,5.4221,5.4042,5.4401,5.5179,5.5029,5.5029,5.5179,5.5179,5.5179,5.5179,5.5179,5.5478,5.5957,5.5957,5.6406,5.7184,5.7416,5.6887,5.5907,5.4386,5.2822,5.1372,5.076,5.0921,5.1398,5.2101,5.2578,5.2929,5.2929,5.2929,5.2929,5.2929,5.2929,5.2929,5.2929,5.2929,5.2955,5.308,5.3406,5.3733,5.3884,5.426,5.4612,5.4737,5.4637,5.4787,5.5491,5.5114,5.5114,5.6093,5.5465,5.5164,5.5717,5.529,5.4745,5.4166,5.3998,5.2743,4.9785,4.7656,4.5858,4.4153,4.2226,4.1328,4.1328,4.123,4.123,4.1328,4.123,4.1172,4.1172,4.1172,4.1172,1.7431,1.8258,1.8725,1.8933,1.8632,0.0,1.9636,2.033,0.0,2.3685,0.0,0.0,0.0,3.2514,3.6707,3.9698,4.2354,4.4586,4.5933,0.0,4.713,4.7219,4.6137,4.4932,4.3654,4.2431,4.1331,4.0631,4.1134,4.2891,4.6183,4.6865,4.8439,5.1105,5.1229,5.1229,5.1289,5.1289,5.2276,5.4192,5.3563,5.3922,5.5179,5.4551,5.461,5.5179,5.5179,5.5179,5.5179,5.5179,5.5209,5.5269,5.5269,5.6017,5.6944,5.6246,5.5253,5.4386,5.27,5.1142,4.9895,5.087,5.1247,5.1473,5.2553,5.2904,5.2929,5.2929,5.2929,5.2929,5.2929,5.2929,5.2929,5.2929,5.2929,5.3055,5.3532,5.3683,5.3858,5.4411,5.4536,5.4737,5.5239,5.4913,5.4938,5.5993,5.5691,5.5541,5.6143,5.6143,5.6294,5.6846,5.642,5.5113,5.2612,5.2416,5.07,4.6541,4.5806,4.4473,4.2112,4.1935,4.1758,4.1758,4.1367,4.1367,4.1758,4.1367,4.1172,4.1172,4.1172,4.1172,1.6926,1.7855,1.8815,1.9226,2.0072,0.0,0.0,2.2394,2.3831,2.5783,2.7359,0.0,0.0,0.0,3.7003,4.0442,4.288,4.4796,4.6142,4.689,4.7019,4.6255,4.5024,4.3693,4.2447,4.1119,4.0262,3.9973,4.0526,4.2087,4.5078,4.6117,4.7871,5.0508,5.102,5.1229,5.1229,5.1229,5.1798,5.2965,5.3114,5.3683,5.4581,5.476,5.497,5.5179,5.5179,5.5179,5.5179,5.5179,5.5179,5.5269,5.6047,5.6944,5.757,5.6718,5.5478,5.4149,5.2578,5.0916,4.9791,5.0921,5.1272,5.1498,5.2578,5.2929,5.2929,5.2929,5.2929,5.2929,5.2929,5.2929,5.2929,5.2929,5.2929,5.308,5.3582,5.3984,5.4411,5.4963,5.5365,5.5641,5.5867,5.5717,5.5742,5.6143,5.6319,5.6369,5.6219,5.6821,5.7198,5.7047,5.7173,5.6227,5.3966,5.2233,5.0165,4.7196,4.5911,4.4646,4.2758,4.209,4.1933,4.2187,4.1523,4.1387,4.1797,4.1387,4.1172,4.1172,4.1172,4.1172,1.6537,1.7355,1.8384,0.0,0.0,0.0,2.3175,2.4506,2.6063,2.772,2.9602,0.0,0.0,0.0,0.0,0.0,4.306,4.5035,4.6172,4.689,4.6814,4.5598,4.4256,4.3026,4.169,4.0465,3.9697,3.9697,4.0199,4.1672,4.4387,4.5453,4.7218,4.9821,5.0571,5.09,5.09,5.1109,5.1439,5.1887,5.2755,5.3533,5.4221,5.467,5.4999,5.5179,5.5179,5.5179,5.5179,5.5179,5.5179,5.5329,5.6585,5.7047,5.6986,5.6193,5.4976,5.3429,5.1741,5.0563,4.9791,5.0921,5.1272,5.1498,5.2578,5.2929,5.2929,5.2929,5.2929,5.2929,5.2929,5.2929,5.2929,5.2929,5.2929,5.313,5.3833,5.4285,5.4787,5.5516,5.6093,5.642,5.6244,5.6369,5.647,5.647,5.6796,5.6972,5.6771,5.7424,5.775,5.7349,5.7826,5.6939,5.3866,5.1945,4.9789,4.6783,4.5594,4.4462,4.3229,4.2519,4.2344,4.2637,4.1933,4.1777,4.2207,4.1777,4.1562,4.1562,4.1562,4.1562,1.6308,1.6916,0.0,0.0,0.0,0.0,2.5109,2.649,2.777,2.9478,0.0,3.3723,3.4823,0.0,0.0,4.0277,4.315,4.5514,4.6232,4.689,4.6814,4.5479,4.4256,4.3026,4.169,4.0465,3.9697,3.9697,4.0199,4.1672,4.4387,4.4967,4.6469,4.9254,4.9883,5.0242,5.0242,5.09,5.1199,5.1229,5.2546,5.3533,5.4192,5.4221,5.4581,5.5179,5.5179,5.5179,5.5179,5.5209,5.5209,5.5329,5.6615,5.622,5.4787,5.453,5.3429,5.1741,5.0206,4.959,4.9791,5.0921,5.1272,5.1498,5.2578,5.2929,5.2929,5.2929,5.2929,5.2929,5.2929,5.2929,5.2929,5.2929,5.2929,5.3231,5.4336,5.4561,5.4888,5.5993,5.6646,5.6872,5.6319,5.6671,5.7047,5.7047,5.7047,5.7248,5.7851,5.7901,5.7901,5.7901,5.8403,5.6716,5.183,5.1465,4.9329,4.4769,4.4394,4.4004,4.3125,4.3086,4.3086,4.3086,4.2656,4.2637,4.3086,4.2637,4.2422,4.2422,4.2422,4.2422,1.6454,1.6994,0.0,2.0241,0.0,0.0,0.0,2.7344,0.0,0.0,3.2384,3.3549,3.4946,0.0,0.0,4.0203,4.2372,4.4317,4.5454,4.6172,4.5932,4.4293,4.3693,4.2641,4.0465,3.9878,3.9697,3.9697,3.9848,4.1103,4.3684,4.4429,4.5941,4.8477,4.9224,4.9763,5.0242,5.0421,5.075,5.1229,5.2067,5.2845,5.3503,5.4461,5.4999,5.5179,5.5179,5.5179,5.5239,5.5688,5.6436,5.7304,5.7663,5.7163,5.5992,5.4837,5.3429,5.1741,5.0206,4.959,4.9791,5.0921,5.1272,5.1498,5.2578,5.2929,5.2929,5.2929,5.2929,5.2929,5.2929,5.2929,5.2929,5.2929,5.2929,5.3231,5.4336,5.4561,5.4888,5.5993,5.6646,5.6972,5.6821,5.7273,5.765,5.765,5.7976,5.8403,5.8956,5.8704,5.8629,5.8981,5.7712,5.5771,5.2659,5.0709,4.8526,4.5464,4.4726,4.4141,4.3555,4.3242,4.3223,4.3516,4.2793,4.2637,4.3086,4.2637,4.2422,4.2422,4.2422,4.2422,1.5924,1.673,0.0,2.0427,2.2675,2.4958,2.7394,0.0,0.0,0.0,0.0,3.4299,3.5655,3.7613,0.0,4.0263,4.2282,4.3988,4.4796,4.5119,4.4589,4.3009,4.2535,4.1639,3.955,3.9572,3.9697,3.9697,4.016,4.1319,4.3409,4.4311,4.578,4.782,4.8536,4.9075,4.9464,4.9972,5.0421,5.084,5.1768,5.2396,5.2845,5.4192,5.494,5.5179,5.5179,5.5179,5.5209,5.5628,5.6256,5.687,5.6551,5.5881,5.4826,5.3563,5.2269,5.0916,4.995,4.959,4.9791,5.0921,5.1272,5.1498,5.2578,5.2929,5.2929,5.2929,5.2929,5.2929,5.2929,5.2929,5.2929,5.2929,5.2929,5.3231,5.4336,5.4561,5.4963,5.6294,5.6796,5.7022,5.7022,5.7524,5.7901,5.7901,5.8554,5.9131,5.9458,5.9232,5.9156,5.9458,5.7534,5.5228,5.3086,5.0688,4.8161,4.5856,4.5195,4.4707,4.4258,4.3652,4.3535,4.3965,4.3476,4.334,4.3594,4.3496,4.3379,4.3203,4.3203,4.3105,1.5284,0.0,0.0,2.0296,2.3025,0.0,2.8547,3.0388,3.1996,3.4117,0.0,3.5739,3.6699,3.887,4.0487,4.0487,4.2581,4.4146,4.4124,4.3767,4.2993,4.1681,4.1086,4.0181,3.8995,3.9295,3.9622,3.9622,4.0818,4.2181,4.3409,4.472,4.5958,4.7309,4.7878,4.8237,4.8297,4.9523,5.0182,5.0242,5.1498,5.2127,5.2247,5.3593,5.4581,5.5179,5.5179,5.5209,5.5269,5.5167,5.5096,5.5083,5.4255,5.3274,5.224,5.1563,5.0576,4.959,4.959,4.9615,4.9841,5.0921,5.1322,5.1548,5.2603,5.2929,5.2929,5.2929,5.2929,5.2929,5.2929,5.2929,5.2929,5.2929,5.2929,5.3206,5.426,5.4536,5.5039,5.657,5.6972,5.7022,5.7022,5.7549,5.8001,5.8027,5.888,5.9483,5.9483,5.9483,5.9483,5.9483,5.7352,5.5043,5.3086,5.061,4.8298,4.5915,4.5703,4.5508,4.5156,4.4297,4.4023,4.4453,4.4453,4.4453,4.4453,4.4844,4.4824,4.4453,4.4453,4.4238,1.6806,1.745,0.0,0.0,2.5034,2.8088,3.0722,3.1602,3.2123,3.3172,3.5002,3.671,3.7451,3.9547,4.1175,4.1175,4.2521,4.3367,4.2986,4.2907,4.2219,4.0521,4.0145,3.9581,3.829,3.8718,3.9044,3.9044,4.0685,4.2181,4.3409,4.472,4.5958,4.7309,4.7429,4.7758,4.8267,4.9075,4.9733,5.0242,5.105,5.1708,5.2247,5.3593,5.4581,5.5179,5.5179,5.5478,5.5854,5.4697,5.4536,5.4844,5.398,5.2678,5.1469,5.1689,5.0913,4.959,4.959,4.9866,5.0368,5.1046,5.1574,5.2051,5.2729,5.2929,5.2929,5.2929,5.2929,5.2929,5.2929,5.2929,5.2929,5.2929,5.2929,5.3105,5.3758,5.4235,5.4787,5.5591,5.6445,5.7022,5.7022,5.7876,5.8679,5.9081,5.9332,5.9483,5.9483,5.9483,5.9483,5.9483,5.6032,5.3415,5.2921,4.9297,4.6753,4.6172,4.5859,4.5781,4.6016,4.5195,4.4785,4.4883,4.4883,4.4883,4.4883,4.498,4.498,4.4883,4.4883,4.4844,1.6365,0.0,0.0,2.3876,0.0,2.9918,3.1863,3.2627,3.3183,3.379,3.5215,3.6531,3.7238,3.9047,4.0398,4.0212,4.1175,4.1762,4.0972,4.0656,4.0083,3.9137,3.8799,3.8338,3.7711,3.8115,3.8567,3.8843,4.0374,4.1887,4.3381,4.472,4.5958,4.7309,4.7309,4.7459,4.7818,4.8476,4.9134,4.9793,5.0451,5.0852,5.1317,5.3298,5.4401,5.473,5.4288,5.4377,5.4567,5.2966,5.2594,5.2823,5.1582,5.0907,5.0627,5.0208,4.9849,4.959,4.959,4.9791,5.0167,5.0996,5.1473,5.1875,5.2678,5.2929,5.2929,5.2929,5.2929,5.2929,5.2929,5.2929,5.2929,5.2929,5.2929,5.308,5.3582,5.416,5.4813,5.5616,5.6244,5.6821,5.7349,5.8152,5.8905,5.9408,5.9483,5.9483,5.9483,5.9483,5.9173,5.8031,5.4905,5.2425,5.1449,4.829,4.6308,4.6308,4.6094,4.6074,4.6289,4.5879,4.5547,4.5332,4.5332,4.5332,4.5332,4.5547,4.5527,4.5332,4.4071,4.4148,1.5643,0.0,2.0877,2.5722,2.8709,0.0,3.2361,3.3293,3.4041,3.4882,3.5549,3.6143,3.672,3.8077,3.9003,3.8601,3.9476,3.981,3.8723,3.8202,3.7859,3.7703,3.7322,3.7036,3.7036,3.7538,3.8065,3.8542,3.9881,4.1309,4.2931,4.4486,4.5752,4.6931,4.7222,4.7309,4.7309,4.7967,4.8566,4.9105,4.955,4.9787,4.9952,5.2071,5.3177,5.3314,5.274,5.2472,5.2366,5.0906,5.0268,5.0157,4.8753,4.8826,4.9541,4.8455,4.8636,4.9464,4.9565,4.9665,4.9916,5.0946,5.1348,5.1599,5.2628,5.2929,5.2929,5.2929,5.2929,5.2929,5.2929,5.2929,5.2929,5.2929,5.2929,5.3055,5.3482,5.4084,5.4838,5.5742,5.6168,5.6671,5.7725,5.8353,5.8905,5.9408,5.9483,5.9483,5.9483,5.9173,5.8187,5.6399,5.3906,5.1594,4.9786,4.7641,4.6308,4.6308,4.6308,4.6308,4.6308,4.6308,4.6133,4.5781,4.5781,4.5781,4.5781,4.6133,4.6133,4.5781,4.3772,4.3603,0.0,0.0,2.3345,0.0,2.766,2.973,0.0,0.0,3.3636,0.0,3.5948,3.6517,3.678,3.7457,3.7863,3.7442,3.8059,3.8173,3.7016,3.7175,3.7011,3.5999,3.6225,3.6458,3.6458,3.696,3.7337,3.7412,3.9051,4.0314,4.109,4.3378,4.502,4.566,4.6726,4.7309,4.7309,4.7967,4.8327,4.8416,4.7984,4.7969,4.8499,4.8324,4.8817,4.9855,5.0122,5.0373,5.0184,4.918,4.8736,4.87,4.7744,4.7349,4.7576,4.8435,4.8761,4.8962,4.9439,4.9916,5.0419,5.1071,5.1599,5.2126,5.2729,5.2929,5.2929,5.2929,5.2929,5.2929,5.2929,5.2929,5.2929,5.2929,5.2929,5.2955,5.3005,5.3833,5.4612,5.4762,5.5942,5.7123,5.7775,5.8353,5.8905,5.9408,5.9483,5.9483,5.9483,5.7873,5.6558,5.6239,5.2425,4.9955,4.9616,4.7641,4.6308,4.6308,4.6308,4.6308,4.6308,4.6308,4.6269,4.623,4.6211,4.6211,4.6211,4.6269,4.6269,4.6211,4.5861,4.5822,1.751,2.0451,2.3548,0.0,2.7768,3.0392,3.2805,0.0,3.4044,3.4559,3.4911,3.5244,3.5697,3.5849,3.5795,3.5384,3.6115,3.6316,3.5166,3.548,3.5788,3.5504,3.5755,3.6031,3.6332,3.6584,3.686,3.7161,3.7942,3.8973,4.0192,4.1327,4.2754,4.4323,4.5347,4.6107,4.6741,4.7399,4.7525,4.7222,4.6595,4.6125,4.5907,4.4863,4.5928,4.8581,4.8654,4.8646,4.8561,4.7626,4.7324,4.7231,4.6793,4.6853,4.7205,4.7682,4.8234,4.8812,4.9063,4.949,5.0092,5.0996,5.1448,5.18,5.2678,5.2929,5.2929,5.2929,5.2929,5.2929,5.2929,5.2929,5.2929,5.2929,5.2929,5.3005,5.3306,5.4009,5.4737,5.5365,5.6319,5.7223,5.7801,5.8353,5.8905,5.9408,5.9483,5.8993,5.7824,5.6981,5.5555,5.2779,5.1015,4.95,4.8157,4.7148,4.666,4.666,4.666,4.6543,4.6308,4.6308,4.6308,4.6308,4.6308,4.6308,4.6308,4.6308,4.5568,4.4277,4.3035,4.2298,0.0,0.0,2.3441,2.4977,2.7741,3.0492,0.0,0.0,3.3667,0.0,3.3488,3.3437,3.3917,3.39,3.3657,3.3406,3.4105,3.4418,3.3758,3.4173,3.4675,3.5077,3.5378,3.5705,3.6107,3.6282,3.6533,3.6935,3.6985,3.7667,3.9138,3.9517,4.0599,4.2608,4.3801,4.4851,4.5865,4.6778,4.6875,4.6109,4.5312,4.4466,4.3755,4.248,4.3691,4.6569,4.6711,4.6673,4.6638,4.6248,4.61,4.6125,4.625,4.6552,4.6954,4.7079,4.7657,4.8385,4.8686,4.9038,4.959,5.087,5.1272,5.1498,5.2578,5.2929,5.2929,5.2929,5.2929,5.2929,5.2929,5.2929,5.2929,5.2929,5.2929,5.3105,5.3783,5.4361,5.5064,5.6018,5.6771,5.7399,5.7826,5.8453,5.8877,5.8632,5.8805,5.8044,5.59,5.5368,5.404,5.0336,4.977,4.8952,4.7268,4.6992,4.6933,4.6933,4.6816,4.6621,4.6308,4.6308,4.6348,4.6465,4.6465,4.6465,4.6465,4.6348,4.5116,4.2928,4.1092,3.9925,0.0,2.1212,0.0,2.4546,2.6739,0.0,0.0,0.0,0.0,3.2918,3.2234,3.1315,3.1368,3.177,3.215,3.2263,3.2349,3.2575,3.3043,3.3596,3.3947,3.3972,3.4901,3.5554,3.5579,3.6056,3.6358,3.6408,3.6408,3.6729,3.7283,3.847,3.9455,4.008,4.243,4.395,4.4644,4.6401,4.6668,4.5446,4.4153,4.3242,4.2466,4.1741,4.1789,4.2612,4.3613,4.4004,4.408,4.507,4.5522,4.5573,4.61,4.6326,4.6426,4.6954,4.7179,4.7355,4.841,4.8786,4.9088,5.0745,5.1272,5.1498,5.2578,5.2929,5.2929,5.2929,5.2929,5.2929,5.2929,5.2929,5.2929,5.2929,5.2929,5.3231,5.4285,5.4963,5.5516,5.6093,5.7097,5.7851,5.7901,5.8755,5.8812,5.6717,5.6828,5.6302,5.3972,5.2196,5.1113,5.0917,4.8888,4.7718,4.7539,4.7168,4.6933,4.6933,4.6562,4.6328,4.6308,4.6308,4.6484,4.6894,4.6894,4.6894,4.6894,4.6504,4.542,4.3556,4.3197,4.1726,0.0,0.0,0.0,2.3779,2.5364,2.713,2.8781,2.9551,3.0102,3.0663,3.0717,3.0624,3.0367,3.0727,3.1105,3.1191,3.1763,3.2164,3.2014,3.2792,3.337,3.337,3.4349,3.5152,3.5504,3.6031,3.6358,3.6358,3.6358,3.6433,3.6659,3.7108,3.7816,3.8714,4.0701,4.3024,4.5664,4.5933,4.5389,4.4163,4.293,4.1908,4.1207,4.1291,4.163,4.2208,4.2936,4.3463,4.3865,4.4618,4.5146,4.5497,4.5698,4.5999,4.6326,4.6527,4.7054,4.7682,4.8083,4.8686,4.9464,5.0419,5.0971,5.1423,5.2176,5.2653,5.2929,5.2929,5.2929,5.2929,5.2929,5.2929,5.3005,5.3356,5.3708,5.4185,5.4938,5.5239,5.5541,5.6118,5.6821,5.7099,5.6342,5.6624,5.6152,5.4372,5.4504,5.3995,5.1636,5.1287,5.0611,4.8969,4.8334,4.7988,4.7988,4.7832,4.7754,4.7754,4.7598,4.7402,4.7129,4.7129,4.7187,4.7344,4.5649,4.5649,4.7344,4.5432,4.3289,4.1374,3.956,3.7443,1.7739,0.0,0.0,0.0,0.0,2.5646,2.7151,0.0,2.8235,2.8559,2.9162,2.9615,2.9555,2.9955,3.0407,3.0583,3.121,3.1612,3.1411,3.219,3.2792,3.2792,3.3771,3.4675,3.5228,3.5755,3.6157,3.6332,3.6358,0.0,3.6358,3.6358,3.7057,3.8649,3.9753,4.1864,4.5309,4.4755,4.3967,4.2834,4.1985,4.1126,4.0249,4.0802,4.1354,4.1907,4.2459,4.3011,4.3564,4.4116,4.4694,4.5221,4.5422,4.5824,4.6326,4.6527,4.7029,4.7707,4.8083,4.8686,4.9439,5.0167,5.082,5.1398,5.195,5.2477,5.2929,5.2929,5.2929,5.2929,5.2929,5.2929,5.3055,5.3582,5.4135,5.4662,5.5039,5.539,5.5672,5.5436,5.583,5.5863,5.4475,5.4461,5.3911,5.2248,5.2418,5.1938,4.9878,5.0224,4.9873,4.8209,4.8262,4.8418,4.8418,4.8281,4.8203,4.8203,4.8066,4.7871,4.7598,4.6819,4.6314,4.6466,4.401,4.3509,4.5538,4.3301,4.1069,3.9101,3.7272,3.5018,0.0,0.0,0.0,0.0,0.0,0.0,2.5472,0.0,2.6038,2.6733,2.749,2.8222,2.8775,2.9377,2.993,3.0482,3.0583,3.0783,3.126,3.1838,3.219,3.219,3.3194,3.4098,3.465,3.5203,3.573,3.6282,3.6332,3.6332,3.6332,3.6358,3.7428,3.9798,3.9392,4.0504,4.3285,4.2929,4.2236,4.1591,4.1591,4.0945,3.9722,4.0275,4.0827,4.1354,4.1907,4.2459,4.3011,4.3564,4.4116,4.4669,4.5246,4.5799,4.6376,4.6928,4.7154,4.7305,4.8385,4.8786,4.8962,5.0042,5.0795,5.1373,5.1925,5.2477,5.2929,5.2929,5.2929,5.2929,5.2929,5.2929,5.3055,5.3607,5.416,5.4561,5.4612,5.5296,5.5584,5.4047,5.4135,5.403,5.2277,5.2444,5.2248,5.0397,5.0513,5.0114,4.8508,4.8594,4.8867,4.8867,4.8867,4.8867,4.8867,4.8476,4.8223,4.8223,4.7851,4.7617,4.7617,4.5166,4.4028,4.4407,4.1747,4.0602,4.1139,4.024,3.8926,3.7282,3.6758,3.5447,1.8431,0.0,0.0,0.0,0.0,0.0,0.0,0.0,0.0,2.5256,2.624,2.7092,2.7645,2.8524,2.9227,2.9377,3.008,3.0532,3.0281,3.1035,3.1612,3.1612,3.2616,3.352,3.4073,3.4625,3.5027,0.0,3.5554,3.578,3.578,3.6132,3.7057,3.8559,3.8937,4.0075,4.2133,4.1637,4.1399,4.1591,4.0642,4.0083,3.9722,4.0275,4.0827,4.1354,4.1907,4.2459,4.2986,4.3137,4.3765,4.4644,4.4794,4.5447,4.6376,4.6928,4.738,4.7807,4.851,4.9038,4.9414,4.9715,5.0494,5.1297,5.1473,5.2176,5.2929,5.2929,5.2929,5.2929,5.2929,5.2929,5.3155,5.411,5.4461,5.4334,5.374,5.3832,5.3774,5.329,5.2767,5.176,5.017,5.0143,4.9933,4.8049,4.8136,4.8414,4.8144,4.8594,4.8867,4.8867,4.8867,4.8867,4.8867,4.875,4.8672,4.8672,4.8574,4.8496,4.8496,4.6002,4.4714,4.4822,4.0414,3.8154,3.8472,3.8025,3.7654,3.7312,3.5267,3.3919,0.0,0.0,0.0,0.0,0.0,0.0,2.3379,2.3186,2.2908,0.0,2.4506,2.5611,2.6163,2.7344,2.8323,2.8549,2.9327,2.988,2.9804,3.0532,3.106,3.106,3.1838,3.2692,3.347,3.3847,3.4223,3.47,3.5228,3.5655,3.5881,3.6182,3.6896,3.8017,3.799,3.8938,4.0881,4.0027,4.0042,4.0844,4.0083,3.9697,3.9697,4.0023,4.0601,4.1354,4.1681,4.2258,4.2986,4.2986,4.3639,4.4618,4.4618,4.5321,4.6401,4.7179,4.7657,4.8033,4.8837,4.9314,4.959,4.959,5.0368,5.1272,5.1272,5.2051,5.2929,5.2929,5.2929,5.2929,5.2929,5.308,5.3457,5.4361,5.4141,5.3473,5.3234,5.1708,5.052,5.0724,5.0428,4.951,4.7894,4.8004,4.8016,4.7287,4.7422,4.7793,4.8398,4.8691,4.8867,4.8867,4.8867,4.8867,4.8867,4.8867,4.8867,4.8867,4.8867,4.8867,4.8867,4.5379,4.3452,4.3452,3.8246,3.5748,3.5762,3.5562,3.5562,3.5564,3.42,3.3414,0.0,0.0,0.0,0.0,0.0,0.0,2.2279,2.1848,2.1272,2.1599,2.2924,2.4155,2.4732,2.6163,2.7444,2.7921,2.8524,2.9126,2.9704,3.0206,3.0557,3.0608,3.1009,3.1712,3.2792,3.2943,3.3395,3.4374,3.5077,3.5705,3.6232,3.6332,3.6896,3.7834,3.6896,3.7432,3.959,3.8579,3.8567,3.9697,3.9697,3.9697,3.9697,3.9697,4.0249,4.1254,4.1304,4.1932,4.2886,4.2961,4.3589,4.4543,4.4593,4.5271,4.6351,4.7481,4.7908,4.8058,4.9188,4.959,4.959,4.959,5.0318,5.1197,5.1272,5.2,5.2854,5.2904,5.2929,5.2929,5.2929,5.3306,5.3833,5.4127,5.3302,5.2309,5.2353,4.9518,4.6832,4.7087,4.7402,4.7233,4.5871,4.5996,4.6582,4.7383,4.75,4.7793,4.8613,4.875,4.8789,4.8789,4.8828,4.8867,4.8867,4.8867,4.8867,4.8867,4.8867,4.8867,4.8867,4.3849,4.1156,4.1156,3.5932,3.3414,3.3414,3.3414,3.3414,3.3414,3.3414,3.3414,0.0,0.0,0.0,0.0,0.0,0.0,2.1909,2.2135,2.2312,0.0,2.3452,2.4155,2.4732,2.6163,2.7318,2.7419,2.8273,2.9126,2.9704,2.988,3.0131,3.0557,3.0708,3.1009,3.1662,3.2114,3.2466,3.2692,3.4048,3.5127,3.568,3.6132,3.6546,3.6709,3.6546,3.6981,3.8383,3.8088,3.8567,3.9697,3.9697,3.9697,3.9697,3.9697,4.0049,4.0701,4.1153,4.1706,4.2359,4.2785,4.3363,4.4016,4.4443,4.5045,4.5824,4.7355,4.7908,4.8058,4.9188,4.959,4.959,4.959,5.0042,5.067,5.1147,5.1749,5.2352,5.2804,5.2929,5.2929,5.2929,5.3306,5.3387,5.2284,5.223,5.1535,4.8623,4.7326,4.6264,4.4778,4.5123,4.5529,4.5137,4.5801,4.6484,4.6973,4.7051,4.7246,4.7773,4.8125,4.834,4.834,4.8652,4.8867,4.8867,4.8867,4.8867,4.8867,4.8867,4.8867,4.8867,4.3832,4.1139,4.1139,3.6129,3.3414,3.3414,3.3414,3.3414,3.3414,3.3414,3.3414,0.0,0.0,0.0,2.0306,0.0,0.0,0.0,2.1164,2.126,2.1886,2.2625,2.3427,2.4255,2.531,2.6314,2.7143,2.7745,2.8499,2.9628,2.9553,2.9478,2.9729,3.003,3.0407,3.0959,3.126,3.1763,3.2591,3.3671,3.455,3.5102,3.5655,3.5956,3.5956,3.6207,3.6759,3.7588,3.7864,3.8442,3.9295,3.9572,3.9697,3.9697,3.9697,3.9998,4.0551,4.1103,4.1656,4.2208,4.276,4.3313,4.3865,4.4418,4.497,4.5673,4.7305,4.7908,4.8058,4.9188,4.959,4.959,4.959,4.9967,5.0519,5.1096,5.185,5.2578,5.2854,5.2929,5.2929,5.2929,5.2585,5.2063,5.1534,5.0227,4.8764,4.722,4.592,4.4965,4.3856,4.4258,4.4785,4.5,4.5566,4.6269,4.7129,4.707,4.7168,4.7812,4.8086,4.8203,4.8203,4.8594,4.8867,4.8867,4.8867,4.8867,4.8867,4.8867,4.8867,4.8867,4.4021,3.9981,3.7282,3.477,3.3414,3.3414,3.3414,3.3414,3.3414,3.3414,3.3414,0.0,0.0,0.0,0.0,0.0,1.9599,0.0,0.0,0.0,2.1028,2.2031,0.0,0.0,0.0,0.0,0.0,0.0,0.0,0.0,2.8775,0.0,2.9051,2.9327,2.9729,3.0382,3.0557,3.121,3.2641,3.337,3.3922,3.4374,3.5127,3.5554,3.5554,3.6081,3.6634,3.7186,3.7739,3.8291,3.8868,3.9421,3.9697,3.9697,3.9697,3.9998,4.0551,4.1103,4.1656,4.2208,4.276,4.3313,4.3865,4.4418,4.497,4.5673,4.7305,4.7908,4.8058,4.9188,4.959,4.959,4.959,4.9756,5.0116,5.0687,5.1259,5.1747,5.1747,5.1747,5.1747,5.1747,5.096,5.0284,5.0188,4.8102,4.6279,4.6119,4.4802,4.3711,4.3711,4.4004,4.4433,4.4941,4.5391,4.6055,4.7168,4.7031,4.7051,4.7754,4.7988,4.8086,4.8086,4.8555,4.8867,4.8867,4.8867,4.8867,4.8867,4.8867,4.8867,4.8867,4.4021,3.8831,3.34,3.3414,3.3414,3.3414,3.3414,3.3414,3.3414,3.3414,3.3414,0.0,0.0,0.0,0.0,1.9673,0.0,0.0,0.0,2.2246,2.189,0.0,0.0,0.0,0.0,0.0,0.0,0.0,0.0,2.6189,2.6892,2.8021,2.9503,2.8875,2.8725,2.9779,3.0331,3.0884,3.1537,3.2566,3.3194,3.3269,3.4726,3.5554,3.5554,3.6081,3.6634,3.7186,3.7739,3.8291,3.8868,3.9421,3.9697,3.9697,3.9697,3.9998,4.0551,4.1103,4.1656,4.2208,4.276,4.3313,4.3865,4.4418,4.497,4.5673,4.7305,4.7908,4.8058,4.9188,4.959,4.959,4.959,4.9166,4.8666,4.9193,4.8614,4.7613,4.7613,4.7613,4.7613,4.7613,4.7999,4.7925,4.6459,4.6131,4.5803,4.4395,4.3856,4.3711,4.3711,4.375,4.4043,4.4883,4.5391,4.5859,4.6367,4.6406,4.6406,4.6504,4.7187,4.7656,4.7656,4.8379,4.8867,4.8867,4.8867,4.8867,4.8867,4.8867,4.8867,4.8867,4.4021,3.8831,3.34,3.3414,3.3414,3.3414,3.3414,3.3414,3.3414,3.3414,3.3414,0.0,0.0,0.0,0.0,0.0,0.0,1.9992,0.0,2.1538,0.0,0.0,0.0,0.0,0.0,0.0,0.0,2.6716,0.0,0.0,0.0,2.7293,0.0,0.0,0.0,2.9252,2.9804,3.0231,3.0457,3.1486,3.224,3.2566,3.3872,3.4726,3.5052,3.5906,3.6483,3.6709,3.7563,3.814,3.8391,3.927,3.9697,3.9697,3.9697,3.9998,4.0551,4.1103,4.1656,4.2233,4.3087,4.379,4.4342,4.4895,4.5271,4.5673,4.7305,4.7908,4.8058,4.9188,4.959,4.9511,4.8607,4.7661,4.6793,4.7298,4.7227,4.7029,4.7029,4.7029,4.7029,4.7029,4.6321,4.5621,4.549,4.4728,4.396,4.3719,4.3711,4.3711,4.3711,4.3711,4.3984,4.4863,4.5176,4.5605,4.6523,4.6465,4.6484,4.6973,4.7363,4.7676,4.791,4.8496,4.8867,4.8867,4.8867,4.8867,4.8867,4.8867,4.7512,4.4607,4.229,3.8831,3.34,3.3414,3.3414,3.3414,3.3414,3.3414,3.3414,3.3414,3.3414,1.9637,0.0,0.0,0.0,0.0,0.0,0.0,0.0,0.0,0.0,0.0,0.0,0.0,0.0,0.0,0.0,0.0,0.0,0.0,0.0,0.0,0.0,0.0,0.0,0.0,2.9453,2.9804,2.9804,3.0658,3.1361,3.1763,3.3119,3.4073,3.4474,3.5705,3.6358,3.6358,3.7462,3.8015,3.8015,3.9145,3.9697,3.9697,3.9697,4.0074,4.0752,4.1178,4.1731,4.2459,4.3413,4.4141,4.4694,4.5271,4.5573,4.5874,4.7205,4.7782,4.8058,4.9038,4.9152,4.8821,4.7407,4.6098,4.5002,4.5486,4.5587,4.5425,4.5425,4.5425,4.5425,4.5425,4.4398,4.3413,4.4214,4.3419,4.2637,4.3379,4.3633,4.3711,4.3711,4.3808,4.4141,4.4902,4.5019,4.541,4.6582,4.6504,4.6562,4.7305,4.75,4.7734,4.8164,4.8594,4.8867,4.8867,4.8867,4.8867,4.8867,4.8273,4.5773,4.1332,4.0561,3.805,3.3414,3.3414,3.3414,3.3414,3.3414,3.3414,3.3414,3.3414,3.3414,0.0,0.0,0.0,2.0332,0.0,0.0,0.0,0.0,2.2252,0.0,0.0,0.0,0.0,0.0,0.0,0.0,0.0,0.0,0.0,0.0,0.0,0.0,0.0,0.0,0.0,2.9453,2.9804,2.9804,3.0306,3.0658,3.0658,3.2717,3.3897,3.3922,3.5504,3.6358,3.6358,3.7462,3.8015,3.8015,3.9145,3.9697,3.9697,3.9697,4.03,4.1304,4.1329,4.1957,4.2986,4.3564,4.4141,4.4694,4.5271,4.5824,4.6351,4.6954,4.7481,4.7983,4.8586,4.8273,4.743,4.612,4.4591,4.3467,4.4079,4.2922,4.1327,4.1327,4.1327,4.1327,4.1327,4.1327,4.1445,4.1876,4.2129,4.2558,4.3008,4.3418,4.3711,4.3711,4.4062,4.4512,4.4961,4.5019,4.5312,4.6191,4.6308,4.6465,4.6894,4.7324,4.7734,4.8164,4.8594,4.8867,4.8867,4.8867,4.8867,4.8867,4.6523,4.4021,4.1332,3.8831,3.6129,3.3414,3.3414,3.3414,3.3414,3.3414,3.3414,3.3414,3.3414,3.3414,0.0,0.0,1.9653,2.0017,0.0,0.0,0.0,0.0,0.0,0.0,0.0,0.0,0.0,0.0,0.0,0.0,0.0,0.0,0.0,0.0,0.0,0.0,0.0,0.0,0.0,0.0,2.6931,2.7593,2.8232,2.9008,3.0055,3.1788,3.3119,3.3872,3.5152,3.6006,3.6358,3.7462,3.8015,3.8015,3.8172,3.8792,3.9697,3.8687,3.9382,4.1329,4.1329,4.1957,4.3062,4.3966,4.4468,4.4719,4.5673,4.615,4.6376,4.6928,4.7456,4.7908,4.7604,4.5913,4.3796,4.3702,4.2604,4.1463,4.2056,4.1753,4.1172,4.1172,4.1172,4.1172,4.1172,4.1172,4.1348,4.2051,4.2324,4.2617,4.334,4.3594,4.3711,4.3711,4.4082,4.4531,4.4961,4.5254,4.5644,4.6211,4.6543,4.6777,4.6914,4.7558,4.8047,4.8183,4.8594,4.8867,4.8867,4.8867,4.8867,4.8867,4.6523,4.3832,4.1332,3.8636,3.6129,3.3414,3.3414,3.3414,3.3414,3.3414,3.3521,3.3721,3.3721,3.3721,1.7999,1.8543,0.0,1.9605,1.9492,0.0,2.0176,0.0,0.0,0.0,0.0,0.0,0.0,0.0,0.0,0.0,0.0,0.0,0.0,2.3351,0.0,0.0,0.0,0.0,0.0,0.0,2.5926,2.6795,2.74,2.8324,2.9702,3.1336,3.2641,3.3571,3.4876,3.5805,3.6358,3.6948,3.7494,3.8015,3.7082,3.7477,3.8921,3.7902,3.849,4.0252,4.1014,4.1856,4.2785,4.4091,4.4618,4.4744,4.5874,4.5914,4.5453,4.5798,4.5991,4.5934,4.5087,4.3683,4.2188,4.1768,4.1274,4.0801,4.1094,4.1172,4.1211,4.1348,4.1289,4.1211,4.1348,4.1289,4.1308,4.1855,4.2207,4.2578,4.3125,4.3496,4.3711,4.3711,4.4199,4.4707,4.498,4.5508,4.5996,4.6269,4.6523,4.6758,4.6914,4.7539,4.8047,4.8183,4.8594,4.8867,4.8867,4.8867,4.8459,4.7493,4.5002,4.2482,3.9981,3.7282,3.5365,3.4028,3.3627,3.3627,3.4042,3.3734,3.3681,3.3895,3.3988,3.4095]}]]